[[{"header":{"parameterUnit":"m.s-1","parameterCategory":1,"la1":31.0,"la2":29.5877,"lo1":-88.7671,"lo2":-86.6584,"dy":0.0162,"dx":0.0185,"nx":115,"ny":88,"refTime":"2023-06-11T12:00:00:Z","depth":0,"parameterNumber":2,"parameterNumberName":"U-component_of_WINDS"},"data":[0.0,0.0,0.0,0.0,0.0,0.0,0.0,0.0,0.0,0.0,0.0,0.0,0.0,0.0,0.0,0.0,0.0,0.0,0.0,0.0,0.0,0.0,0.0,0.0,0.0,0.0,0.0,0.0,0.0,0.0,0.0,0.0,0.0,0.0,0.0,0.0,0.0,0.0,0.0,0.0,0.0,0.0,0.0,0.0,0.0,0.0,0.0,0.0,0.0,0.0,0.0,0.0,0.0,0.0,0.0,0.0,0.0,0.0,0.0,0.0,0.0,0.0,0.0,0.0,0.0,0.0,0.0,0.0,0.0,0.0,0.0,0.0,0.0,0.0,0.0,0.0,0.0,0.0,0.0,0.0,0.0,0.0,0.0,0.0,0.0,0.0,0.0,0.0,0.0,0.0,0.0,0.0,0.0,0.0,0.0,0.0,0.0,0.0,0.0,0.0,0.0,0.0,0.0,0.0,0.0,0.0,0.0,0.0,0.0,0.0,0.0,0.0,0.0,0.0,0.0,0.0,0.0,0.0,0.0,0.0,0.0,0.0,0.0,0.0,0.0,0.0,0.0,0.0,0.0,0.0,0.0,0.0,0.0,0.0,0.0,0.0,0.0,0.0,0.0,0.0,0.0,0.0,0.0,0.0,0.0,0.0,0.0,0.0,0.0,0.0,0.0,0.0,0.0,0.0,0.0,0.0,0.0,0.0,0.0,0.0,0.0,0.0,0.0,0.0,0.0,0.0,0.0,0.0,0.0,0.0,0.0,0.0,0.0,0.0,0.0,0.0,0.0,0.0,0.0,0.0,0.0,0.0,0.0,0.0,0.0,0.0,0.0,0.0,0.0,0.0,0.0,0.0,0.0,0.0,0.0,0.0,0.0,0.0,0.0,0.0,0.0,0.0,0.0,0.0,0.0,0.0,0.0,0.0,0.0,0.0,0.0,0.0,0.0,0.0,0.0,0.0,0.0,0.0,0.0,0.0,0.0,0.0,0.0,0.0,0.0,0.0,0.0,0.0,0.0,0.0,0.0,0.0,0.0,0.0,0.0,0.0,0.0,0.0,0.0,0.0,0.0,0.0,0.0,0.0,0.0,0.0,0.0,0.0,0.0,0.0,0.0,0.0,0.0,0.0,0.0,0.0,0.0,0.0,0.0,0.0,0.0,0.0,0.0,0.0,0.0,0.0,0.0,0.0,0.0,0.0,0.0,0.0,0.0,0.0,0.0,0.0,0.0,0.0,0.0,0.0,0.0,0.0,0.0,0.0,0.0,0.0,0.0,0.0,0.0,0.0,0.0,0.0,0.0,0.0,0.0,0.0,0.0,0.0,0.0,0.0,0.0,0.0,0.0,0.0,0.0,0.0,0.0,0.0,0.0,0.0,0.0,0.0,0.0,0.0,0.0,0.0,0.0,0.0,0.0,0.0,0.0,0.0,0.0,0.0,0.0,0.0,0.0,0.0,0.0,0.0,0.0,0.0,0.0,0.0,0.0,0.0,0.0,0.0,0.0,0.0,0.0,0.0,0.0,0.0,0.0,0.0,0.0,0.0,0.0,0.0,0.0,0.0,0.0,0.0,0.0,0.0,0.0,0.0,0.0,0.0,0.0,0.0,0.0,0.0,0.0,0.0,0.0,0.0,0.0,0.0,0.0,0.0,0.0,0.0,0.0,0.0,0.0,0.0,0.0,0.0,0.0,0.0,0.0,0.0,0.0,0.0,0.0,0.0,0.0,0.0,0.0,0.0,0.0,0.0,0.0,0.0,0.0,0.0,0.0,0.0,0.0,0.0,0.0,0.0,0.0,0.0,0.0,0.0,0.0,0.0,0.0,0.0,0.0,0.0,0.0,0.0,0.0,0.0,0.0,0.0,0.0,0.0,0.0,0.0,0.0,0.0,0.0,0.0,0.0,0.0,0.0,0.0,0.0,0.0,0.0,0.0,0.0,0.0,0.0,0.0,0.0,0.0,0.0,0.0,0.0,0.0,0.0,0.0,0.0,0.0,0.0,0.0,0.0,0.0,0.0,0.0,0.0,0.0,0.0,0.0,0.0,0.0,0.0,0.0,0.0,0.0,0.0,0.0,0.0,0.0,0.0,0.0,0.0,0.0,0.0,0.0,0.0,0.0,0.0,0.0,0.0,0.0,0.0,0.0,0.0,0.0,0.0,0.0,0.0,0.0,0.0,0.0,0.0,0.0,0.0,0.0,0.0,0.0,0.0,0.0,0.0,0.0,0.0,0.0,0.0,0.0,0.0,0.0,0.0,0.0,0.0,0.0,0.0,0.0,0.0,0.0,0.0,0.0,0.0,0.0,0.0,0.0,0.0,0.0,0.0,0.0,0.0,0.0,0.0,0.0,0.0,0.0,0.0,0.0,0.0,0.0,0.0,0.0,0.0,0.0,0.0,0.0,0.0,0.0,0.0,0.0,0.0,0.0,0.0,0.0,0.0,0.0,0.0,0.0,0.0,0.0,0.0,0.0,0.0,0.0,0.0,0.0,0.0,0.0,0.0,0.0,0.0,0.0,0.0,0.0,0.0,0.0,0.0,0.0,0.0,0.0,0.0,0.0,0.0,0.0,0.0,0.0,0.0,0.0,0.0,0.0,0.0,0.0,0.0,0.0,0.0,0.0,0.0,0.0,0.0,0.0,0.0,0.0,0.0,0.0,0.0,0.0,0.0,0.0,0.0,0.0,0.0,0.0,0.0,0.0,0.0,0.0,0.0,0.0,0.0,0.0,0.0,0.0,0.0,0.0,0.0,0.0,0.0,0.0,0.0,0.0,0.0,0.0,0.0,0.0,0.0,0.0,0.0,0.0,0.0,0.0,0.0,0.0,0.0,0.0,0.0,0.0,0.0,0.0,0.0,0.0,0.0,0.0,0.0,0.0,0.0,0.0,0.0,0.0,0.0,0.0,0.0,0.0,0.0,0.0,0.0,0.0,0.0,0.0,0.0,0.0,0.0,0.0,0.0,0.0,0.0,0.0,0.0,0.0,0.0,0.0,0.0,0.0,0.0,0.0,0.0,0.0,0.0,0.0,0.0,0.0,0.0,0.0,0.0,0.0,0.0,0.0,0.0,0.0,0.0,0.0,0.0,0.0,0.0,0.0,0.0,0.0,0.0,0.0,0.0,0.0,0.0,0.0,0.0,0.0,0.0,0.0,0.0,0.0,0.0,0.0,0.0,0.0,0.0,0.0,0.0,0.0,0.0,0.0,0.0,0.0,0.0,0.0,0.0,0.0,0.0,0.0,0.0,0.0,0.0,0.0,0.0,0.0,0.0,0.0,0.0,0.0,0.0,0.0,0.0,0.0,0.0,0.0,0.0,0.0,0.0,0.0,0.0,0.0,0.0,0.0,0.0,0.0,0.0,0.0,0.0,0.0,0.0,0.0,0.0,0.0,0.0,0.0,0.0,0.0,0.0,0.0,0.0,0.0,0.0,0.0,0.0,0.0,0.0,0.0,0.0,0.0,0.0,0.0,0.0,0.0,0.0,0.0,0.0,0.0,0.0,0.0,0.0,0.0,0.0,0.0,0.0,0.0,0.0,0.0,0.0,0.0,0.0,0.0,0.0,0.0,0.0,0.0,0.0,0.0,0.0,0.0,0.0,0.0,0.0,0.0,0.0,0.0,0.0,0.0,0.0,0.0,0.0,0.0,0.0,0.0,0.0,0.0,0.0,0.0,0.0,0.0,0.0,0.0,0.0,0.0,0.0,0.0,0.0,0.0,0.0,0.0,0.0,0.0,0.0,0.0,0.0,0.0,0.0,0.0,0.0,0.0,0.0,0.0,0.0,0.0,0.0,0.0,0.0,0.0,0.0,0.0,0.0,0.0,0.0,0.0,0.0,0.0,0.0,0.0,0.0,0.0,0.0,0.0,0.0,0.0,0.0,0.0,0.0,0.0,0.0,0.0,0.0,0.0,0.0,0.0,0.0,0.0,0.0,0.0,0.0,0.0,0.0,0.0,0.0,0.0,0.0,0.0,0.0,0.0,0.0,0.0,0.0,0.0,0.0,0.0,0.0,0.0,0.0,0.0,0.0,0.0,0.0,0.0,0.0,0.0,0.0,0.0,0.0,0.0,0.0,0.0,0.0,0.0,0.0,0.0,0.0,0.0,0.0,0.0,0.0,0.0,0.0,0.0,0.0,0.0,0.0,0.0,0.0,0.0,0.0,0.0,0.0,0.0,0.0,0.0,0.0,0.0,0.0,0.0,0.0,0.0,0.0,0.0,0.0,0.0,0.0,0.0,0.0,0.0,0.0,0.0,0.0,0.0,0.0,0.0,-4.6547,0.0,0.0,0.0,0.0,0.0,0.0,0.0,0.0,0.0,0.0,0.0,0.0,0.0,0.0,0.0,0.0,0.0,0.0,0.0,0.0,0.0,0.0,0.0,0.0,0.0,0.0,0.0,0.0,0.0,0.0,0.0,0.0,0.0,0.0,0.0,0.0,0.0,0.0,0.0,0.0,0.0,0.0,0.0,0.0,0.0,0.0,0.0,0.0,0.0,0.0,0.0,0.0,0.0,0.0,0.0,0.0,0.0,0.0,0.0,0.0,0.0,0.0,0.0,0.0,0.0,0.0,0.0,0.0,0.0,0.0,0.0,0.0,0.0,0.0,0.0,0.0,0.0,0.0,0.0,0.0,0.0,0.0,0.0,0.0,0.0,0.0,0.0,0.0,0.0,0.0,0.0,0.0,0.0,0.0,0.0,0.0,0.0,0.0,0.0,0.0,0.0,0.0,0.0,0.0,0.0,0.0,0.0,0.0,0.0,0.0,-4.6195,-4.7248,-4.6292,-4.5938,-4.6248,0.0,0.0,0.0,0.0,0.0,0.0,0.0,0.0,0.0,0.0,0.0,0.0,0.0,0.0,0.0,0.0,0.0,0.0,0.0,0.0,0.0,0.0,0.0,0.0,0.0,0.0,0.0,0.0,0.0,0.0,0.0,0.0,0.0,0.0,0.0,0.0,0.0,0.0,0.0,0.0,0.0,0.0,0.0,0.0,0.0,0.0,0.0,0.0,0.0,0.0,0.0,0.0,0.0,0.0,0.0,0.0,0.0,0.0,0.0,0.0,0.0,0.0,0.0,0.0,0.0,0.0,0.0,0.0,0.0,0.0,0.0,0.0,0.0,0.0,0.0,0.0,0.0,0.0,0.0,0.0,0.0,0.0,0.0,0.0,0.0,0.0,0.0,0.0,0.0,0.0,0.0,0.0,0.0,0.0,0.0,0.0,0.0,0.0,0.0,0.0,0.0,0.0,0.0,0.0,0.0,0.0,0.0,0.0,0.0,0.0,0.0,0.0,-4.6652,-4.6027,-4.614,0.0,0.0,0.0,0.0,0.0,0.0,0.0,0.0,0.0,0.0,0.0,0.0,0.0,0.0,0.0,0.0,0.0,0.0,0.0,0.0,0.0,0.0,0.0,0.0,0.0,0.0,0.0,0.0,0.0,0.0,0.0,0.0,0.0,0.0,0.0,0.0,0.0,0.0,0.0,0.0,0.0,0.0,0.0,0.0,0.0,0.0,0.0,0.0,0.0,0.0,0.0,0.0,0.0,0.0,0.0,0.0,0.0,0.0,0.0,0.0,0.0,0.0,0.0,0.0,0.0,0.0,0.0,0.0,0.0,0.0,0.0,0.0,0.0,0.0,0.0,0.0,0.0,0.0,0.0,0.0,0.0,0.0,0.0,0.0,0.0,0.0,0.0,0.0,0.0,0.0,0.0,0.0,0.0,0.0,0.0,0.0,0.0,0.0,0.0,0.0,0.0,0.0,0.0,0.0,0.0,0.0,0.0,0.0,0.0,0.0,-4.768,-4.8922,-4.9473,0.0,-4.7205,0.0,0.0,0.0,0.0,0.0,0.0,0.0,0.0,0.0,0.0,0.0,0.0,0.0,0.0,0.0,0.0,0.0,0.0,0.0,0.0,0.0,0.0,0.0,0.0,0.0,0.0,0.0,0.0,0.0,0.0,0.0,0.0,0.0,0.0,0.0,0.0,0.0,0.0,0.0,0.0,0.0,0.0,0.0,0.0,0.0,0.0,0.0,0.0,0.0,0.0,0.0,0.0,0.0,0.0,0.0,0.0,0.0,0.0,0.0,0.0,0.0,0.0,0.0,0.0,0.0,0.0,0.0,0.0,0.0,0.0,0.0,0.0,0.0,0.0,0.0,0.0,0.0,0.0,0.0,0.0,0.0,0.0,0.0,0.0,0.0,0.0,0.0,0.0,0.0,0.0,0.0,0.0,0.0,0.0,0.0,0.0,0.0,0.0,0.0,0.0,0.0,0.0,0.0,0.0,0.0,0.0,0.0,0.0,0.0,0.0,-4.88,-5.0263,-4.9908,-4.892,0.0,0.0,0.0,0.0,0.0,0.0,0.0,0.0,0.0,0.0,0.0,0.0,0.0,0.0,0.0,0.0,0.0,0.0,0.0,0.0,0.0,0.0,0.0,0.0,0.0,0.0,0.0,0.0,0.0,0.0,0.0,0.0,0.0,0.0,0.0,0.0,0.0,0.0,0.0,0.0,0.0,0.0,0.0,0.0,0.0,0.0,0.0,0.0,0.0,0.0,0.0,0.0,0.0,0.0,0.0,0.0,0.0,0.0,0.0,0.0,0.0,0.0,0.0,0.0,0.0,0.0,0.0,0.0,0.0,0.0,0.0,0.0,0.0,0.0,0.0,0.0,0.0,0.0,0.0,0.0,0.0,0.0,0.0,0.0,0.0,0.0,0.0,0.0,0.0,0.0,0.0,0.0,0.0,0.0,0.0,0.0,0.0,0.0,0.0,0.0,0.0,0.0,0.0,0.0,0.0,0.0,0.0,0.0,0.0,0.0,-4.8249,-4.9713,-5.1526,-5.0418,-4.911,-4.7831,0.0,0.0,0.0,0.0,0.0,0.0,0.0,0.0,0.0,0.0,0.0,0.0,0.0,0.0,0.0,0.0,0.0,0.0,0.0,0.0,0.0,0.0,0.0,0.0,0.0,0.0,0.0,0.0,0.0,0.0,0.0,0.0,0.0,0.0,0.0,0.0,0.0,0.0,0.0,0.0,0.0,0.0,0.0,0.0,0.0,0.0,0.0,0.0,0.0,0.0,0.0,0.0,0.0,0.0,0.0,0.0,0.0,0.0,0.0,0.0,0.0,0.0,0.0,0.0,0.0,0.0,0.0,0.0,0.0,0.0,0.0,0.0,0.0,0.0,0.0,0.0,0.0,0.0,0.0,0.0,0.0,0.0,0.0,0.0,0.0,0.0,0.0,0.0,0.0,0.0,0.0,0.0,0.0,0.0,0.0,0.0,0.0,0.0,0.0,0.0,0.0,0.0,0.0,0.0,0.0,0.0,0.0,0.0,-4.6607,-4.8215,-5.0378,-5.305,-5.1622,-5.0397,0.0,0.0,0.0,0.0,0.0,0.0,0.0,0.0,0.0,0.0,0.0,0.0,0.0,0.0,0.0,0.0,0.0,0.0,0.0,0.0,0.0,0.0,0.0,0.0,0.0,0.0,0.0,0.0,0.0,0.0,0.0,0.0,0.0,0.0,0.0,0.0,0.0,0.0,0.0,0.0,0.0,0.0,0.0,0.0,0.0,0.0,0.0,0.0,0.0,0.0,0.0,0.0,0.0,0.0,0.0,0.0,0.0,0.0,0.0,0.0,0.0,0.0,0.0,0.0,0.0,0.0,0.0,0.0,0.0,0.0,0.0,0.0,0.0,0.0,0.0,0.0,0.0,0.0,0.0,0.0,0.0,0.0,0.0,0.0,0.0,0.0,0.0,0.0,0.0,0.0,0.0,0.0,0.0,0.0,0.0,0.0,0.0,0.0,0.0,0.0,0.0,0.0,0.0,0.0,0.0,0.0,0.0,0.0,0.0,-4.8486,-5.117,-5.3053,-5.3981,-5.2495,-5.1235,0.0,0.0,0.0,0.0,0.0,0.0,0.0,0.0,0.0,0.0,0.0,0.0,0.0,0.0,0.0,0.0,0.0,0.0,0.0,0.0,0.0,0.0,0.0,0.0,0.0,0.0,0.0,0.0,0.0,0.0,0.0,0.0,0.0,0.0,0.0,0.0,0.0,0.0,0.0,0.0,0.0,0.0,0.0,0.0,0.0,0.0,0.0,0.0,0.0,0.0,0.0,0.0,0.0,0.0,0.0,0.0,0.0,0.0,0.0,0.0,0.0,0.0,0.0,0.0,0.0,0.0,0.0,0.0,0.0,0.0,0.0,0.0,0.0,0.0,0.0,0.0,0.0,0.0,0.0,0.0,0.0,0.0,0.0,0.0,0.0,0.0,0.0,0.0,0.0,0.0,0.0,0.0,0.0,0.0,0.0,0.0,0.0,0.0,0.0,0.0,0.0,0.0,0.0,0.0,0.0,0.0,0.0,0.0,0.0,-5.0423,0.0,-5.4761,-5.4924,-5.3368,-5.1963,0.0,0.0,0.0,0.0,0.0,0.0,0.0,0.0,0.0,0.0,0.0,0.0,0.0,0.0,0.0,0.0,0.0,0.0,0.0,0.0,0.0,0.0,0.0,0.0,0.0,0.0,0.0,0.0,0.0,0.0,0.0,0.0,0.0,0.0,0.0,0.0,0.0,0.0,0.0,0.0,0.0,0.0,0.0,0.0,0.0,0.0,0.0,0.0,0.0,0.0,0.0,0.0,0.0,0.0,0.0,0.0,0.0,0.0,0.0,0.0,0.0,0.0,0.0,0.0,0.0,0.0,0.0,0.0,0.0,0.0,0.0,0.0,0.0,0.0,0.0,0.0,0.0,0.0,0.0,0.0,0.0,0.0,0.0,0.0,0.0,0.0,0.0,0.0,0.0,0.0,0.0,0.0,0.0,0.0,0.0,0.0,0.0,0.0,0.0,0.0,0.0,0.0,0.0,0.0,0.0,0.0,0.0,0.0,-4.799,-5.2122,-5.3948,-5.5249,-5.5949,-5.4298,-5.2544,0.0,0.0,0.0,0.0,0.0,0.0,0.0,0.0,0.0,0.0,0.0,0.0,0.0,0.0,0.0,0.0,0.0,0.0,0.0,0.0,0.0,0.0,0.0,0.0,0.0,0.0,0.0,0.0,0.0,0.0,0.0,0.0,0.0,0.0,0.0,0.0,0.0,0.0,0.0,0.0,0.0,0.0,0.0,0.0,0.0,0.0,0.0,0.0,0.0,0.0,0.0,0.0,0.0,0.0,0.0,0.0,0.0,0.0,0.0,0.0,0.0,0.0,0.0,0.0,0.0,0.0,0.0,0.0,0.0,0.0,0.0,0.0,0.0,0.0,0.0,0.0,0.0,0.0,0.0,0.0,0.0,0.0,0.0,0.0,0.0,0.0,0.0,0.0,0.0,0.0,0.0,0.0,0.0,0.0,0.0,0.0,0.0,0.0,0.0,0.0,0.0,0.0,0.0,0.0,0.0,0.0,0.0,0.0,0.0,-5.2326,-5.5038,-5.6528,-5.6639,-5.4955,-5.295,0.0,0.0,0.0,0.0,0.0,0.0,0.0,0.0,0.0,0.0,0.0,0.0,0.0,0.0,0.0,0.0,0.0,0.0,0.0,0.0,0.0,0.0,0.0,0.0,0.0,0.0,0.0,0.0,0.0,0.0,0.0,0.0,0.0,0.0,0.0,0.0,0.0,0.0,0.0,0.0,0.0,0.0,0.0,0.0,0.0,0.0,0.0,0.0,0.0,0.0,0.0,0.0,0.0,0.0,0.0,0.0,0.0,0.0,0.0,0.0,0.0,0.0,0.0,0.0,0.0,0.0,0.0,0.0,0.0,0.0,0.0,0.0,0.0,0.0,0.0,0.0,0.0,0.0,0.0,0.0,0.0,0.0,0.0,0.0,0.0,0.0,0.0,0.0,0.0,0.0,0.0,0.0,0.0,0.0,0.0,0.0,0.0,0.0,0.0,0.0,0.0,0.0,0.0,0.0,0.0,0.0,0.0,0.0,0.0,-5.3733,-5.6531,-5.7844,-5.7477,-5.57,-5.359,-5.1092,0.0,0.0,0.0,0.0,0.0,0.0,0.0,0.0,0.0,0.0,0.0,0.0,0.0,0.0,0.0,0.0,0.0,0.0,0.0,0.0,0.0,0.0,0.0,0.0,0.0,0.0,0.0,0.0,0.0,0.0,0.0,0.0,0.0,0.0,0.0,0.0,0.0,0.0,0.0,0.0,0.0,0.0,0.0,0.0,0.0,0.0,0.0,0.0,0.0,0.0,0.0,0.0,0.0,0.0,0.0,0.0,0.0,0.0,0.0,0.0,0.0,0.0,0.0,0.0,0.0,0.0,0.0,0.0,0.0,0.0,0.0,0.0,0.0,0.0,0.0,0.0,0.0,0.0,0.0,0.0,0.0,0.0,0.0,0.0,0.0,0.0,0.0,0.0,0.0,0.0,0.0,0.0,0.0,0.0,0.0,0.0,0.0,0.0,0.0,0.0,0.0,0.0,0.0,0.0,0.0,0.0,0.0,0.0,-5.5905,-5.8277,-5.9138,-5.8384,-5.6589,-5.4429,0.0,0.0,0.0,0.0,0.0,0.0,0.0,0.0,0.0,0.0,0.0,0.0,0.0,0.0,0.0,0.0,0.0,0.0,0.0,0.0,0.0,0.0,0.0,0.0,0.0,0.0,0.0,0.0,0.0,0.0,0.0,0.0,0.0,0.0,0.0,0.0,0.0,0.0,0.0,0.0,0.0,0.0,0.0,0.0,0.0,0.0,0.0,0.0,0.0,0.0,0.0,0.0,0.0,0.0,0.0,0.0,0.0,0.0,0.0,0.0,0.0,0.0,0.0,0.0,0.0,0.0,0.0,0.0,0.0,0.0,0.0,0.0,0.0,0.0,0.0,0.0,0.0,0.0,0.0,0.0,0.0,0.0,0.0,0.0,0.0,0.0,0.0,0.0,0.0,0.0,0.0,0.0,0.0,0.0,0.0,0.0,0.0,0.0,0.0,0.0,0.0,0.0,0.0,0.0,0.0,0.0,0.0,0.0,0.0,-5.6551,-5.9287,-6.064,-6.044,-5.8097,-5.5406,0.0,0.0,0.0,0.0,0.0,0.0,0.0,0.0,0.0,0.0,0.0,0.0,0.0,0.0,0.0,0.0,0.0,0.0,0.0,0.0,0.0,0.0,0.0,0.0,0.0,0.0,0.0,0.0,0.0,0.0,0.0,0.0,0.0,0.0,0.0,0.0,0.0,0.0,0.0,0.0,0.0,0.0,0.0,0.0,0.0,0.0,0.0,0.0,0.0,0.0,0.0,0.0,0.0,0.0,0.0,0.0,0.0,0.0,0.0,0.0,0.0,0.0,0.0,0.0,0.0,0.0,0.0,0.0,0.0,0.0,0.0,0.0,0.0,0.0,0.0,0.0,0.0,0.0,0.0,0.0,0.0,0.0,0.0,0.0,0.0,0.0,0.0,0.0,0.0,0.0,0.0,0.0,0.0,0.0,0.0,0.0,0.0,0.0,0.0,0.0,0.0,0.0,0.0,0.0,0.0,0.0,0.0,0.0,-5.51,-5.767,-6.0112,-6.155,-6.191,-5.9165,-5.6198,0.0,0.0,0.0,0.0,0.0,0.0,0.0,0.0,0.0,0.0,0.0,0.0,0.0,0.0,0.0,0.0,0.0,0.0,0.0,0.0,0.0,0.0,0.0,0.0,0.0,0.0,0.0,0.0,0.0,0.0,0.0,0.0,0.0,0.0,0.0,0.0,0.0,0.0,0.0,0.0,0.0,0.0,0.0,0.0,0.0,0.0,0.0,0.0,0.0,0.0,0.0,0.0,0.0,0.0,0.0,0.0,0.0,0.0,0.0,0.0,0.0,0.0,0.0,0.0,0.0,0.0,0.0,0.0,0.0,0.0,0.0,0.0,0.0,0.0,0.0,0.0,0.0,0.0,0.0,0.0,0.0,0.0,0.0,0.0,0.0,0.0,0.0,0.0,0.0,0.0,0.0,0.0,0.0,0.0,0.0,0.0,0.0,0.0,0.0,0.0,0.0,0.0,0.0,0.0,0.0,0.0,0.0,0.0,-5.5898,-5.8878,-6.0677,-6.1973,-6.2602,-5.9829,-5.6896,0.0,0.0,0.0,0.0,0.0,0.0,0.0,0.0,0.0,0.0,0.0,0.0,0.0,0.0,0.0,0.0,0.0,0.0,0.0,0.0,0.0,0.0,0.0,0.0,0.0,0.0,0.0,0.0,0.0,0.0,0.0,0.0,0.0,0.0,0.0,0.0,0.0,0.0,0.0,0.0,0.0,0.0,0.0,0.0,0.0,0.0,0.0,0.0,0.0,0.0,0.0,0.0,0.0,0.0,0.0,0.0,0.0,0.0,0.0,0.0,0.0,0.0,0.0,0.0,0.0,0.0,0.0,0.0,0.0,0.0,0.0,0.0,0.0,0.0,0.0,0.0,0.0,0.0,0.0,0.0,0.0,0.0,0.0,0.0,0.0,0.0,0.0,0.0,0.0,0.0,0.0,0.0,0.0,0.0,0.0,0.0,0.0,0.0,0.0,0.0,0.0,0.0,0.0,0.0,0.0,0.0,0.0,0.0,-5.632,-5.8644,-6.0498,-6.1704,-6.2281,-5.9973,-5.7552,0.0,0.0,0.0,0.0,0.0,0.0,0.0,0.0,0.0,0.0,0.0,0.0,0.0,0.0,0.0,0.0,0.0,0.0,0.0,0.0,0.0,0.0,0.0,0.0,0.0,0.0,0.0,0.0,0.0,0.0,0.0,0.0,0.0,0.0,0.0,0.0,0.0,0.0,0.0,0.0,0.0,0.0,0.0,0.0,0.0,0.0,0.0,0.0,-5.405,0.0,0.0,0.0,0.0,0.0,0.0,0.0,0.0,0.0,0.0,0.0,0.0,0.0,0.0,0.0,0.0,0.0,0.0,0.0,0.0,0.0,0.0,0.0,0.0,0.0,0.0,0.0,0.0,0.0,0.0,0.0,0.0,0.0,0.0,0.0,0.0,0.0,0.0,0.0,0.0,0.0,0.0,0.0,0.0,0.0,0.0,0.0,0.0,0.0,0.0,0.0,0.0,0.0,0.0,0.0,0.0,0.0,0.0,0.0,-5.6876,-5.9107,-6.075,-6.1741,-6.2014,-5.9924,-5.7655,0.0,0.0,0.0,0.0,0.0,0.0,0.0,0.0,0.0,0.0,0.0,0.0,0.0,0.0,0.0,0.0,0.0,0.0,0.0,0.0,0.0,0.0,0.0,0.0,0.0,0.0,0.0,0.0,0.0,0.0,0.0,0.0,0.0,0.0,0.0,0.0,0.0,0.0,0.0,0.0,0.0,0.0,0.0,0.0,0.0,0.0,0.0,0.0,0.0,0.0,0.0,0.0,0.0,0.0,0.0,0.0,0.0,0.0,0.0,0.0,0.0,0.0,0.0,0.0,0.0,0.0,0.0,0.0,0.0,0.0,0.0,0.0,0.0,0.0,0.0,0.0,0.0,0.0,0.0,0.0,0.0,0.0,0.0,0.0,0.0,0.0,0.0,0.0,0.0,0.0,0.0,0.0,0.0,0.0,0.0,0.0,0.0,0.0,0.0,0.0,0.0,0.0,0.0,0.0,0.0,0.0,0.0,-5.4801,-5.7209,-5.9621,-6.0928,-6.1658,-6.1832,-5.9762,-5.743,-5.4888,0.0,0.0,0.0,0.0,0.0,0.0,0.0,0.0,0.0,0.0,0.0,0.0,0.0,0.0,0.0,0.0,0.0,0.0,0.0,0.0,0.0,0.0,0.0,0.0,0.0,0.0,0.0,0.0,0.0,0.0,0.0,0.0,0.0,0.0,0.0,0.0,0.0,0.0,-5.0999,-5.433,0.0,0.0,0.0,0.0,0.0,0.0,0.0,0.0,-5.6196,0.0,0.0,0.0,0.0,0.0,0.0,0.0,0.0,0.0,0.0,0.0,0.0,0.0,0.0,0.0,0.0,0.0,0.0,0.0,0.0,0.0,0.0,0.0,0.0,0.0,0.0,0.0,0.0,0.0,0.0,0.0,0.0,0.0,0.0,0.0,0.0,0.0,0.0,0.0,0.0,0.0,0.0,0.0,0.0,0.0,0.0,0.0,0.0,0.0,0.0,0.0,0.0,0.0,0.0,0.0,0.0,-5.2046,-5.4142,-5.6536,-5.924,-6.0186,-6.0837,-6.1151,-5.9384,-5.7023,-5.4186,0.0,0.0,0.0,0.0,0.0,0.0,0.0,0.0,0.0,0.0,0.0,0.0,0.0,0.0,0.0,0.0,0.0,0.0,0.0,0.0,0.0,0.0,0.0,0.0,0.0,0.0,0.0,0.0,0.0,0.0,0.0,0.0,0.0,0.0,0.0,0.0,0.0,0.0,0.0,-5.5474,-5.7637,0.0,0.0,0.0,0.0,0.0,0.0,0.0,0.0,-5.4955,0.0,0.0,0.0,0.0,0.0,0.0,0.0,0.0,0.0,0.0,0.0,0.0,0.0,0.0,0.0,0.0,0.0,0.0,0.0,0.0,0.0,0.0,0.0,0.0,0.0,0.0,0.0,0.0,0.0,0.0,0.0,0.0,0.0,0.0,0.0,0.0,0.0,0.0,0.0,0.0,0.0,0.0,0.0,0.0,0.0,0.0,0.0,0.0,0.0,0.0,0.0,0.0,0.0,0.0,0.0,-5.2323,-5.3926,-5.6052,-5.8829,-5.9545,-5.9988,-6.016,-5.833,-5.5992,0.0,0.0,0.0,0.0,0.0,0.0,0.0,0.0,0.0,0.0,0.0,0.0,0.0,0.0,0.0,0.0,0.0,0.0,0.0,0.0,0.0,0.0,0.0,0.0,0.0,0.0,0.0,0.0,0.0,0.0,0.0,0.0,0.0,0.0,0.0,0.0,0.0,0.0,0.0,0.0,-5.6744,-5.8854,-5.9142,0.0,0.0,0.0,0.0,0.0,0.0,-5.5705,-5.5097,0.0,0.0,0.0,0.0,0.0,0.0,0.0,0.0,0.0,0.0,0.0,0.0,0.0,0.0,0.0,0.0,0.0,0.0,0.0,0.0,0.0,0.0,0.0,0.0,0.0,0.0,0.0,0.0,0.0,0.0,0.0,0.0,0.0,0.0,0.0,0.0,0.0,0.0,0.0,0.0,0.0,0.0,0.0,0.0,0.0,0.0,0.0,0.0,0.0,0.0,0.0,0.0,0.0,0.0,0.0,-5.2596,-5.3655,-5.5471,-5.8163,-5.8621,-5.8908,-5.8984,-5.7097,-5.48,0.0,0.0,0.0,0.0,0.0,0.0,0.0,0.0,0.0,0.0,0.0,0.0,0.0,0.0,0.0,0.0,0.0,0.0,0.0,0.0,0.0,0.0,0.0,0.0,0.0,0.0,0.0,0.0,0.0,0.0,0.0,0.0,0.0,0.0,0.0,0.0,0.0,0.0,0.0,0.0,0.0,-5.9545,-5.9157,-5.9268,0.0,0.0,0.0,0.0,-5.7092,-5.6423,0.0,0.0,0.0,0.0,0.0,0.0,0.0,0.0,0.0,0.0,0.0,0.0,0.0,0.0,0.0,0.0,0.0,0.0,0.0,0.0,0.0,0.0,0.0,0.0,0.0,0.0,0.0,0.0,0.0,0.0,0.0,0.0,0.0,0.0,0.0,0.0,0.0,0.0,0.0,0.0,0.0,0.0,0.0,0.0,0.0,0.0,0.0,0.0,0.0,0.0,0.0,0.0,0.0,0.0,0.0,0.0,-5.1955,-5.2735,-5.4314,-5.6668,-5.6897,-5.721,-5.7754,-5.5993,-5.3744,0.0,0.0,0.0,0.0,0.0,0.0,0.0,0.0,0.0,0.0,0.0,0.0,0.0,0.0,0.0,0.0,0.0,0.0,0.0,0.0,0.0,0.0,0.0,0.0,0.0,0.0,0.0,0.0,0.0,0.0,0.0,0.0,0.0,0.0,0.0,0.0,0.0,0.0,0.0,0.0,0.0,-5.9069,-5.992,-6.0464,-6.0731,0.0,0.0,-5.8826,-5.8314,-5.6832,0.0,0.0,0.0,0.0,0.0,0.0,0.0,0.0,0.0,0.0,0.0,0.0,0.0,0.0,0.0,0.0,0.0,0.0,0.0,0.0,0.0,0.0,0.0,0.0,0.0,0.0,0.0,0.0,0.0,0.0,0.0,0.0,0.0,0.0,0.0,0.0,0.0,0.0,0.0,0.0,0.0,0.0,0.0,0.0,0.0,0.0,0.0,0.0,0.0,0.0,0.0,0.0,0.0,0.0,0.0,-4.8332,-5.1175,-5.2203,-5.3885,-5.6252,-5.6357,-5.6421,-5.6466,-5.4852,-5.2756,0.0,0.0,0.0,0.0,0.0,0.0,0.0,0.0,0.0,0.0,0.0,0.0,0.0,0.0,0.0,0.0,0.0,0.0,0.0,0.0,0.0,0.0,0.0,0.0,0.0,0.0,0.0,0.0,0.0,0.0,0.0,0.0,0.0,0.0,0.0,0.0,0.0,0.0,0.0,0.0,0.0,0.0,-5.9478,-6.0187,0.0,0.0,0.0,-5.8684,-5.822,0.0,0.0,0.0,0.0,0.0,0.0,0.0,0.0,0.0,0.0,0.0,0.0,0.0,0.0,0.0,0.0,0.0,0.0,0.0,0.0,0.0,0.0,0.0,0.0,0.0,0.0,0.0,0.0,0.0,0.0,0.0,0.0,0.0,0.0,0.0,0.0,0.0,0.0,0.0,0.0,0.0,0.0,0.0,0.0,0.0,0.0,0.0,0.0,0.0,0.0,0.0,0.0,0.0,0.0,0.0,0.0,0.0,-5.0472,-5.1687,-5.3376,-5.5574,-5.566,-5.5516,-5.5174,-5.3731,0.0,0.0,0.0,0.0,0.0,0.0,0.0,0.0,0.0,0.0,0.0,0.0,0.0,0.0,0.0,0.0,0.0,0.0,0.0,0.0,0.0,0.0,0.0,0.0,0.0,0.0,0.0,-4.4315,0.0,0.0,0.0,0.0,0.0,0.0,0.0,0.0,0.0,0.0,0.0,0.0,0.0,0.0,-5.8062,-5.8795,-5.9827,-6.0375,0.0,0.0,-5.8685,-5.8163,-5.6875,-5.5692,0.0,0.0,0.0,0.0,0.0,0.0,0.0,0.0,0.0,0.0,0.0,0.0,0.0,0.0,0.0,0.0,0.0,0.0,0.0,0.0,0.0,0.0,0.0,0.0,0.0,0.0,0.0,0.0,0.0,0.0,0.0,0.0,0.0,0.0,0.0,0.0,0.0,0.0,0.0,0.0,0.0,0.0,0.0,0.0,0.0,0.0,0.0,0.0,0.0,0.0,0.0,0.0,0.0,0.0,0.0,-4.9907,-5.1145,-5.254,-5.4095,-5.4131,-5.4114,-5.4064,-5.2501,-5.0827,0.0,0.0,0.0,0.0,0.0,0.0,0.0,0.0,0.0,0.0,0.0,0.0,0.0,0.0,0.0,0.0,0.0,0.0,0.0,0.0,0.0,0.0,0.0,0.0,0.0,0.0,0.0,0.0,0.0,0.0,0.0,0.0,0.0,0.0,0.0,0.0,0.0,0.0,0.0,0.0,0.0,-5.7145,-5.8281,-5.9781,-6.0651,0.0,0.0,-5.9745,-5.8532,-5.6967,-5.5502,-5.4316,0.0,0.0,0.0,0.0,0.0,0.0,0.0,0.0,0.0,0.0,0.0,0.0,0.0,0.0,0.0,0.0,0.0,0.0,0.0,0.0,0.0,0.0,0.0,0.0,0.0,0.0,0.0,0.0,0.0,0.0,0.0,0.0,0.0,0.0,0.0,0.0,0.0,0.0,0.0,0.0,0.0,0.0,0.0,0.0,0.0,0.0,0.0,0.0,0.0,0.0,0.0,0.0,0.0,-4.7875,-4.922,-5.0844,-5.246,-5.3912,-5.398,-5.3965,-5.3816,-5.2304,-5.0682,0.0,0.0,0.0,0.0,0.0,0.0,0.0,0.0,0.0,0.0,0.0,0.0,0.0,0.0,0.0,0.0,0.0,0.0,0.0,0.0,0.0,0.0,0.0,0.0,0.0,0.0,0.0,0.0,-4.522,-4.5494,-4.6613,0.0,0.0,0.0,0.0,0.0,0.0,0.0,0.0,0.0,0.0,-5.6599,-5.7794,-5.8836,0.0,0.0,-5.8502,-5.794,-5.7334,-5.5728,-5.454,-5.4531,-5.1883,0.0,0.0,0.0,0.0,0.0,0.0,0.0,0.0,0.0,0.0,0.0,0.0,0.0,0.0,0.0,0.0,0.0,0.0,0.0,0.0,0.0,0.0,0.0,0.0,0.0,0.0,0.0,0.0,0.0,0.0,0.0,0.0,0.0,0.0,0.0,0.0,0.0,0.0,0.0,0.0,0.0,0.0,0.0,0.0,0.0,0.0,0.0,0.0,0.0,0.0,0.0,0.0,-4.7698,-4.8625,-5.0536,-5.2204,-5.3617,-5.3684,-5.3499,-5.3111,-5.1909,-5.0396,0.0,0.0,0.0,0.0,0.0,0.0,0.0,0.0,0.0,0.0,0.0,0.0,0.0,0.0,0.0,0.0,0.0,0.0,0.0,0.0,0.0,0.0,0.0,0.0,0.0,0.0,0.0,0.0,-4.5022,-4.538,-4.6486,0.0,0.0,0.0,0.0,0.0,0.0,0.0,0.0,0.0,0.0,-5.5695,-5.6868,-5.7599,-5.7942,-5.7697,-5.6876,-5.6175,-5.5803,-5.4255,-5.3156,-5.3512,0.0,0.0,0.0,0.0,0.0,0.0,0.0,0.0,0.0,0.0,0.0,0.0,0.0,0.0,0.0,0.0,0.0,0.0,0.0,0.0,0.0,0.0,0.0,0.0,0.0,0.0,0.0,0.0,0.0,0.0,-3.9329,0.0,0.0,0.0,0.0,0.0,0.0,0.0,0.0,0.0,0.0,0.0,0.0,0.0,0.0,0.0,0.0,0.0,0.0,0.0,0.0,0.0,0.0,-4.6999,-4.8308,-5.0087,-5.1614,-5.2854,-5.2938,-5.2569,-5.1849,-5.1078,-4.9859,-4.8016,0.0,0.0,0.0,0.0,0.0,0.0,0.0,0.0,0.0,0.0,0.0,0.0,0.0,0.0,0.0,0.0,0.0,0.0,0.0,0.0,0.0,0.0,0.0,0.0,0.0,0.0,-4.5818,-4.5235,-4.5077,0.0,0.0,0.0,0.0,0.0,0.0,0.0,0.0,0.0,0.0,-5.2869,-5.4231,-5.5279,-5.6074,-5.6436,-5.632,-5.5585,-5.4868,-5.4117,-5.2639,-5.1286,0.0,0.0,0.0,0.0,0.0,0.0,0.0,0.0,0.0,0.0,0.0,0.0,0.0,0.0,0.0,0.0,0.0,0.0,0.0,0.0,0.0,0.0,0.0,0.0,0.0,0.0,0.0,-4.081,-4.0948,0.0,0.0,0.0,0.0,0.0,0.0,0.0,0.0,0.0,0.0,0.0,-4.5722,-4.5604,0.0,0.0,0.0,0.0,0.0,0.0,0.0,0.0,0.0,0.0,0.0,0.0,-4.7045,-4.745,-4.9509,-5.076,-5.109,-5.1589,-5.1403,-5.0553,-4.984,-4.8248,-4.5733,0.0,0.0,0.0,0.0,0.0,0.0,0.0,0.0,0.0,0.0,0.0,0.0,0.0,0.0,0.0,0.0,0.0,0.0,0.0,0.0,0.0,0.0,0.0,0.0,0.0,-4.5194,0.0,0.0,0.0,0.0,0.0,0.0,0.0,0.0,0.0,0.0,0.0,-4.9576,-5.0328,-5.1691,-5.2867,-5.3646,-5.3842,-5.3898,0.0,0.0,0.0,0.0,0.0,0.0,0.0,0.0,0.0,0.0,0.0,0.0,0.0,0.0,-4.9018,-4.9018,-4.8815,-4.8494,-4.7986,0.0,0.0,0.0,0.0,0.0,0.0,0.0,0.0,0.0,0.0,0.0,0.0,0.0,0.0,-4.1491,0.0,-4.0308,0.0,0.0,0.0,0.0,0.0,0.0,0.0,0.0,-4.5303,-4.5837,-4.5997,-4.5561,-4.5508,0.0,-4.5217,-4.4469,0.0,0.0,0.0,0.0,0.0,0.0,0.0,0.0,-4.6695,-4.698,-4.8761,-4.9736,-4.9739,-5.0164,-4.9979,-4.9066,-4.8034,-4.6424,-4.4203,-4.2624,-4.1423,0.0,0.0,0.0,0.0,0.0,0.0,0.0,0.0,0.0,0.0,0.0,0.0,0.0,0.0,0.0,0.0,0.0,0.0,0.0,0.0,0.0,0.0,0.0,-4.4733,0.0,0.0,0.0,0.0,0.0,0.0,0.0,0.0,0.0,-4.7973,-4.8437,-4.9068,-4.9983,-5.0857,-5.1654,-5.223,0.0,0.0,0.0,0.0,0.0,0.0,0.0,-4.9881,-5.0371,-4.9644,-4.9018,-4.9018,-4.8612,-4.8595,-4.956,0.0,0.0,-4.9018,-4.9018,-4.8849,-4.8325,-4.8443,-4.8348,-4.7328,-4.7147,-4.6951,0.0,0.0,0.0,0.0,0.0,0.0,0.0,0.0,-4.2514,-4.2559,0.0,-4.1856,0.0,0.0,0.0,0.0,0.0,-4.367,0.0,0.0,-4.4948,-4.5321,-4.5207,-4.5426,-4.5478,-4.5334,-4.5733,-4.5394,-4.4296,-4.3987,0.0,0.0,0.0,0.0,0.0,0.0,-4.5947,-4.683,-4.792,-4.8551,-4.8683,-4.8727,-4.8296,-4.7361,-4.5805,-4.451,-4.3383,-4.18,-4.0662,-4.0154,-3.9208,0.0,0.0,0.0,0.0,0.0,0.0,0.0,0.0,0.0,0.0,0.0,0.0,0.0,0.0,0.0,0.0,0.0,0.0,0.0,0.0,-4.3927,0.0,0.0,0.0,0.0,0.0,0.0,0.0,0.0,0.0,0.0,-4.8035,-4.8247,-4.8805,-5.0147,0.0,0.0,0.0,0.0,-5.11,-5.115,-5.0524,-5.005,-5.005,-4.9475,-4.9018,-4.9035,0.0,0.0,-4.9018,-4.9001,-4.9001,-4.9018,-4.9035,-4.9001,-4.8951,-4.8968,-4.8578,-4.7293,-4.7597,-4.7561,-4.6633,-4.6522,-4.6347,-4.538,0.0,0.0,0.0,0.0,-4.291,-4.2777,-4.2412,-4.306,-4.3266,-4.3138,-4.2602,0.0,0.0,0.0,0.0,0.0,0.0,-4.4098,-4.4789,-4.5447,-4.5911,-4.6151,-4.6239,-4.649,-4.689,-4.6876,-4.6461,-4.5703,-4.5279,-4.4351,-4.288,0.0,0.0,0.0,0.0,-4.5357,-4.553,-4.6824,-4.7213,-4.6668,-4.7145,-4.694,-4.606,-4.4851,-4.378,-4.2844,-4.1623,-4.0416,-3.9193,-3.8707,0.0,0.0,0.0,0.0,0.0,0.0,0.0,0.0,0.0,0.0,0.0,0.0,0.0,0.0,0.0,0.0,0.0,0.0,0.0,-4.436,-4.4343,-4.4594,0.0,0.0,0.0,0.0,0.0,0.0,0.0,0.0,0.0,-4.8134,-4.8464,-4.8849,0.0,0.0,-4.9469,-4.961,-4.9644,-4.9644,-4.9627,-4.9458,0.0,-4.9306,-4.9137,-4.9018,-4.9018,-4.9018,-4.9018,-4.9018,-4.9018,-4.9018,-4.9001,-4.9018,-4.8849,-4.8359,-4.8663,-4.8798,-4.8477,-4.8545,-4.8321,-4.7323,-4.7094,-4.6817,-4.6757,-4.628,-4.4941,-4.4255,-4.4009,-4.3994,-4.3756,-4.3417,-4.384,-4.3855,-4.3593,-4.3156,-4.2987,-4.2971,-4.2848,0.0,0.0,0.0,-4.4127,-4.4555,-4.4971,-4.5563,-4.6269,-4.615,-4.6593,-4.7437,-4.7337,-4.6965,-4.6307,-4.5827,-4.4813,-4.3396,0.0,0.0,-4.3713,-4.4394,-4.4776,-4.4824,-4.572,-4.5882,-4.5225,-4.5503,-4.5319,-4.4524,-4.3636,-4.2738,-4.1882,-4.0699,-3.9743,-3.9003,-3.8357,-3.8123,0.0,0.0,0.0,0.0,0.0,0.0,0.0,0.0,0.0,0.0,0.0,-4.047,-4.1138,0.0,0.0,0.0,-4.3146,-4.3509,-4.3937,-4.3877,0.0,0.0,0.0,0.0,0.0,0.0,0.0,-4.646,-4.6858,-4.7271,-4.7633,-4.797,-4.8356,-4.8844,-4.8909,-4.894,-4.897,0.0,-4.89,-4.8629,-4.8562,-4.8477,-4.8173,-4.8122,-4.8122,-4.8122,-4.8122,-4.8122,-4.8122,-4.8122,-4.8122,-4.8139,-4.8122,-4.7986,-4.7547,-4.7834,-4.8122,-4.8122,-4.8122,-4.7848,-4.7105,-4.696,-4.6667,-4.7681,-4.7573,-4.6357,-4.5403,-4.4779,-4.4779,-4.4748,-4.4687,-4.4702,-4.4302,-4.3701,-4.3701,-4.367,-4.3639,-4.4194,0.0,-4.3639,-4.4271,-4.4209,-4.3664,-4.393,-4.4686,-4.5864,-4.5496,-4.5992,-4.7309,-4.7309,-4.6935,-4.6232,-4.5736,-4.4825,-4.3615,-4.3404,-4.3324,-4.331,-4.384,-4.4239,-4.4556,-4.4692,-4.4579,-4.4297,-4.4089,-4.3684,-4.3092,-4.2424,-4.1698,-4.0803,-3.95,-3.8943,-3.926,-3.8093,-3.7719,-3.8332,0.0,0.0,0.0,0.0,0.0,0.0,0.0,0.0,0.0,0.0,0.0,0.0,0.0,0.0,0.0,-4.2837,0.0,-4.2919,-4.2919,0.0,0.0,0.0,-4.4708,-4.5446,-4.5621,-4.5698,-4.5715,0.0,0.0,-4.6725,-4.6952,-4.7471,-4.8455,-4.8652,-4.8748,-4.8886,-4.8785,-4.8548,-4.7872,-4.7834,-4.7581,-4.7056,-4.6921,-4.6938,-4.6921,-4.6786,-4.687,-4.687,-4.687,-4.6819,-4.6769,-4.6718,-4.6616,-4.6549,-4.6447,-4.6515,-4.638,-4.6583,-4.6613,-4.618,-4.5972,-4.5581,-4.8373,-4.8343,-4.8035,-4.7204,-4.6126,-4.6126,-4.5818,-4.5357,-4.5341,-4.4972,-4.4379,-4.4341,-4.4086,-4.3593,-4.3217,-4.3248,-4.3624,-4.3778,-4.404,-4.4341,-4.4282,-4.4804,-4.5849,-4.5645,-4.616,-4.7249,-4.7309,-4.6681,-4.5544,-4.4911,-4.3963,-4.2743,-4.2167,-4.2282,-4.3062,-4.3716,-4.4052,-4.4127,-4.4166,-4.4166,-4.4065,-4.4026,-4.3912,-4.376,-4.2954,-4.2214,-4.1467,-4.0004,-3.9041,-3.8646,-3.7853,-3.7704,-3.8347,-3.8377,0.0,0.0,0.0,0.0,0.0,0.0,0.0,0.0,0.0,-4.073,-4.1241,0.0,-4.2109,0.0,-4.2365,-4.2462,-4.2861,-4.2925,0.0,0.0,-4.4091,-4.4135,-4.4675,-4.4785,-4.4847,-4.4953,-4.545,-4.5864,-4.603,-4.6094,-4.6302,-4.6703,-4.7345,-4.7788,-4.7894,-4.745,-4.7093,-4.7077,-4.7039,-4.7005,-4.6752,-4.6786,-4.6701,-4.6786,-4.6752,-4.6786,-4.6769,-4.6786,-4.6616,-4.6109,-4.5974,-4.5534,-4.4468,-4.4215,-4.3995,-4.3639,-4.4722,-4.5684,-4.4809,-4.4198,-4.3492,-4.8604,-4.8604,-4.8604,-4.8173,-4.7465,-4.7173,-4.6665,-4.6034,-4.5726,-4.5241,-4.461,-4.461,-4.4372,-4.404,-4.3664,-4.3701,-4.4055,-4.4055,-4.4255,-4.4572,-4.4396,-4.4769,-4.5601,-4.5289,-4.5642,-4.6509,-4.6454,-4.5873,-4.487,-4.4197,-4.321,-4.1976,-4.1587,-4.1528,-4.1859,-4.2492,-4.2824,-4.2863,-4.315,-4.3316,-4.3301,-4.3301,-4.3165,-4.2824,-4.2401,-4.1949,-4.1558,-4.0456,-3.9664,-3.929,-3.8362,-3.8018,-3.8362,-3.8377,-3.8556,0.0,0.0,0.0,0.0,0.0,0.0,0.0,0.0,0.0,0.0,0.0,-4.1609,-4.1614,-4.1406,-4.1292,-4.1306,-4.1558,-4.2022,-4.2684,-4.2977,-4.3248,-4.3611,-4.3859,-4.4042,-4.4117,-4.4542,-4.4953,-4.5251,-4.5317,-4.5495,-4.5889,-4.6082,-4.6402,-4.6901,-4.669,-4.6443,-4.6212,-4.5995,-4.5563,-4.4925,-4.479,-4.4773,-4.479,-4.479,-4.479,-4.479,-4.479,-4.4637,-4.4282,-4.4181,-4.3944,-4.3098,-4.2912,-4.276,-4.2574,-4.3014,-4.3506,-4.3267,-4.2864,-4.2273,-4.8604,-4.8604,-4.8604,-4.8604,-4.8573,-4.7896,-4.7219,-4.6557,-4.5895,-4.5203,-4.461,-4.461,-4.461,-4.461,-4.461,-4.461,-4.461,-4.461,-4.461,-4.4572,-4.4435,-4.4687,-4.5282,-4.484,-4.4956,-4.5589,-4.5323,-4.4796,-4.4062,-4.3404,-4.2417,-4.1175,-4.1145,-4.0846,-4.0337,-4.0846,-4.122,-4.1422,-4.1991,-4.2276,-4.2276,-4.2276,-4.2036,-4.1572,-4.1467,-4.1422,-4.1407,-4.0666,-4.0277,-4.0232,-3.908,-3.8422,-3.8512,-3.8512,-3.8527,0.0,-3.9005,0.0,0.0,0.0,0.0,0.0,0.0,0.0,0.0,-4.0919,-4.0756,-4.037,-4.0146,-3.9813,-3.9218,-3.9704,-4.0146,-4.0435,-4.1406,-4.2139,-4.2327,-4.2759,-4.3062,-4.3138,-4.3228,-4.3549,-4.4108,-4.4274,-4.4522,-4.4917,-4.4569,-4.4527,-4.54,-4.5714,-4.5614,-4.5072,-4.462,-4.3904,-4.2844,-4.2455,-4.2455,-4.2388,-4.2523,-4.2303,-4.2472,-4.2439,-4.232,-4.2219,-4.2243,-4.2124,-4.2023,-4.1955,-4.1929,-4.1861,-4.1507,-4.1396,-4.1829,-4.1735,-4.1565,-4.8604,-4.8604,-4.8604,-4.8604,-4.8558,-4.7881,-4.7219,-4.6557,-4.588,-4.5218,-4.4625,-4.461,-4.461,-4.461,-4.461,-4.461,-4.461,-4.461,-4.461,-4.461,-4.4572,-4.4803,-4.5266,-4.5014,-4.5148,-4.5544,-4.4847,-4.3898,-4.277,-4.2111,-4.1085,-3.9828,-3.9783,-3.9738,-3.9619,0.0,0.0,0.0,-4.1504,-4.1602,-4.1617,-4.1564,-4.1811,-4.2186,-4.1692,0.0,-4.1392,-4.0232,-3.9589,-3.9574,-3.8826,0.0,0.0,0.0,0.0,0.0,0.0,0.0,0.0,0.0,0.0,0.0,-3.8341,-3.8855,-3.9545,-3.9252,-3.8982,-3.8891,-3.8758,-3.8613,-3.849,-3.8699,-3.9021,-3.9487,-3.9992,-4.043,-4.0841,-4.116,-4.138,-4.1593,-4.1667,-4.1774,-4.2059,-4.2038,-4.2121,-4.2369,-4.2137,-4.2116,-4.2356,-4.3098,-4.3304,-4.2807,-4.2797,-4.2675,-4.2337,-4.2236,-4.2151,-4.2303,-4.2303,-4.2252,-4.2219,-4.2236,-4.2033,-4.1559,-4.1328,-4.103,-4.0508,-4.0279,-4.0311,-4.0201,-4.0178,-4.0373,-4.1038,-4.0604,-4.007,-4.8604,0.0,-4.8604,-4.8419,0.0,-4.7388,-4.6726,-4.6065,-4.5741,-4.5218,-4.461,-4.461,-4.461,-4.461,-4.461,-4.461,-4.461,-4.461,-4.461,-4.461,-4.461,-4.4734,-4.4956,-4.431,-4.4131,-4.4285,-4.3322,-4.2357,-4.1452,-4.1055,-4.0397,-3.9403,-3.9388,-3.9388,-3.9388,-3.9388,-3.9903,-4.0876,-4.0891,-4.0891,-4.0891,-4.0891,-4.1055,-4.1369,-4.107,0.0,0.0,0.0,0.0,0.0,0.0,0.0,0.0,-3.8601,0.0,-3.8387,-3.8108,-3.7898,-3.7898,-3.7668,-3.7556,-3.7571,-3.7357,-3.7646,-3.8568,-3.8412,-3.8109,-3.7787,-3.7707,-3.7552,-3.7281,-3.7623,-3.8034,-3.8512,-3.9172,-3.9721,-4.0091,-4.0469,-4.075,-4.107,-4.1169,-4.1267,-4.1397,-4.1397,-4.1397,-4.1397,-4.1397,-4.1259,-4.1072,-4.1682,-4.2089,-4.1658,-4.1683,-4.161,-4.1271,-4.1213,-4.1247,-4.1213,-4.123,-4.1213,-4.1187,-4.1204,-4.1068,-4.0653,-4.0508,-4.0288,-3.9924,-3.9729,-3.9703,-3.9703,-3.9755,-3.9908,-4.0372,-4.0101,-3.9798,-4.8604,-4.8604,-4.8604,-4.8219,-4.7558,-4.688,-4.6142,-4.5418,0.0,0.0,0.0,-4.461,-4.461,-4.461,-4.461,-4.461,-4.461,-4.461,-4.461,-4.461,-4.461,-4.4548,-4.4372,-4.3434,-4.2925,-4.2773,-4.1761,-4.0935,-4.0397,-4.0292,-3.9948,-3.9433,-3.9388,-3.9388,-3.9388,-3.9388,-3.9679,-4.0187,-4.0217,-4.0232,-4.0232,-4.0232,-4.0232,-4.0232,-4.0113,-4.0292,-4.0816,-4.0217,-3.9873,-3.9843,-3.8811,-3.8212,-3.8197,-3.7704,-3.7404,-3.7404,-3.73,-3.724,-3.724,-3.7135,-3.7075,-3.7075,-3.6596,-3.6688,-3.7549,-3.7579,-3.7334,-3.6806,-3.676,-3.6565,-3.6209,-3.6653,-3.718,-3.756,-3.8372,-3.8984,-3.9325,-3.9766,-4.0073,-4.0475,-4.0594,-4.0831,-4.0877,-4.0933,-4.1028,-4.1028,-4.0928,-4.0862,-4.0442,-4.0812,-4.117,-4.0831,-4.0897,-4.0798,-4.0316,-4.018,-4.0113,-4.0231,-4.018,-4.0113,-4.0113,-4.0113,-4.0045,-3.9994,-3.9901,-3.984,-3.972,-3.9625,-3.9642,-3.9642,-3.9651,-3.9703,-3.9824,-3.9901,-3.9884,-4.8604,-4.8604,-4.8604,-4.8219,-4.7558,-4.688,-4.588,-4.4741,-4.4726,-4.4702,-4.461,-4.461,-4.461,-4.461,-4.461,-4.461,-4.461,-4.461,-4.461,-4.461,-4.461,-4.4302,-4.371,-4.3221,-4.2682,-4.2068,-4.1032,-4.0487,-4.0352,-3.9792,-3.9463,-3.9403,-3.9388,-3.9388,-3.9388,-3.9388,-3.9418,-3.9559,-3.9523,-3.9559,-3.9559,-3.9559,-3.9559,-3.9529,-3.8975,-3.8706,-3.8831,-3.8197,-3.7823,-3.7823,-3.7644,-3.7554,-3.7539,-3.7449,-3.7404,-3.7375,-3.6911,-3.6611,-3.6596,-3.6088,-3.5774,-3.5774,-3.5699,-3.5767,-3.5991,-3.5922,-3.5877,-3.5886,-3.5834,-3.5821,-3.5973,-3.6128,-3.641,-3.6801,-3.7141,-3.7433,-3.7766,-3.8123,-3.8505,-3.8825,-3.8977,-3.9232,-3.9402,-3.9522,-3.962,-3.9613,-3.957,-3.9547,-3.9475,-3.9727,-3.9945,-3.994,-4.0112,-4.0189,-4.013,-4.0113,-4.0113,-4.0113,-4.0113,-4.0113,-4.0113,-4.0113,-4.0045,-3.991,-3.9824,-3.9694,-3.9563,-3.9432,-3.9405,-3.9379,-3.9458,-3.959,-3.972,-3.9849,-3.9884,-4.8604,-4.8604,-4.8604,-4.8004,-4.6973,-4.5942,-4.5172,-4.4625,-4.461,-4.461,-4.461,-4.461,-4.461,-4.461,-4.461,-4.461,-4.461,-4.461,-4.461,-4.4579,-4.4187,-4.3901,-4.351,-4.2465,-4.1756,-4.1386,-4.0371,-3.9873,-3.9843,-3.9523,-3.9388,-3.9388,-3.9388,-3.9388,-3.9388,-3.9388,-3.9388,-3.9388,-3.9388,-3.923,-3.8871,-3.8856,-3.8691,-3.8312,-3.8003,-3.7853,-3.7853,-3.7569,-3.7404,-3.7404,-3.709,-3.6911,-3.6896,-3.6567,-3.6372,-3.6372,-3.6118,-3.5953,-3.5968,-3.5669,-3.5489,-3.5489,-3.5489,-3.5522,-3.5572,-3.5522,-3.5522,-3.5589,-3.5522,-3.5587,-3.5831,-3.5926,-3.6132,-3.6399,-3.6662,-3.6923,-3.718,-3.7462,-3.777,-3.8075,-3.8403,-3.8465,-3.8221,-3.8436,-3.8388,-3.8117,-3.8044,-3.8129,-3.8138,-3.837,-3.8832,-3.9545,-3.9935,-4.0087,-4.0096,-4.0113,-4.0113,-4.0113,-4.0113,-4.0113,-4.0113,-4.0113,-4.0011,-3.9849,-3.9729,-3.9642,-3.9448,-3.9325,-3.9299,-3.9299,-3.9405,-3.9537,-3.9677,-3.9858,-3.9961,-4.8604,-4.8604,-4.845,-4.7604,-4.628,-4.508,-4.461,-4.461,-4.461,-4.461,-4.461,-4.461,-4.461,-4.461,-4.461,-4.461,-4.461,-4.461,-4.4495,-4.4332,-4.3855,-4.3454,-4.3048,-4.1672,-4.0921,-4.0703,-3.983,-3.9388,-3.9388,-3.9388,-3.9388,-3.9388,-3.9388,-3.9388,-3.9388,-3.9388,-3.9388,-3.9373,-3.926,-3.8916,-3.8407,-3.8257,-3.7868,-3.7255,-3.721,-3.7135,-3.7,-3.6985,-3.6971,-3.6956,-3.6537,-3.6267,-3.6252,-3.5789,-3.5489,-3.5489,-3.5489,-3.5489,-3.5489,-3.5489,-3.5489,-3.5489,-3.5489,-3.5489,-3.5489,-3.5489,-3.5489,-3.5489,-3.5489,-3.5554,-3.5703,-3.5831,-3.599,-3.6148,-3.643,-3.6569,-3.666,-3.6914,-3.7101,-3.7326,-3.7608,-3.7587,-3.733,-3.7468,-3.7515,-3.7173,-3.7026,-3.7102,-3.7127,-3.7353,-3.802,-3.8833,-3.943,-3.9614,-3.9791,-3.9842,-3.9893,-4.0028,-4.0113,-4.0113,-4.0113,-4.0113,-4.0011,-3.9781,-3.9703,-3.9599,-3.9379,-3.9315,-3.9325,-3.9352,-3.9448,-3.9537,-3.9746,-3.9935,-4.0062,-4.8604,-4.8512,-4.7973,-4.6927,-4.5664,-4.4933,-4.461,-4.461,-4.461,-4.461,-4.461,-4.461,-4.461,-4.461,-4.461,-4.461,-4.461,-4.461,-4.4271,-4.3762,-4.3639,-4.2992,-4.1873,-4.1239,-4.0679,-4.0142,-3.9634,-3.9388,-3.9388,-3.9388,-3.9388,-3.9388,-3.9388,-3.9388,-3.9388,-3.9388,-3.9388,-3.9373,-3.8796,-3.8467,-3.8362,-3.7793,-3.721,-3.6582,-3.6567,-3.6297,-3.5789,-3.5684,-3.5684,-3.5684,-3.5654,-3.5609,-3.5594,-3.5519,-3.5489,-3.5489,-3.5489,-3.5489,-3.5489,-3.5489,-3.5489,-3.5489,-3.5489,-3.5489,-3.5489,-3.5489,-3.5489,-3.5489,-3.5489,-3.5554,-3.5671,-3.572,-3.5816,-3.599,-3.6102,-3.6106,-3.5798,-3.5883,-3.59,-3.5458,-3.5963,-3.6043,-3.619,-3.6472,-3.6821,-3.6828,-3.6812,-3.6837,-3.6879,-3.7078,-3.7283,-3.7651,-3.7922,-3.8389,-3.887,-3.9089,-3.9292,-3.9842,-4.0045,-3.9943,-3.9859,-3.9918,-4.002,-3.9563,-3.9703,-3.9599,-3.9405,-3.9315,-3.9352,-3.9405,-3.9501,-3.9563,-3.9824,-3.9986,-4.007,-4.8604,-4.8543,-4.7881,-4.6819,-4.5572,-4.4918,-4.461,-4.461,-4.461,-4.461,-4.461,-4.461,-4.461,-4.461,-4.461,-4.461,-4.4579,-4.4209,-4.3886,-4.3531,-4.2823,-4.2094,-4.1566,-4.0766,-4.0238,-3.9991,-3.9589,-3.9388,-3.9388,-3.9388,-3.9388,-3.9388,-3.9388,-3.9388,-3.9388,-3.9388,-3.9388,-3.9358,-3.8736,-3.8197,-3.7793,-3.7195,-3.6567,-3.5983,-3.5908,-3.5804,-3.5549,-3.5489,-3.5489,-3.5489,-3.5489,-3.5489,-3.5489,-3.5489,-3.5489,-3.5489,-3.5489,-3.5489,-3.5489,-3.5489,-3.5489,-3.5489,-3.5489,-3.5489,-3.5489,-3.5489,-3.5489,-3.5489,-3.5489,-3.5522,-3.5572,-3.5638,-3.5735,-3.577,-3.5656,-3.5415,-3.5248,-3.5106,-3.4973,-3.4825,-3.5178,-3.5292,-3.5101,-3.5166,-3.5405,-3.5622,-3.5761,-3.5876,-3.5851,-3.6011,-3.6171,-3.6243,-3.639,-3.707,-3.8041,-3.8345,-3.8514,-3.8717,-3.8802,-3.8802,-3.8903,-3.9225,-3.9353,-3.9109,-3.9402,-3.9549,-3.9352,-3.9315,-3.9325,-3.9422,-3.9563,-3.972,-3.9961,-4.0062,-4.0096,-4.8343,-4.8173,-4.7219,-4.6203,-4.528,-4.4625,-4.444,-4.461,-4.461,-4.461,-4.461,-4.461,-4.461,-4.461,-4.461,-4.461,-4.4517,-4.3917,-4.3501,-4.3239,-4.2125,-4.1494,-4.1172,-4.0395,-3.996,-3.9889,-3.9568,-3.9388,-3.9388,-3.9388,-3.9388,-3.9388,-3.9388,-3.9388,-3.9388,-3.9388,-3.9388,-3.9313,-3.8736,-3.8063,-3.7434,-3.6806,-3.6178,-3.5579,-3.5489,-3.5489,-3.5489,-3.5489,-3.5489,-3.5489,-3.5489,-3.5489,-3.5489,-3.5489,-3.5415,-3.525,-3.522,-3.522,-3.522,-3.54,-3.5489,-3.5489,-3.5489,-3.5489,-3.5489,-3.5489,-3.5489,-3.5489,-3.5489,-3.5489,-3.5489,-3.5557,-3.5578,-3.5399,-3.5073,-3.4819,-3.4395,-3.4179,-3.4019,-3.3952,-3.4123,-3.4467,-3.4255,-3.4346,-3.4513,-3.4766,-3.4877,-3.4899,-3.4947,-3.5178,-3.5358,-3.5331,-3.5498,-3.6174,-3.7313,-3.7601,-3.7635,-3.7905,-3.8024,-3.8041,-3.7898,-3.843,-3.883,-3.8782,-3.9193,-3.9399,-3.9345,-3.9315,-3.9342,-3.9405,-3.9537,-3.9746,-3.991,-3.9986,-3.9969,-4.765,-4.7342,-4.5565,-4.4764,-4.4572,-4.3963,-4.404,-4.461,-4.461,-4.461,-4.461,-4.461,-4.461,-4.461,-4.461,-4.461,-4.4502,-4.387,-4.3187,-4.2617,-4.1894,-4.1126,-4.0373,-4.0117,-3.9889,-3.9732,-3.9517,-3.9388,-3.9388,-3.9388,-3.9388,-3.9388,-3.9388,-3.9388,-3.9388,-3.9388,-3.9388,-3.9313,-3.8796,-3.8093,-3.7434,-3.6806,-3.6222,-3.5579,-3.5489,-3.5489,-3.5489,-3.5489,-3.5489,-3.5489,-3.5489,-3.5489,-3.5489,-3.5474,-3.519,-3.4651,-3.4563,-3.4532,-3.4638,-3.5055,-3.5385,-3.5429,-3.5385,-3.5474,-3.5415,-3.5474,-3.5489,-3.5489,-3.5444,-3.5429,-3.5429,-3.5402,-3.5177,-3.4655,-3.463,-3.406,-3.3005,-3.3091,-3.2812,-3.2571,-3.2786,-3.3262,-3.3816,-3.4142,-3.4374,-3.4618,-3.4811,-3.4899,-3.4947,-3.5152,-3.5285,-3.5354,-3.5508,-3.591,-3.6677,-3.6846,-3.7144,-3.7347,-3.7391,-3.7713,-3.7848,-3.7976,-3.8192,-3.8438,-3.8681,-3.8922,-3.9179,-3.9342,-3.9369,-3.9432,-3.9563,-3.9703,-3.9807,-3.9755,-3.9671,-4.6188,-4.4972,-4.4286,-4.3978,-4.3947,-4.3701,-4.3978,-4.4579,-4.461,-4.461,-4.461,-4.461,-4.461,-4.461,-4.461,-4.4379,-4.3932,-4.3248,-4.2586,-4.194,-4.1247,-4.0681,-4.0342,-4.0066,-3.9889,-3.9696,-3.9481,-3.9388,-3.9388,-3.9388,-3.9388,-3.9388,-3.9388,-3.9388,-3.9388,-3.9388,-3.9388,-3.9358,-3.917,-3.8527,-3.7494,-3.718,-3.6596,-3.5579,-3.5489,-3.5489,-3.5489,-3.5489,-3.5489,-3.5489,-3.5489,-3.5489,-3.5459,-3.5085,-3.4788,-3.4503,-3.4083,-3.3844,-3.3873,-3.4068,-3.4218,-3.4247,-3.4622,-3.4893,-3.4921,-3.5235,-3.5489,-3.5429,-3.5055,-3.4908,-3.4846,-3.4846,-3.4577,-3.3979,-3.3531,-3.3171,-3.2691,-3.2402,-3.2169,-3.2155,-3.2468,-3.3,-3.3435,-3.3822,-3.4176,-3.4497,-3.4691,-3.4851,-3.5018,-3.5198,-3.5314,-3.5406,-3.5526,-3.5684,-3.5926,-3.6045,-3.6124,-3.6259,-3.6377,-3.6394,-3.6495,-3.7026,-3.7303,-3.7809,-3.8104,-3.8721,-3.9063,-3.9315,-3.9369,-3.9448,-3.9563,-3.9599,-3.9677,-3.9525,-3.935,-4.4895,-4.3402,-4.3264,-4.3408,-4.3608,-4.3608,-4.3994,-4.4579,-4.461,-4.461,-4.461,-4.461,-4.461,-4.461,-4.461,-4.4117,-4.3316,-4.2786,-4.2248,-4.1571,-4.0828,-4.0401,-4.0207,-4.0081,-3.9854,-3.9625,-3.9445,-3.9388,-3.9388,-3.9388,-3.9388,-3.9388,-3.9388,-3.9388,-3.9388,-3.9388,-3.9388,-3.9394,-3.9215,-3.8512,-3.7524,-3.721,-3.6611,-3.5684,-3.5489,-3.5489,-3.5489,-3.5489,-3.5489,-3.5489,-3.5489,-3.5489,-3.5429,-3.4651,-3.4189,-3.4113,-3.3544,-3.317,-3.3215,-3.338,-3.3514,-3.3514,-3.3888,-3.4249,-3.4488,-3.4906,-3.5115,-3.5055,-3.4818,-3.4414,-3.3933,-3.3829,-3.368,-3.3215,-3.2781,-3.2422,-3.2198,-3.1911,-3.1843,-3.2081,-3.2484,-3.292,-3.3335,-3.3736,-3.4126,-3.4521,-3.4715,-3.4923,-3.5111,-3.5268,-3.54,-3.5475,-3.5549,-3.56,-3.5718,-3.5769,-3.5769,-3.5853,-3.5904,-3.5701,-3.5701,-3.618,-3.6612,-3.7122,-3.7761,-3.8461,-3.8966,-3.9209,-3.9369,-3.9448,-3.9432,-3.9441,-3.9394,-3.9296,-3.8937,-4.3771,-4.2617,-4.2586,-4.2863,-4.3377,-4.3485,-4.3947,-4.4456,-4.461,-4.4579,-4.4486,-4.4502,-4.431,-4.4387,-4.411,-4.3664,-4.2556,-4.2279,-4.2001,-4.1447,-4.0832,-4.0331,-4.0066,-4.0046,-3.9783,-3.946,-3.9388,-3.9388,-3.9388,-3.9388,-3.9388,-3.9388,-3.9388,-3.9388,-3.9388,-3.9388,-3.9388,-3.9269,-3.8826,-3.8123,-3.7419,-3.6866,-3.6237,-3.5579,-3.5489,-3.5489,-3.5489,-3.5489,-3.5489,-3.5489,-3.5489,-3.5489,-3.5325,-3.4292,-3.3544,-3.3469,-3.2901,-3.2542,-3.2542,-3.3021,-3.326,-3.329,-3.344,-3.3739,-3.4247,-3.4518,-3.4608,-3.4623,-3.4459,-3.3978,-3.2916,-3.2632,-3.2587,-3.2512,-3.2378,-3.2138,-3.172,-3.1525,-3.1668,-3.2122,-3.2453,-3.2861,-3.3382,-3.3797,-3.4159,-3.457,-3.4875,-3.5081,-3.5245,-3.536,-3.5469,-3.5498,-3.5549,-3.5616,-3.5616,-3.5616,-3.5616,-3.5633,-3.5667,-3.5616,-3.5616,-3.5921,-3.6201,-3.6662,-3.7528,-3.8227,-3.8781,-3.905,-3.9282,-3.9369,-3.9325,-3.9226,-3.903,-3.8807,-3.8339,-4.2001,-4.1181,-4.1135,-4.1571,-4.2248,-4.2709,-4.3279,-4.3947,-4.4394,-4.4348,-4.3901,-4.3417,-4.2971,-4.2479,-4.2017,-4.134,-4.0474,-4.0459,-4.0566,-4.077,-4.0566,-4.037,-4.0191,-4.0066,-3.9798,-3.946,-3.9388,-3.9388,-3.9388,-3.9388,-3.9388,-3.9388,-3.9388,-3.9388,-3.9388,-3.9388,-3.9388,-3.9298,-3.8736,-3.8063,-3.7434,-3.6806,-3.6178,-3.5594,-3.5489,-3.5489,-3.5489,-3.5489,-3.5489,-3.5489,-3.5489,-3.5489,-3.5265,-3.4233,-3.3544,-3.338,-3.2422,-3.1809,-3.1839,-3.2004,-3.2228,-3.2228,-3.2542,-3.311,-3.3754,-3.4233,-3.4474,-3.4429,-3.4083,-3.341,-3.2662,-3.2049,-3.1869,-3.1824,-3.1809,-3.178,-3.157,-3.1641,-3.1798,-3.2038,-3.2398,-3.2807,-3.3293,-3.3694,-3.4126,-3.4521,-3.4811,-3.5041,-3.5268,-3.5406,-3.552,-3.5549,-3.5616,-3.5616,-3.5616,-3.5616,-3.5616,-3.5616,-3.5616,-3.5616,-3.5616,-3.5622,-3.5879,-3.637,-3.7236,-3.7926,-3.8479,-3.8907,-3.9199,-3.9265,-3.9232,-3.9,-3.8642,-3.8195,-3.7656,-4.1186,-4.0536,-4.0816,-4.117,-4.1663,-4.2325,-4.2817,-4.3233,-4.3648,-4.3448,-4.2869,-4.2417,-4.1848,-4.1217,-4.0674,-4.012,-3.9536,-3.949,-3.9567,-3.9736,-3.9751,-3.9791,-3.9879,-3.9889,-3.9768,-3.9553,-3.9445,-3.9388,-3.9388,-3.9388,-3.9388,-3.9388,-3.9388,-3.9388,-3.9388,-3.9388,-3.9388,-3.9269,-3.8512,-3.7823,-3.733,-3.6567,-3.5923,-3.5549,-3.5489,-3.5489,-3.5489,-3.5489,-3.5489,-3.5489,-3.5489,-3.5489,-3.5415,-3.4487,-3.3873,-3.3664,-3.2916,-3.2273,-3.2213,-3.2153,-3.2004,-3.2213,-3.2392,-3.2946,-3.3694,-3.4339,-3.4429,-3.4083,-3.3754,-3.3125,-3.2258,-3.178,-3.1511,-3.1496,-3.1525,-3.1496,-3.1524,-3.1655,-3.1826,-3.2038,-3.2327,-3.278,-3.3224,-3.3658,-3.4075,-3.4472,-3.4804,-3.5081,-3.5314,-3.5469,-3.5566,-3.5594,-3.5616,-3.5616,-3.5616,-3.5616,-3.5616,-3.5616,-3.5616,-3.5616,-3.5616,-3.5583,-3.5727,-3.6248,-3.7003,-3.7659,-3.8245,-3.8917,-3.9299,-3.9249,-3.9083,-3.8692,-3.8261,-3.7483,-3.6936,-4.114,-4.0612,-4.1247,-4.1447,-4.1555,-4.2202,-4.2509,-4.254,-4.2586,-4.2248,-4.1678,-4.1324,-4.0909,-4.0382,-3.9905,-3.9505,-3.9351,-3.9059,-3.8785,-3.8492,-3.8429,-3.867,-3.9264,-3.9536,-3.9667,-3.9646,-3.9517,-3.9409,-3.9388,-3.9388,-3.9388,-3.9388,-3.9388,-3.9388,-3.9388,-3.9388,-3.9388,-3.9224,-3.8182,-3.7569,-3.7375,-3.6282,-3.5594,-3.5519,-3.5489,-3.5489,-3.5489,-3.5489,-3.5489,-3.5489,-3.5489,-3.5489,-3.5385,-3.4878,-3.4397,-3.4384,-3.3829,-3.344,-3.3305,-3.2871,-3.2766,-3.32,-3.2931,-3.308,-3.4204,-3.4429,-3.4324,-3.3844,-3.3589,-3.3021,-3.1989,-3.1555,-3.1511,-3.1496,-3.1496,-3.1496,-3.1511,-3.1698,-3.1841,-3.2025,-3.2342,-3.2765,-3.324,-3.3642,-3.4084,-3.4546,-3.4899,-3.5158,-3.536,-3.5498,-3.5594,-3.5616,-3.5616,-3.5616,-3.5616,-3.5616,-3.5616,-3.5616,-3.5616,-3.5594,-3.5549,-3.5514,-3.5457,-3.6009,-3.6622,-3.731,-3.7947,-3.8526,-3.8967,-3.8984,-3.8692,-3.8344,-3.7682,-3.687,-3.6348,-4.0674,-4.052,-4.0705,-4.0801,-4.0874,-4.1555,-4.1863,-4.1863,-4.1848,-4.1417,-4.0739,-3.9739,-3.9016,-3.8292,-3.7815,-3.743,-3.7446,-3.7369,-3.723,-3.7061,-3.703,-3.7918,-3.8981,-3.9287,-3.9445,-3.9611,-3.9631,-3.9553,-3.9424,-3.9388,-3.9388,-3.9388,-3.9388,-3.9388,-3.9388,-3.9388,-3.9388,-3.932,-3.8601,-3.7853,-3.7345,-3.6641,-3.5998,-3.5534,-3.5489,-3.5489,-3.5489,-3.5489,-3.5489,-3.5489,-3.5489,-3.5489,-3.5429,-3.4876,-3.4563,-3.4442,-3.3948,-3.3529,-3.3499,-3.335,-3.335,-3.3455,-3.3395,-3.3589,-3.4384,-3.4503,-3.4414,-3.4174,-3.3814,-3.3155,-3.2333,-3.178,-3.154,-3.1496,-3.1496,-3.1496,-3.1539,-3.167,-3.1841,-3.201,-3.237,-3.2823,-3.3224,-3.3617,-3.4034,-3.4497,-3.4851,-3.5152,-3.5337,-3.552,-3.5616,-3.5616,-3.5616,-3.5616,-3.5616,-3.5616,-3.5616,-3.5616,-3.5594,-3.5549,-3.5458,-3.5337,-3.5278,-3.5421,-3.609,-3.6754,-3.7334,-3.7914,-3.8195,-3.8493,-3.8228,-3.7798,-3.6936,-3.6141,-3.5883,-4.0801,-4.0505,-4.0489,-4.0489,-4.0551,-4.097,-4.1155,-4.1093,-4.0816,-4.0324,-3.9521,-3.8585,-3.7707,-3.7046,-3.6676,-3.6507,-3.6492,-3.6492,-3.6522,-3.6507,-3.6538,-3.7274,-3.8312,-3.8858,-3.9264,-3.94,-3.9596,-3.9589,-3.9424,-3.9388,-3.9388,-3.9388,-3.9388,-3.9388,-3.9388,-3.9388,-3.9388,-3.9269,-3.8751,-3.8078,-3.7434,-3.6806,-3.6178,-3.5639,-3.5489,-3.5489,-3.5489,-3.5489,-3.5489,-3.5489,-3.5489,-3.5489,-3.5474,-3.516,-3.4906,-3.4891,-3.4532,-3.4352,-3.4277,-3.4098,-3.4068,-3.4218,-3.4128,-3.4309,-3.4756,-3.4938,-3.4861,-3.4442,-3.3873,-3.323,-3.2572,-3.1899,-3.1555,-3.1496,-3.1496,-3.1496,-3.1496,-3.1741,-3.1898,-3.2109,-3.2428,-3.285,-3.324,-3.3591,-3.4,-3.4423,-3.4787,-3.5058,-3.5285,-3.5458,-3.5616,-3.5616,-3.5616,-3.5616,-3.5616,-3.5616,-3.5616,-3.5616,-3.5481,-3.5475,-3.5383,-3.5222,-3.5128,-3.52,-3.5676,-3.6158,-3.6738,-3.7235,-3.7549,-3.7682,-3.7533,-3.7119,-3.6307,-3.5711,-3.5435,-4.1144,-4.0524,-4.0489,-4.0489,-4.0489,-4.0505,-4.0505,-4.0274,-3.9721,-3.9093,-3.8415,-3.7707,-3.7107,-3.6492,-3.6538,-3.6492,-3.6492,-3.6492,-3.6492,-3.6492,-3.6522,-3.6891,-3.7411,-3.8323,-3.8876,-3.9066,-3.942,-3.9484,-3.9415,-3.9388,-3.9388,-3.9388,-3.9388,-3.9388,-3.9388,-3.9388,-3.9388,-3.9298,-3.8916,-3.8302,-3.7644,-3.7015,-3.6402,-3.5833,-3.5534,-3.5504,-3.5489,-3.5489,-3.5489,-3.5489,-3.5489,-3.5489,-3.5489,-3.5489,-3.5474,-3.5429,-3.5325,-3.5325,-3.537,-3.4831,-3.4786,-3.513,-3.4831,-3.4831,-3.528,-3.537,-3.519,-3.4756,-3.3933,-3.317,-3.2407,-3.1809,-3.1555,-3.1496,-3.1496,-3.1496,-3.1553,-3.1798,-3.2025,-3.2081,-3.2542,-3.2978,-3.3282,-3.3565,-3.3908,-3.4407,-3.4763,-3.5081,-3.5291,-3.5481,-3.5577,-3.5616,-3.5616,-3.5616,-3.5616,-3.5616,-3.5616,-3.5571,-3.5367,-3.5291,-3.5268,-3.5152,-3.5041,-3.5129,-3.5404,-3.5727,-3.6158,-3.6572,-3.6887,-3.692,-3.6804,-3.6357,-3.5827,-3.5413,-3.5079,-4.087,-4.073,-4.0558,-4.0489,-4.0489,-4.0489,-4.0197,-3.9659,-3.8998,-3.84,-3.7692,-3.7015,-3.6661,-3.6492,-3.6492,-3.6492,-3.6492,-3.6492,-3.6492,-3.6492,-3.6492,-3.646,-3.6688,-3.7357,-3.808,-3.8656,-3.8877,-3.9063,-3.9266,-3.9224,-3.9358,-3.9313,-3.9194,-3.9358,-3.9298,-3.9269,-3.9388,-3.9358,-3.923,-3.8811,-3.8153,-3.7524,-3.6896,-3.6252,-3.5759,-3.5504,-3.5489,-3.5489,-3.5489,-3.5489,-3.5489,-3.5489,-3.5489,-3.5489,-3.5489,-3.5489,-3.5489,-3.5489,-3.5459,-3.534,-3.531,-3.5415,-3.534,-3.5355,-3.5429,-3.5489,-3.5429,-3.507,-3.4218,-3.311,-3.2049,-3.1645,-3.1511,-3.1496,-3.1496,-3.1496,-3.1553,-3.1798,-3.201,-3.2206,-3.2582,-3.3032,-3.3414,-3.3668,-3.405,-3.4431,-3.4763,-3.5105,-3.5297,-3.5464,-3.5554,-3.5616,-3.5616,-3.5616,-3.56,-3.5594,-3.5526,-3.5481,-3.5314,-3.5152,-3.5128,-3.5081,-3.497,-3.4939,-3.5006,-3.5346,-3.5727,-3.5909,-3.6224,-3.6158,-3.6075,-3.576,-3.5413,-3.5032,-3.497,-4.123,-4.0916,-4.0746,-4.0627,-4.0643,-4.0524,-4.0105,-3.9477,-3.88,-3.8123,-3.7461,-3.6784,-3.6507,-3.6492,-3.6492,-3.6492,-3.6492,-3.6492,-3.6492,-3.6492,-3.6414,-3.6305,-3.621,-3.6418,-3.7018,-3.7873,-3.8163,-3.8357,-3.8427,-3.8512,-3.8407,-3.8467,-3.8461,-3.8357,-3.8571,-3.8781,-3.8901,-3.9005,-3.9275,-3.9095,-3.8422,-3.8063,-3.736,-3.6567,-3.5878,-3.5489,-3.5489,-3.5489,-3.5489,-3.5489,-3.5489,-3.5489,-3.5489,-3.5489,-3.5489,-3.5489,-3.5489,-3.5489,-3.5489,-3.5489,-3.5474,-3.5489,-3.5489,-3.5489,-3.5489,-3.5489,-3.5489,-3.5295,-3.4532,-3.344,-3.2153,-3.1615,-3.1555,-3.1496,-3.1511,-3.1496,-3.1568,-3.1798,-3.2053,-3.2247,-3.2664,-3.3096,-3.345,-3.3771,-3.4101,-3.4472,-3.4835,-3.5152,-3.5291,-3.5458,-3.5554,-3.5616,-3.5616,-3.56,-3.56,-3.5549,-3.5452,-3.536,-3.5205,-3.5065,-3.5018,-3.497,-3.4923,-3.4916,-3.4932,-3.4982,-3.5313,-3.5462,-3.5528,-3.5462,-3.5379,-3.5214,-3.5098,-3.4965,-3.5018,-4.1719,-4.1169,-4.0969,-4.0833,-4.0783,-4.0504,-3.9939,-3.9293,-3.8662,-3.7892,-3.7338,-3.6707,-3.6492,-3.6492,-3.6492,-3.6492,-3.6492,-3.6492,-3.6492,-3.6414,-3.6305,-3.6179,-3.6068,-3.5984,-3.6082,-3.6589,-3.7188,-3.7432,-3.7528,-3.7419,-3.7674,-3.7479,-3.7464,-3.7594,-3.7644,-3.7928,-3.8347,-3.8527,-3.8916,-3.9095,-3.8646,-3.8422,-3.7689,-3.6611,-3.5863,-3.5519,-3.5489,-3.5489,-3.5489,-3.5489,-3.5489,-3.5489,-3.5489,-3.5489,-3.5489,-3.5489,-3.5489,-3.5489,-3.5489,-3.5489,-3.5489,-3.5489,-3.5489,-3.5489,-3.5489,-3.5489,-3.5489,-3.528,-3.4741,-3.3933,-3.2811,-3.2318,-3.1914,-3.1735,-3.1675,-3.1629,-3.1597,-3.1826,-3.2038,-3.2274,-3.273,-3.3176,-3.3555,-3.3873,-3.4176,-3.4497,-3.4875,-3.5158,-3.5314,-3.5458,-3.5571,-3.5616,-3.5616,-3.5571,-3.5571,-3.5412,-3.5314,-3.5245,-3.5088,-3.5018,-3.4947,-3.4923,-3.4899,-3.4899,-3.4932,-3.4982,-3.4982,-3.5098,-3.5098,-3.4916,-3.4932,-3.4998,-3.4982,-3.4916,-3.5081,-4.1748,-4.1489,-4.129,-4.1055,-4.0724,-4.0161,-3.9426,-3.8631,-3.8,-3.7292,-3.6722,-3.6538,-3.6492,-3.6492,-3.6492,-3.6492,-3.6492,-3.6492,-3.6414,-3.6274,-3.6211,-3.607,-3.5847,-3.5735,-3.5726,-3.5839,-3.6379,-3.687,-3.7195,-3.7404,-3.718,-3.7315,-3.73,-3.7285,-3.727,-3.7554,-3.7808,-3.8138,-3.8512,-3.8751,-3.8901,-3.8497,-3.7749,-3.6552,-3.5848,-3.5534,-3.5489,-3.5489,-3.5489,-3.5489,-3.5489,-3.5489,-3.5489,-3.5489,-3.5489,-3.5489,-3.5489,-3.5489,-3.5489,-3.5489,-3.5489,-3.5489,-3.5489,-3.5489,-3.5489,-3.5489,-3.5489,-3.5325,-3.4891,-3.4143,-3.344,-3.308,-3.2841,-3.2542,-3.2317,-3.2197,-3.1983,-3.2017,-3.2229,-3.2524,-3.2905,-3.3256,-3.3607,-3.3949,-3.4275,-3.457,-3.4923,-3.5175,-3.5291,-3.5452,-3.5594,-3.5616,-3.5616,-3.5588,-3.552,-3.5314,-3.5152,-3.5111,-3.5018,-3.497,-3.4923,-3.4923,-3.4899,-3.4899,-3.4899,-3.4932,-3.4916,-3.4899,-3.4899,-3.4899,-3.4899,-3.4899,-3.4899,-3.4923,-3.5058,-4.1757,-4.131,-4.105,-4.0568,-4.001,-3.9486,-3.8779,-3.8,-3.7631,-3.7123,-3.6661,-3.6492,-3.6492,-3.6492,-3.6492,-3.6492,-3.6492,-3.6492,-3.6383,-3.6242,-3.6116,-3.5943,-3.5703,-3.5653,-3.5587,-3.5579,-3.5863,-3.6118,-3.6402,-3.6387,-3.6492,-3.6402,-3.6417,-3.6417,-3.6522,-3.6761,-3.7075,-3.7494,-3.8018,-3.8512,-3.8781,-3.8227,-3.7375,-3.6611,-3.5893,-3.5534,-3.5489,-3.5489,-3.5489,-3.5489,-3.5489,-3.5489,-3.5489,-3.5489,-3.5489,-3.5489,-3.5489,-3.5489,-3.5489,-3.5489,-3.5489,-3.5489,-3.5489,-3.5489,-3.5489,-3.5489,-3.5489,-3.5355,-3.4906,-3.4399,-3.4054,-3.3739,-3.335,-3.3125,-3.3021,-3.2961,-3.2854,-3.2725,-3.2815,-3.2959,-3.3154,-3.3446,-3.3684,-3.4,-3.4349,-3.4667,-3.4994,-3.5175,-3.5308,-3.5435,-3.56,-3.5571,-3.5549,-3.5452,-3.5383,-3.5222,-3.5058,-3.5018,-3.497,-3.4923,-3.4899,-3.4899,-3.4899,-3.4899,-3.4899,-3.4899,-3.4899,-3.4899,-3.4899,-3.4899,-3.4899,-3.4899,-3.4899,-3.4947,-3.5081,-4.174,-4.1164,-4.0737,-4.0056,-3.9329,-3.8838,-3.8256,-3.7602,-3.7338,-3.6984,-3.6538,-3.6492,-3.6492,-3.6492,-3.6492,-3.6492,-3.6492,-3.6492,-3.6383,-3.6211,-3.6068,-3.5894,-3.5703,-3.5572,-3.5489,-3.5504,-3.5549,-3.5489,-3.5654,-3.5669,-3.5549,-3.5654,-3.5564,-3.5504,-3.5699,-3.6103,-3.6267,-3.6791,-3.7409,-3.7988,-3.8003,-3.7554,-3.7015,-3.6492,-3.5848,-3.5489,-3.5489,-3.5489,-3.5489,-3.5489,-3.5489,-3.5489,-3.5489,-3.5489,-3.5489,-3.5489,-3.5489,-3.5489,-3.5489,-3.5489,-3.5489,-3.5489,-3.5489,-3.5489,-3.5489,-3.5489,-3.5489,-3.54,-3.51,-3.4741,-3.4637,-3.4233,-3.3903,-3.3694,-3.371,-3.3696,-3.3578,-3.3499,-3.3517,-3.3612,-3.356,-3.3583,-3.377,-3.4025,-3.4374,-3.4618,-3.4947,-3.5198,-3.5331,-3.5481,-3.5577,-3.5526,-3.5458,-3.5314,-3.5222,-3.5152,-3.4994,-3.4947,-3.4947,-3.4923,-3.4899,-3.4899,-3.4899,-3.4899,-3.4899,-3.4899,-3.4899,-3.4899,-3.4899,-3.4899,-3.4899,-3.4899,-3.4899,-3.4923,-3.4994,-4.1843,-4.1455,-4.0596,-3.9971,-3.9314,-3.8451,-3.795,-3.759,-3.6955,-3.6584,-3.6492,-3.6492,-3.6492,-3.6492,-3.6492,-3.6492,-3.6492,-3.6492,-3.6383,-3.6211,-3.6053,-3.5894,-3.5703,-3.5554,-3.5489,-3.5489,-3.5489,-3.5489,-3.5489,-3.5489,-3.5489,-3.5489,-3.5489,-3.5489,-3.5519,-3.5684,-3.5923,-3.6387,-3.6656,-3.7015,-3.7345,-3.6956,-3.6626,-3.6297,-3.5878,-3.5489,-3.5489,-3.5489,-3.5504,-3.5472,-3.5472,-3.5504,-3.5489,-3.5489,-3.5489,-3.5489,-3.5489,-3.5489,-3.5489,-3.5489,-3.5489,-3.5489,-3.5489,-3.5489,-3.5489,-3.5489,-3.5489,-3.5489,-3.5355,-3.5295,-3.525,-3.5235,-3.4921,-3.4623,-3.4399,-3.4161,-3.3985,-3.4076,-3.4132,-3.4208,-3.416,-3.3887,-3.382,-3.4088,-3.4374,-3.4618,-3.4875,-3.5128,-3.5314,-3.5458,-3.5424,-3.5367,-3.5274,-3.5152,-3.5041,-3.497,-3.497,-3.4899,-3.4899,-3.4899,-3.4899,-3.4899,-3.4899,-3.4899,-3.4899,-3.4899,-3.4899,-3.4899,-3.4899,-3.4899,-3.4899,-3.4899,-3.4899,-3.4947,-3.497,-4.1601,-4.117,-4.0084,-3.9182,-3.844,-3.773,-3.7297,-3.708,-3.6692,-3.6492,-3.6492,-3.6492,-3.6492,-3.6492,-3.6492,-3.6492,-3.6492,-3.6492,-3.6383,-3.6211,-3.6068,-3.5894,-3.5688,-3.5572,-3.5489,-3.5489,-3.5489,-3.5489,-3.5489,-3.5489,-3.5489,-3.5489,-3.5489,-3.5489,-3.5489,-3.5489,-3.5654,-3.5968,-3.6297,-3.6626,-3.6746,-3.6611,-3.6297,-3.5953,-3.5654,-3.5534,-3.5504,-3.5489,-3.5424,-3.5359,-3.5326,-3.5261,-3.518,-3.518,-3.518,-3.5326,-3.5326,-3.5392,-3.5457,-3.5489,-3.5489,-3.5489,-3.5489,-3.5489,-3.5489,-3.5489,-3.5489,-3.5489,-3.5489,-3.5489,-3.5489,-3.5489,-3.5355,-3.5145,-3.4983,-3.4926,-3.4692,-3.4545,-3.4607,-3.4692,-3.4721,-3.4422,-3.41,-3.4118,-3.4297,-3.4423,-3.4707,-3.497,-3.5175,-3.5314,-3.5251,-3.5135,-3.5041,-3.497,-3.4875,-3.4787,-3.4875,-3.4875,-3.4899,-3.4899,-3.4899,-3.4899,-3.4899,-3.4899,-3.4899,-3.4899,-3.4899,-3.4899,-3.4899,-3.4899,-3.4899,-3.4899,-3.4899,-3.4923,-3.497,-4.1233,-4.0742,-3.9502,-3.8515,-3.7716,-3.7211,-3.6954,-3.677,-3.6585,-3.6492,-3.6492,-3.6492,-3.6492,-3.6492,-3.6492,-3.6492,-3.6492,-3.6492,-3.6383,-3.6226,-3.6053,-3.5894,-3.5703,-3.5572,-3.5489,-3.5489,-3.5489,-3.5489,-3.5489,-3.5489,-3.5489,-3.5489,-3.5489,-3.5489,-3.5489,-3.5489,-3.5564,-3.5609,-3.5983,-3.6178,-3.6207,-3.6222,-3.5938,-3.5669,-3.5504,-3.5472,-3.5439,-3.5407,-3.5326,-3.5082,-3.5049,-3.4983,-3.4802,-3.4835,-3.4949,-3.5115,-3.5166,-3.5311,-3.5424,-3.5489,-3.5489,-3.5489,-3.5489,-3.5489,-3.5489,-3.5489,-3.5489,-3.5489,-3.5489,-3.5489,-3.5489,-3.5489,-3.5444,-3.5429,-3.5415,-3.5542,-3.5563,-3.5223,-3.5107,-3.5233,-3.5198,-3.4938,-3.4619,-3.4319,-3.4253,-3.4257,-3.4513,-3.4828,-3.4994,-3.5111,-3.5041,-3.4899,-3.4811,-3.478,-3.4732,-3.4691,-3.4739,-3.4828,-3.4875,-3.4899,-3.4899,-3.4899,-3.4899,-3.4899,-3.4899,-3.4899,-3.4899,-3.4899,-3.4899,-3.4899,-3.4899,-3.4899,-3.4899,-3.4899,-3.497,-4.0694,-4.0326,-3.8991,-3.8245,-3.7817,-3.7241,-3.6969,-3.6892,-3.6616,-3.6492,-3.6492,-3.6492,-3.6492,-3.6492,-3.6492,-3.6492,-3.6492,-3.6492,-3.6383,-3.6211,-3.6053,-3.5894,-3.5703,-3.5557,-3.5489,-3.5489,-3.5489,-3.5489,-3.5489,-3.5489,-3.5489,-3.5489,-3.5489,-3.5489,-3.5489,-3.5489,-3.5489,-3.5504,-3.5684,-3.5669,-3.5669,-3.5654,-3.5594,-3.5549,-3.5472,-3.5407,-3.5246,-3.5213,-3.5063,-3.4798,-3.4716,-3.4616,-3.4481,-3.4582,-3.4716,-3.4868,-3.5067,-3.5213,-3.5392,-3.5472,-3.5489,-3.5489,-3.5489,-3.5489,-3.5489,-3.5489,-3.5489,-3.5489,-3.5489,-3.5489,-3.5489,-3.5489,-3.5489,-3.5489,-3.5489,-3.5522,-3.5557,-3.5608,-3.5527,-3.5747,-3.5661,-3.5367,-3.5198,-3.4884,-3.4431,-3.4423,-3.4308,-3.4594,-3.4732,-3.4851,-3.478,-3.4683,-3.4594,-3.4546,-3.4562,-3.4586,-3.4643,-3.4739,-3.4828,-3.4859,-3.4883,-3.4883,-3.4899,-3.4899,-3.4899,-3.4899,-3.4899,-3.4899,-3.4899,-3.4899,-3.4899,-3.4899,-3.4899,-3.4899,-3.5034,-4.0247,-3.9462,-3.8585,-3.8062,-3.7714,-3.7211,-3.6938,-3.68,-3.6585,-3.6492,-3.6492,-3.6492,-3.6492,-3.6492,-3.6492,-3.6492,-3.6492,-3.6492,-3.6367,-3.6211,-3.6068,-3.5894,-3.5703,-3.5557,-3.5489,-3.5489,-3.5489,-3.5489,-3.5489,-3.5489,-3.5489,-3.5489,-3.5489,-3.5489,-3.5489,-3.5489,-3.5489,-3.5489,-3.5489,-3.5489,-3.5489,-3.5489,-3.5489,-3.5489,-3.5489,-3.5392,-3.5213,-3.5067,-3.4802,-3.4549,-3.4414,-3.4244,-3.4108,-3.4259,-3.4414,-3.4601,-3.4883,-3.5115,-3.5326,-3.5439,-3.5489,-3.5489,-3.5489,-3.5489,-3.5489,-3.5489,-3.5489,-3.5489,-3.5489,-3.5489,-3.5489,-3.5489,-3.5489,-3.5489,-3.5489,-3.5489,-3.5522,-3.5557,-3.5638,-3.5725,-3.5793,-3.5722,-3.5581,-3.5441,-3.4972,-3.4579,-3.4429,-3.4325,-3.4472,-3.4546,-3.4513,-3.4472,-3.4423,-3.4399,-3.4399,-3.4448,-3.4521,-3.4618,-3.4715,-3.4787,-3.4835,-3.4883,-3.4883,-3.4899,-3.4899,-3.4899,-3.4899,-3.4899,-3.4899,-3.4899,-3.4899,-3.4899,-3.4899,-3.4923,-3.5058,-3.9773,-3.8958,-3.8343,-3.796,-3.7642,-3.7227,-3.6877,-3.6693,-3.6538,-3.6492,-3.6492,-3.6492,-3.6492,-3.6492,-3.6492,-3.6492,-3.6492,-3.6492,-3.632,-3.6195,-3.6037,-3.5846,-3.5686,-3.5539,-3.5489,-3.5489,-3.5489,-3.5489,-3.5489,-3.5489,-3.5489,-3.5489,-3.5489,-3.5489,-3.5489,-3.5489,-3.5489,-3.5489,-3.5489,-3.5489,-3.5489,-3.5489,-3.5489,-3.5457,-3.5424,-3.5261,-3.5016,-3.4802,-3.4467,-3.4142,-3.3902,-3.3764,-3.373,-3.3799,-3.4025,-3.4298,-3.465,-3.4935,-3.518,-3.5359,-3.5504,-3.5489,-3.5489,-3.5489,-3.5489,-3.5489,-3.5489,-3.5489,-3.5489,-3.5489,-3.5522,-3.5557,-3.5572,-3.5604,-3.5604,-3.5604,-3.5522,-3.5522,-3.5572,-3.5623,-3.5695,-3.5825,-3.5938,-3.5775,-3.5285,-3.4706,-3.4172,-3.4115,-3.4176,-3.425,-3.425,-3.425,-3.4234,-3.425,-3.425,-3.4349,-3.4423,-3.4472,-3.457,-3.4691,-3.4763,-3.4811,-3.4883,-3.4899,-3.4899,-3.4899,-3.4899,-3.4899,-3.4899,-3.4899,-3.4899,-3.4899,-3.4923,-3.4947,-3.5081,-3.9332,-3.8958,-3.8359,-3.7931,-3.7642,-3.7211,-3.6908,-3.6693,-3.6538,-3.6492,-3.6492,-3.6492,-3.6492,-3.6492,-3.6492,-3.6492,-3.6492,-3.6492,-3.632,-3.61,-3.602,-3.5797,-3.5619,-3.5489,-3.5489,-3.5489,-3.5489,-3.5489,-3.5489,-3.5489,-3.5489,-3.5489,-3.5489,-3.5489,-3.5489,-3.5489,-3.5489,-3.5489,-3.5489,-3.5489,-3.5489,-3.5489,-3.5489,-3.5457,-3.5326,-3.5129,-3.4831,-3.4582,-3.4176,-3.366,-3.3486,-3.3333,-3.3213,-3.3382,-3.366,-3.4108,-3.4515,-3.485,-3.518,-3.5407,-3.5472,-3.5489,-3.5489,-3.5489,-3.5489,-3.5489,-3.5489,-3.5489,-3.5537,-3.5587,-3.5653,-3.5688,-3.5703,-3.5703,-3.5703,-3.5653,-3.5572,-3.5489,-3.5522,-3.5572,-3.5671,-3.5802,-3.6044,-3.6056,-3.5558,-3.4931,-3.4149,-3.3915,-3.4014,-3.4025,-3.4075,-3.4176,-3.4226,-3.425,-3.4275,-3.4275,-3.4325,-3.4366,-3.4423,-3.457,-3.4667,-3.4739,-3.4787,-3.4875,-3.4899,-3.4899,-3.4899,-3.4899,-3.4899,-3.4899,-3.4899,-3.4923,-3.4923,-3.4994,-3.5088,-3.8931,-3.8572,-3.8132,-3.7743,-3.7359,-3.7121,-3.6831,-3.6585,-3.6523,-3.6492,-3.6492,-3.6492,-3.6492,-3.6492,-3.6492,-3.6492,-3.6492,-3.6492,-3.632,-3.6037,-3.5988,-3.5765,-3.5587,-3.5489,-3.5489,-3.5489,-3.5489,-3.5489,-3.5489,-3.5489,-3.5489,-3.5489,-3.5489,-3.5489,-3.5489,-3.5489,-3.5489,-3.5489,-3.5489,-3.5489,-3.5489,-3.5489,-3.5504,-3.5472,-3.5294,-3.503,-3.4664,-3.438,-3.3902,-3.3347,-3.3206,-3.3072,-3.3072,-3.3241,-3.364,-3.404,-3.4448,-3.5016,-3.5294,-3.5472,-3.5489,-3.5489,-3.5489,-3.5489,-3.5489,-3.5489,-3.5489,-3.5522,-3.5572,-3.5653,-3.5688,-3.5831,-3.5878,-3.5863,-3.5831,-3.5735,-3.5653,-3.5554,-3.5522,-3.5539,-3.5621,-3.6022,-3.6291,-3.6412,-3.5998,-3.5681,-3.4999,-3.4258,-3.4166,-3.4039,-3.4025,-3.4201,-3.4275,-3.43,-3.4325,-3.4349,-3.4374,-3.4423,-3.4423,-3.4472,-3.4546,-3.4667,-3.4763,-3.4875,-3.4899,-3.4899,-3.4899,-3.4899,-3.4899,-3.4899,-3.4899,-3.4923,-3.4947,-3.5018,-3.5111,-3.8766,-3.8363,-3.7992,-3.7581,-3.7224,-3.706,-3.6816,-3.6523,-3.6492,-3.6492,-3.6492,-3.6492,-3.6492,-3.6492,-3.6492,-3.6492,-3.6492,-3.6414,-3.6289,-3.6005,-3.5894,-3.5733,-3.5554,-3.5489,-3.5489,-3.5489,-3.5489,-3.5489,-3.5489,-3.5489,-3.5489,-3.5489,-3.5489,-3.5489,-3.5489,-3.5489,-3.5489,-3.5489,-3.5489,-3.5489,-3.5489,-3.5504,-3.5472,-3.5374,-3.5162,-3.4883,-3.4515,-3.4128,-3.375,-3.3262,-3.3037,-3.2952,-3.3072,-3.3276,-3.364,-3.404,-3.4616,-3.5115,-3.5407,-3.5504,-3.5489,-3.5489,-3.5489,-3.5489,-3.5489,-3.5489,-3.5489,-3.5539,-3.5638,-3.5735,-3.5831,-3.5973,-3.6053,-3.6022,-3.5941,-3.5831,-3.5671,-3.5604,-3.5489,-3.5507,-3.5653,-3.6085,-3.6492,-3.658,-3.6499,-3.6239,-3.5924,-3.5187,-3.4481,-3.4274,-3.4156,-3.4267,-3.4423,-3.4464,-3.4472,-3.4415,-3.4448,-3.4497,-3.4505,-3.4546,-3.457,-3.4691,-3.4787,-3.4859,-3.4899,-3.4899,-3.4899,-3.4899,-3.4899,-3.4899,-3.4899,-3.4923,-3.497,-3.5065,-3.5182,-3.8766,-3.8335,-3.7876,-3.7478,-3.7194,-3.7014,-3.6785,-3.6492,-3.6492,-3.6492,-3.6492,-3.6492,-3.6492,-3.6492,-3.6492,-3.6492,-3.646,-3.6305,-3.6116,-3.5958,-3.5831,-3.5636,-3.5554,-3.5489,-3.5489,-3.5489,-3.5489,-3.5489,-3.5489,-3.5489,-3.5489,-3.5489,-3.5489,-3.5489,-3.5489,-3.5489,-3.5489,-3.5489,-3.5489,-3.5489,-3.5489,-3.5489,-3.5439,-3.5294,-3.5067,-3.4702,-3.4366,-3.4005,-3.3507,-3.3108,-3.2917,-3.2881,-3.2931,-3.3086,-3.3577,-3.4162,-3.4835,-3.5195,-3.5439,-3.5489,-3.5489,-3.5489,-3.5489,-3.5489,-3.5489,-3.5489,-3.5537,-3.5572,-3.5671,-3.5831,-3.5973,-3.6085,-3.6211,-3.6163,-3.6068,-3.591,-3.5735,-3.5621,-3.5522,-3.5539,-3.5686,-3.6022,-3.6492,-3.6689,-3.6888,-3.6934,-3.6694,-3.6405,-3.5643,-3.4711,-3.4576,-3.4407,-3.4554,-3.4661,-3.4693,-3.4906,-3.5144,-3.5366,-3.4898,-3.4808,-3.4799,-3.4765,-3.4763,-3.4835,-3.4899,-3.4899,-3.4899,-3.4899,-3.4899,-3.4923,-3.4923,-3.4994,-3.5034,-3.5175,-3.5291,-3.846,-3.8004,-3.7639,-3.7314,-3.706,-3.677,-3.66,-3.6492,-3.6492,-3.6492,-3.6492,-3.6492,-3.6492,-3.6492,-3.6492,-3.6414,-3.6305,-3.6211,-3.6022,-3.5847,-3.5735,-3.5636,-3.5554,-3.5489,-3.5489,-3.5489,-3.5489,-3.5489,-3.5489,-3.5489,-3.5489,-3.5489,-3.5489,-3.5489,-3.5489,-3.5489,-3.5489,-3.5489,-3.5489,-3.5489,-3.5489,-3.5489,-3.5439,-3.5326,-3.5034,-3.4702,-3.4332,-3.402,-3.3556,-3.3108,-3.2988,-3.2988,-3.3157,-3.3382,-3.3799,-3.4601,-3.5016,-3.5294,-3.5457,-3.5489,-3.5489,-3.5489,-3.5489,-3.5489,-3.5489,-3.5489,-3.5569,-3.5621,-3.5767,-3.5926,-3.61,-3.6226,-3.6305,-3.6258,-3.6163,-3.6005,-3.5831,-3.5686,-3.5587,-3.5651,-3.575,-3.61,-3.6569,-3.6921,-3.7121,-3.7384,-3.7419,-3.7237,-3.6747,-3.5768,-3.5215,-3.5021,-3.5037,-3.5234,-3.5563,-3.5817,-3.6073,-3.6213,-3.5711,-3.5317,-3.5276,-3.5201,-3.4912,-3.4811,-3.4899,-3.4899,-3.4899,-3.4899,-3.4899,-3.4947,-3.497,-3.5041,-3.5128,-3.5245,-3.536,-3.8359,-3.7889,-3.7551,-3.7164,-3.68,-3.6585,-3.6492,-3.6492,-3.6492,-3.6492,-3.6492,-3.6492,-3.6492,-3.6492,-3.6492,-3.6383,-3.6211,-3.6116,-3.5958,-3.5767,-3.5653,-3.5587,-3.5522,-3.5489,-3.5489,-3.5489,-3.5489,-3.5489,-3.5489,-3.5489,-3.5489,-3.5489,-3.5489,-3.5489,-3.5489,-3.5489,-3.5489,-3.5489,-3.5489,-3.5489,-3.5489,-3.5489,-3.5472,-3.5374,-3.5082,-3.4735,-3.4399,-3.4088,-3.3626,-3.3227,-3.3178,-3.3227,-3.3452,-3.3744,-3.4244,-3.4949,-3.5195,-3.5359,-3.5457,-3.5489,-3.5489,-3.5489,-3.5489,-3.5489,-3.5489,-3.5489,-3.5572,-3.5671,-3.5863,-3.6053,-3.6226,-3.6352,-3.6352,-3.6383,-3.6226,-3.6068,-3.5925,-3.5733,-3.5733,-3.5733,-3.5988,-3.6304,-3.6662,-3.7043,-3.7431,-3.7754,-3.7943,-3.7905,-3.7419,-3.66,-3.6144,-3.5941,-3.5923,-3.6004,-3.6301,-3.6549,-3.669,-3.6774,-3.6512,-3.6149,-3.5968,-3.5613,-3.5281,-3.5057,-3.4899,-3.4899,-3.4899,-3.4899,-3.4923,-3.4947,-3.5018,-3.5105,-3.5198,-3.5314,-3.5429,-3.8444,-3.7905,-3.7535,-3.7104,-3.6585,-3.6554,-3.6523,-3.6523,-3.6523,-3.6492,-3.6492,-3.6492,-3.6492,-3.6492,-3.6492,-3.6367,-3.6179,-3.6053,-3.5894,-3.5703,-3.5572,-3.5489,-3.5489,-3.5489,-3.5489,-3.5489,-3.5489,-3.5489,-3.5489,-3.5489,-3.5489,-3.5489,-3.5489,-3.5489,-3.5489,-3.5489,-3.5489,-3.5489,-3.5489,-3.5489,-3.5489,-3.5472,-3.5407,-3.5261,-3.5049,-3.4802,-3.4467,-3.4108,-3.3744,-3.357,-3.3486,-3.3556,-3.3833,-3.421,-3.4817,-3.5082,-3.5326,-3.5424,-3.5489,-3.5489,-3.5489,-3.5489,-3.5489,-3.5489,-3.5489,-3.5489,-3.5572,-3.5767,-3.5958,-3.6116,-3.6274,-3.632,-3.6352,-3.632,-3.6226,-3.6132,-3.6037,-3.591,-3.5846,-3.591,-3.6005,-3.6383,-3.6846,-3.7254,-3.7623,-3.8055,-3.8342,-3.8384,-3.8175,-3.7436,-3.6976,-3.6723,-3.6659,-3.6646,-3.6813,-3.7029,-3.7209,-3.7211,-3.7091,-3.6778,-3.6398,-3.6009,-3.5628,-3.5263,-3.4899,-3.4899,-3.4899,-3.4899,-3.4923,-3.4947,-3.5018,-3.5175,-3.5291,-3.5406,-3.5498,-3.846,-3.8078,-3.7594,-3.7194,-3.6877,-3.6708,-3.6646,-3.6631,-3.6538,-3.6492,-3.6492,-3.6492,-3.6492,-3.6492,-3.6492,-3.6367,-3.61,-3.6005,-3.5814,-3.5668,-3.5522,-3.5489,-3.5489,-3.5489,-3.5489,-3.5489,-3.5489,-3.5489,-3.5489,-3.5489,-3.5489,-3.5489,-3.5489,-3.5489,-3.5489,-3.5489,-3.5489,-3.5489,-3.5489,-3.5489,-3.5489,-3.5489,-3.5457,-3.5359,-3.5213,-3.5016,-3.4716,-3.4448,-3.4176,-3.3991,-3.3957,-3.4094,-3.438,-3.4802,-3.5082,-3.5228,-3.5392,-3.5457,-3.5489,-3.5489,-3.5489,-3.5489,-3.5489,-3.5489,-3.5489,-3.5489,-3.5619,-3.5814,-3.6005,-3.6179,-3.6305,-3.632,-3.632,-3.6258,-3.6226,-3.6179,-3.6148,-3.6085,-3.599,-3.6053,-3.6116,-3.6492,-3.6983,-3.7433,-3.7799,-3.8173,-3.8539,-3.8718,-3.8821,-3.8397,-3.7597,-3.7334,-3.7273,-3.7302,-3.741,-3.7615,-3.782,-3.7771,-3.7619,-3.7257,-3.6795,-3.6009,-3.528,-3.5114,-3.4899,-3.4899,-3.4899,-3.4899,-3.4923,-3.4947,-3.5065,-3.5222,-3.5389,-3.5509,-3.5577,-3.86,-3.8266,-3.7743,-3.7373,-3.7164,-3.6983,-3.6922,-3.6892,-3.6677,-3.6585,-3.6585,-3.6523,-3.6492,-3.6492,-3.6492,-3.6352,-3.6085,-3.6005,-3.5831,-3.5653,-3.5522,-3.5489,-3.5489,-3.5489,-3.5489,-3.5489,-3.5489,-3.5489,-3.5489,-3.5489,-3.5489,-3.5489,-3.5489,-3.5489,-3.5489,-3.5489,-3.5489,-3.5489,-3.5489,-3.5489,-3.5489,-3.5489,-3.5489,-3.5424,-3.5279,-3.5148,-3.4983,-3.475,-3.4515,-3.4414,-3.438,-3.4534,-3.4783,-3.5049,-3.5228,-3.5326,-3.5439,-3.5489,-3.5489,-3.5489,-3.5489,-3.5489,-3.5489,-3.5489,-3.5489,-3.5522,-3.5636,-3.5846,-3.5973,-3.6132,-3.6352,-3.6414,-3.6352,-3.6274,-3.632,-3.632,-3.6242,-3.6148,-3.6116,-3.6148,-3.6274,-3.6585,-3.7074,-3.7535,-3.7943,-3.8371,-3.8722,-3.8942,-3.9067,-3.9067,-3.8339,-3.792,-3.7834,-3.7861,-3.7947,-3.8199,-3.8521,-3.8383,-3.8081,-3.7274,-3.6539,-3.5611,-3.4899,-3.4899,-3.4899,-3.4899,-3.4899,-3.4899,-3.4899,-3.4923,-3.5088,-3.5297,-3.5464,-3.5627,-3.5734,-3.8794,-3.8363,-3.7963,-3.7655,-3.7462,-3.7314,-3.7254,-3.7164,-3.6907,-3.6754,-3.6693,-3.6585,-3.6523,-3.6492,-3.6492,-3.6336,-3.6196,-3.6053,-3.5847,-3.5703,-3.5554,-3.5522,-3.5489,-3.5489,-3.5489,-3.5489,-3.5489,-3.5489,-3.5489,-3.5489,-3.5489,-3.5489,-3.5489,-3.5489,-3.5489,-3.5489,-3.5489,-3.5489,-3.5489,-3.5489,-3.5489,-3.5489,-3.5489,-3.5424,-3.5359,-3.5246,-3.5115,-3.4983,-3.4798,-3.4765,-3.4765,-3.4931,-3.5096,-3.5261,-3.5326,-3.5424,-3.5472,-3.5489,-3.5489,-3.5489,-3.5489,-3.5489,-3.5489,-3.5489,-3.5489,-3.5554,-3.5701,-3.5846,-3.5957,-3.6115,-3.6367,-3.6429,-3.632,-3.632,-3.6383,-3.6414,-3.632,-3.6242,-3.6242,-3.6242,-3.6492,-3.6769,-3.7194,-3.7653,-3.8087,-3.8511,-3.8832,-3.904,-3.9191,-3.9094,-3.8679,-3.8439,-3.8379,-3.8421,-3.8411,-3.8551,-3.8832,-3.8564,-3.8104,-3.7175,-3.629,-3.5413,-3.4899,-3.4899,-3.4899,-3.4965,-3.4932,-3.4899,-3.4899,-3.4939,-3.5111,-3.5321,-3.5594,-3.5734,-3.5888,-3.892,-3.8408,-3.8278,-3.8107,-3.7801,-3.7655,-3.7492,-3.7358,-3.7178,-3.6952,-3.6739,-3.6693,-3.66,-3.6492,-3.6492,-3.6414,-3.6242,-3.6085,-3.5894,-3.5703,-3.5604,-3.5522,-3.5489,-3.5489,-3.5489,-3.5489,-3.5489,-3.5489,-3.5489,-3.5489,-3.5489,-3.5489,-3.5489,-3.5489,-3.5489,-3.5489,-3.5489,-3.5489,-3.5489,-3.5489,-3.5489,-3.5489,-3.5489,-3.5472,-3.5472,-3.5439,-3.5407,-3.5228,-3.5129,-3.5082,-3.5115,-3.5228,-3.5341,-3.5407,-3.5424,-3.5457,-3.5489,-3.5489,-3.5489,-3.5489,-3.5489,-3.5489,-3.5489,-3.5489,-3.5489,-3.5489,-3.5668,-3.5878,-3.6005,-3.6132,-3.6289,-3.6274,-3.6242,-3.6383,-3.646,-3.646,-3.6414,-3.6414,-3.6445,-3.6569,-3.6754,-3.7089,-3.7494,-3.7889,-3.8217,-3.8583,-3.8832,-3.9067,-3.9191,-3.9094,-3.892,-3.8871,-3.8761,-3.8699,-3.8572,-3.8678,-3.8794,-3.8558,-3.8137,-3.7233,-3.629,-3.5297,-3.4932,-3.533,-3.5181,-3.5098,-3.5048,-3.5131,-3.5037,-3.5084,-3.5192,-3.5367,-3.5639,-3.5888,-3.6062]},{"header":{"parameterUnit":"m.s-1","parameterCategory":1,"la1":31.0,"la2":29.5877,"lo1":-88.7671,"lo2":-86.6584,"dy":0.0162,"dx":0.0185,"nx":115,"ny":88,"refTime":"2023-06-11T12:00:00:Z","depth":0,"parameterNumber":3,"parameterNumberName":"V-component_of_WINDS"},"data":[0.0,0.0,0.0,0.0,0.0,0.0,0.0,0.0,0.0,0.0,0.0,0.0,0.0,0.0,0.0,0.0,0.0,0.0,0.0,0.0,0.0,0.0,0.0,0.0,0.0,0.0,0.0,0.0,0.0,0.0,0.0,0.0,0.0,0.0,0.0,0.0,0.0,0.0,0.0,0.0,0.0,0.0,0.0,0.0,0.0,0.0,0.0,0.0,0.0,0.0,0.0,0.0,0.0,0.0,0.0,0.0,0.0,0.0,0.0,0.0,0.0,0.0,0.0,0.0,0.0,0.0,0.0,0.0,0.0,0.0,0.0,0.0,0.0,0.0,0.0,0.0,0.0,0.0,0.0,0.0,0.0,0.0,0.0,0.0,0.0,0.0,0.0,0.0,0.0,0.0,0.0,0.0,0.0,0.0,0.0,0.0,0.0,0.0,0.0,0.0,0.0,0.0,0.0,0.0,0.0,0.0,0.0,0.0,0.0,0.0,0.0,0.0,0.0,0.0,0.0,0.0,0.0,0.0,0.0,0.0,0.0,0.0,0.0,0.0,0.0,0.0,0.0,0.0,0.0,0.0,0.0,0.0,0.0,0.0,0.0,0.0,0.0,0.0,0.0,0.0,0.0,0.0,0.0,0.0,0.0,0.0,0.0,0.0,0.0,0.0,0.0,0.0,0.0,0.0,0.0,0.0,0.0,0.0,0.0,0.0,0.0,0.0,0.0,0.0,0.0,0.0,0.0,0.0,0.0,0.0,0.0,0.0,0.0,0.0,0.0,0.0,0.0,0.0,0.0,0.0,0.0,0.0,0.0,0.0,0.0,0.0,0.0,0.0,0.0,0.0,0.0,0.0,0.0,0.0,0.0,0.0,0.0,0.0,0.0,0.0,0.0,0.0,0.0,0.0,0.0,0.0,0.0,0.0,0.0,0.0,0.0,0.0,0.0,0.0,0.0,0.0,0.0,0.0,0.0,0.0,0.0,0.0,0.0,0.0,0.0,0.0,0.0,0.0,0.0,0.0,0.0,0.0,0.0,0.0,0.0,0.0,0.0,0.0,0.0,0.0,0.0,0.0,0.0,0.0,0.0,0.0,0.0,0.0,0.0,0.0,0.0,0.0,0.0,0.0,0.0,0.0,0.0,0.0,0.0,0.0,0.0,0.0,0.0,0.0,0.0,0.0,0.0,0.0,0.0,0.0,0.0,0.0,0.0,0.0,0.0,0.0,0.0,0.0,0.0,0.0,0.0,0.0,0.0,0.0,0.0,0.0,0.0,0.0,0.0,0.0,0.0,0.0,0.0,0.0,0.0,0.0,0.0,0.0,0.0,0.0,0.0,0.0,0.0,0.0,0.0,0.0,0.0,0.0,0.0,0.0,0.0,0.0,0.0,0.0,0.0,0.0,0.0,0.0,0.0,0.0,0.0,0.0,0.0,0.0,0.0,0.0,0.0,0.0,0.0,0.0,0.0,0.0,0.0,0.0,0.0,0.0,0.0,0.0,0.0,0.0,0.0,0.0,0.0,0.0,0.0,0.0,0.0,0.0,0.0,0.0,0.0,0.0,0.0,0.0,0.0,0.0,0.0,0.0,0.0,0.0,0.0,0.0,0.0,0.0,0.0,0.0,0.0,0.0,0.0,0.0,0.0,0.0,0.0,0.0,0.0,0.0,0.0,0.0,0.0,0.0,0.0,0.0,0.0,0.0,0.0,0.0,0.0,0.0,0.0,0.0,0.0,0.0,0.0,0.0,0.0,0.0,0.0,0.0,0.0,0.0,0.0,0.0,0.0,0.0,0.0,0.0,0.0,0.0,0.0,0.0,0.0,0.0,0.0,0.0,0.0,0.0,0.0,0.0,0.0,0.0,0.0,0.0,0.0,0.0,0.0,0.0,0.0,0.0,0.0,0.0,0.0,0.0,0.0,0.0,0.0,0.0,0.0,0.0,0.0,0.0,0.0,0.0,0.0,0.0,0.0,0.0,0.0,0.0,0.0,0.0,0.0,0.0,0.0,0.0,0.0,0.0,0.0,0.0,0.0,0.0,0.0,0.0,0.0,0.0,0.0,0.0,0.0,0.0,0.0,0.0,0.0,0.0,0.0,0.0,0.0,0.0,0.0,0.0,0.0,0.0,0.0,0.0,0.0,0.0,0.0,0.0,0.0,0.0,0.0,0.0,0.0,0.0,0.0,0.0,0.0,0.0,0.0,0.0,0.0,0.0,0.0,0.0,0.0,0.0,0.0,0.0,0.0,0.0,0.0,0.0,0.0,0.0,0.0,0.0,0.0,0.0,0.0,0.0,0.0,0.0,0.0,0.0,0.0,0.0,0.0,0.0,0.0,0.0,0.0,0.0,0.0,0.0,0.0,0.0,0.0,0.0,0.0,0.0,0.0,0.0,0.0,0.0,0.0,0.0,0.0,0.0,0.0,0.0,0.0,0.0,0.0,0.0,0.0,0.0,0.0,0.0,0.0,0.0,0.0,0.0,0.0,0.0,0.0,0.0,0.0,0.0,0.0,0.0,0.0,0.0,0.0,0.0,0.0,0.0,0.0,0.0,0.0,0.0,0.0,0.0,0.0,0.0,0.0,0.0,0.0,0.0,0.0,0.0,0.0,0.0,0.0,0.0,0.0,0.0,0.0,0.0,0.0,0.0,0.0,0.0,0.0,0.0,0.0,0.0,0.0,0.0,0.0,0.0,0.0,0.0,0.0,0.0,0.0,0.0,0.0,0.0,0.0,0.0,0.0,0.0,0.0,0.0,0.0,0.0,0.0,0.0,0.0,0.0,0.0,0.0,0.0,0.0,0.0,0.0,0.0,0.0,0.0,0.0,0.0,0.0,0.0,0.0,0.0,0.0,0.0,0.0,0.0,0.0,0.0,0.0,0.0,0.0,0.0,0.0,0.0,0.0,0.0,0.0,0.0,0.0,0.0,0.0,0.0,0.0,0.0,0.0,0.0,0.0,0.0,0.0,0.0,0.0,0.0,0.0,0.0,0.0,0.0,0.0,0.0,0.0,0.0,0.0,0.0,0.0,0.0,0.0,0.0,0.0,0.0,0.0,0.0,0.0,0.0,0.0,0.0,0.0,0.0,0.0,0.0,0.0,0.0,0.0,0.0,0.0,0.0,0.0,0.0,0.0,0.0,0.0,0.0,0.0,0.0,0.0,0.0,0.0,0.0,0.0,0.0,0.0,0.0,0.0,0.0,0.0,0.0,0.0,0.0,0.0,0.0,0.0,0.0,0.0,0.0,0.0,0.0,0.0,0.0,0.0,0.0,0.0,0.0,0.0,0.0,0.0,0.0,0.0,0.0,0.0,0.0,0.0,0.0,0.0,0.0,0.0,0.0,0.0,0.0,0.0,0.0,0.0,0.0,0.0,0.0,0.0,0.0,0.0,0.0,0.0,0.0,0.0,0.0,0.0,0.0,0.0,0.0,0.0,0.0,0.0,0.0,0.0,0.0,0.0,0.0,0.0,0.0,0.0,0.0,0.0,0.0,0.0,0.0,0.0,0.0,0.0,0.0,0.0,0.0,0.0,0.0,0.0,0.0,0.0,0.0,0.0,0.0,0.0,0.0,0.0,0.0,0.0,0.0,0.0,0.0,0.0,0.0,0.0,0.0,0.0,0.0,0.0,0.0,0.0,0.0,0.0,0.0,0.0,0.0,0.0,0.0,0.0,0.0,0.0,0.0,0.0,0.0,0.0,0.0,0.0,0.0,0.0,0.0,0.0,0.0,0.0,0.0,0.0,0.0,0.0,0.0,0.0,0.0,0.0,0.0,0.0,0.0,0.0,0.0,0.0,0.0,0.0,0.0,0.0,0.0,0.0,0.0,0.0,0.0,0.0,0.0,0.0,0.0,0.0,0.0,0.0,0.0,0.0,0.0,0.0,0.0,0.0,0.0,0.0,0.0,0.0,0.0,0.0,0.0,0.0,0.0,0.0,0.0,0.0,0.0,0.0,0.0,0.0,0.0,0.0,0.0,0.0,0.0,0.0,0.0,0.0,0.0,0.0,0.0,0.0,0.0,0.0,0.0,0.0,0.0,0.0,0.0,0.0,0.0,0.0,0.0,0.0,0.0,0.0,0.0,0.0,0.0,0.0,0.0,0.0,0.0,0.0,0.0,0.0,0.0,0.0,0.0,0.0,0.0,0.0,0.0,0.0,0.0,0.0,0.0,0.0,0.0,0.0,0.0,0.0,0.0,0.0,0.0,0.0,0.0,0.0,0.0,0.0,0.0,0.0,0.0,0.0,0.0,0.0,0.0,0.0,0.0,0.0,-1.8043,0.0,0.0,0.0,0.0,0.0,0.0,0.0,0.0,0.0,0.0,0.0,0.0,0.0,0.0,0.0,0.0,0.0,0.0,0.0,0.0,0.0,0.0,0.0,0.0,0.0,0.0,0.0,0.0,0.0,0.0,0.0,0.0,0.0,0.0,0.0,0.0,0.0,0.0,0.0,0.0,0.0,0.0,0.0,0.0,0.0,0.0,0.0,0.0,0.0,0.0,0.0,0.0,0.0,0.0,0.0,0.0,0.0,0.0,0.0,0.0,0.0,0.0,0.0,0.0,0.0,0.0,0.0,0.0,0.0,0.0,0.0,0.0,0.0,0.0,0.0,0.0,0.0,0.0,0.0,0.0,0.0,0.0,0.0,0.0,0.0,0.0,0.0,0.0,0.0,0.0,0.0,0.0,0.0,0.0,0.0,0.0,0.0,0.0,0.0,0.0,0.0,0.0,0.0,0.0,0.0,0.0,0.0,0.0,0.0,0.0,-2.0326,-2.0055,-1.7944,-1.6948,-1.7291,0.0,0.0,0.0,0.0,0.0,0.0,0.0,0.0,0.0,0.0,0.0,0.0,0.0,0.0,0.0,0.0,0.0,0.0,0.0,0.0,0.0,0.0,0.0,0.0,0.0,0.0,0.0,0.0,0.0,0.0,0.0,0.0,0.0,0.0,0.0,0.0,0.0,0.0,0.0,0.0,0.0,0.0,0.0,0.0,0.0,0.0,0.0,0.0,0.0,0.0,0.0,0.0,0.0,0.0,0.0,0.0,0.0,0.0,0.0,0.0,0.0,0.0,0.0,0.0,0.0,0.0,0.0,0.0,0.0,0.0,0.0,0.0,0.0,0.0,0.0,0.0,0.0,0.0,0.0,0.0,0.0,0.0,0.0,0.0,0.0,0.0,0.0,0.0,0.0,0.0,0.0,0.0,0.0,0.0,0.0,0.0,0.0,0.0,0.0,0.0,0.0,0.0,0.0,0.0,0.0,0.0,0.0,0.0,0.0,0.0,0.0,0.0,-1.7269,-1.6299,-1.668,0.0,0.0,0.0,0.0,0.0,0.0,0.0,0.0,0.0,0.0,0.0,0.0,0.0,0.0,0.0,0.0,0.0,0.0,0.0,0.0,0.0,0.0,0.0,0.0,0.0,0.0,0.0,0.0,0.0,0.0,0.0,0.0,0.0,0.0,0.0,0.0,0.0,0.0,0.0,0.0,0.0,0.0,0.0,0.0,0.0,0.0,0.0,0.0,0.0,0.0,0.0,0.0,0.0,0.0,0.0,0.0,0.0,0.0,0.0,0.0,0.0,0.0,0.0,0.0,0.0,0.0,0.0,0.0,0.0,0.0,0.0,0.0,0.0,0.0,0.0,0.0,0.0,0.0,0.0,0.0,0.0,0.0,0.0,0.0,0.0,0.0,0.0,0.0,0.0,0.0,0.0,0.0,0.0,0.0,0.0,0.0,0.0,0.0,0.0,0.0,0.0,0.0,0.0,0.0,0.0,0.0,0.0,0.0,0.0,0.0,-1.9628,-1.8779,-1.6854,0.0,-1.6542,0.0,0.0,0.0,0.0,0.0,0.0,0.0,0.0,0.0,0.0,0.0,0.0,0.0,0.0,0.0,0.0,0.0,0.0,0.0,0.0,0.0,0.0,0.0,0.0,0.0,0.0,0.0,0.0,0.0,0.0,0.0,0.0,0.0,0.0,0.0,0.0,0.0,0.0,0.0,0.0,0.0,0.0,0.0,0.0,0.0,0.0,0.0,0.0,0.0,0.0,0.0,0.0,0.0,0.0,0.0,0.0,0.0,0.0,0.0,0.0,0.0,0.0,0.0,0.0,0.0,0.0,0.0,0.0,0.0,0.0,0.0,0.0,0.0,0.0,0.0,0.0,0.0,0.0,0.0,0.0,0.0,0.0,0.0,0.0,0.0,0.0,0.0,0.0,0.0,0.0,0.0,0.0,0.0,0.0,0.0,0.0,0.0,0.0,0.0,0.0,0.0,0.0,0.0,0.0,0.0,0.0,0.0,0.0,0.0,0.0,-1.9039,-1.7737,-1.5976,-1.5601,0.0,0.0,0.0,0.0,0.0,0.0,0.0,0.0,0.0,0.0,0.0,0.0,0.0,0.0,0.0,0.0,0.0,0.0,0.0,0.0,0.0,0.0,0.0,0.0,0.0,0.0,0.0,0.0,0.0,0.0,0.0,0.0,0.0,0.0,0.0,0.0,0.0,0.0,0.0,0.0,0.0,0.0,0.0,0.0,0.0,0.0,0.0,0.0,0.0,0.0,0.0,0.0,0.0,0.0,0.0,0.0,0.0,0.0,0.0,0.0,0.0,0.0,0.0,0.0,0.0,0.0,0.0,0.0,0.0,0.0,0.0,0.0,0.0,0.0,0.0,0.0,0.0,0.0,0.0,0.0,0.0,0.0,0.0,0.0,0.0,0.0,0.0,0.0,0.0,0.0,0.0,0.0,0.0,0.0,0.0,0.0,0.0,0.0,0.0,0.0,0.0,0.0,0.0,0.0,0.0,0.0,0.0,0.0,0.0,0.0,-2.0294,-1.834,-1.6494,-1.5054,-1.519,-1.7055,0.0,0.0,0.0,0.0,0.0,0.0,0.0,0.0,0.0,0.0,0.0,0.0,0.0,0.0,0.0,0.0,0.0,0.0,0.0,0.0,0.0,0.0,0.0,0.0,0.0,0.0,0.0,0.0,0.0,0.0,0.0,0.0,0.0,0.0,0.0,0.0,0.0,0.0,0.0,0.0,0.0,0.0,0.0,0.0,0.0,0.0,0.0,0.0,0.0,0.0,0.0,0.0,0.0,0.0,0.0,0.0,0.0,0.0,0.0,0.0,0.0,0.0,0.0,0.0,0.0,0.0,0.0,0.0,0.0,0.0,0.0,0.0,0.0,0.0,0.0,0.0,0.0,0.0,0.0,0.0,0.0,0.0,0.0,0.0,0.0,0.0,0.0,0.0,0.0,0.0,0.0,0.0,0.0,0.0,0.0,0.0,0.0,0.0,0.0,0.0,0.0,0.0,0.0,0.0,0.0,0.0,0.0,0.0,-2.1733,-1.9664,-1.7408,-1.5024,-1.4256,-1.4988,0.0,0.0,0.0,0.0,0.0,0.0,0.0,0.0,0.0,0.0,0.0,0.0,0.0,0.0,0.0,0.0,0.0,0.0,0.0,0.0,0.0,0.0,0.0,0.0,0.0,0.0,0.0,0.0,0.0,0.0,0.0,0.0,0.0,0.0,0.0,0.0,0.0,0.0,0.0,0.0,0.0,0.0,0.0,0.0,0.0,0.0,0.0,0.0,0.0,0.0,0.0,0.0,0.0,0.0,0.0,0.0,0.0,0.0,0.0,0.0,0.0,0.0,0.0,0.0,0.0,0.0,0.0,0.0,0.0,0.0,0.0,0.0,0.0,0.0,0.0,0.0,0.0,0.0,0.0,0.0,0.0,0.0,0.0,0.0,0.0,0.0,0.0,0.0,0.0,0.0,0.0,0.0,0.0,0.0,0.0,0.0,0.0,0.0,0.0,0.0,0.0,0.0,0.0,0.0,0.0,0.0,0.0,0.0,0.0,-2.1082,-1.7807,-1.5715,-1.5034,-1.425,-1.5116,0.0,0.0,0.0,0.0,0.0,0.0,0.0,0.0,0.0,0.0,0.0,0.0,0.0,0.0,0.0,0.0,0.0,0.0,0.0,0.0,0.0,0.0,0.0,0.0,0.0,0.0,0.0,0.0,0.0,0.0,0.0,0.0,0.0,0.0,0.0,0.0,0.0,0.0,0.0,0.0,0.0,0.0,0.0,0.0,0.0,0.0,0.0,0.0,0.0,0.0,0.0,0.0,0.0,0.0,0.0,0.0,0.0,0.0,0.0,0.0,0.0,0.0,0.0,0.0,0.0,0.0,0.0,0.0,0.0,0.0,0.0,0.0,0.0,0.0,0.0,0.0,0.0,0.0,0.0,0.0,0.0,0.0,0.0,0.0,0.0,0.0,0.0,0.0,0.0,0.0,0.0,0.0,0.0,0.0,0.0,0.0,0.0,0.0,0.0,0.0,0.0,0.0,0.0,0.0,0.0,0.0,0.0,0.0,0.0,-1.9608,0.0,-1.4545,-1.4845,-1.4237,-1.5269,0.0,0.0,0.0,0.0,0.0,0.0,0.0,0.0,0.0,0.0,0.0,0.0,0.0,0.0,0.0,0.0,0.0,0.0,0.0,0.0,0.0,0.0,0.0,0.0,0.0,0.0,0.0,0.0,0.0,0.0,0.0,0.0,0.0,0.0,0.0,0.0,0.0,0.0,0.0,0.0,0.0,0.0,0.0,0.0,0.0,0.0,0.0,0.0,0.0,0.0,0.0,0.0,0.0,0.0,0.0,0.0,0.0,0.0,0.0,0.0,0.0,0.0,0.0,0.0,0.0,0.0,0.0,0.0,0.0,0.0,0.0,0.0,0.0,0.0,0.0,0.0,0.0,0.0,0.0,0.0,0.0,0.0,0.0,0.0,0.0,0.0,0.0,0.0,0.0,0.0,0.0,0.0,0.0,0.0,0.0,0.0,0.0,0.0,0.0,0.0,0.0,0.0,0.0,0.0,0.0,0.0,0.0,0.0,-2.1241,-1.725,-1.5151,-1.4224,-1.4404,-1.4232,-1.544,0.0,0.0,0.0,0.0,0.0,0.0,0.0,0.0,0.0,0.0,0.0,0.0,0.0,0.0,0.0,0.0,0.0,0.0,0.0,0.0,0.0,0.0,0.0,0.0,0.0,0.0,0.0,0.0,0.0,0.0,0.0,0.0,0.0,0.0,0.0,0.0,0.0,0.0,0.0,0.0,0.0,0.0,0.0,0.0,0.0,0.0,0.0,0.0,0.0,0.0,0.0,0.0,0.0,0.0,0.0,0.0,0.0,0.0,0.0,0.0,0.0,0.0,0.0,0.0,0.0,0.0,0.0,0.0,0.0,0.0,0.0,0.0,0.0,0.0,0.0,0.0,0.0,0.0,0.0,0.0,0.0,0.0,0.0,0.0,0.0,0.0,0.0,0.0,0.0,0.0,0.0,0.0,0.0,0.0,0.0,0.0,0.0,0.0,0.0,0.0,0.0,0.0,0.0,0.0,0.0,0.0,0.0,0.0,0.0,-1.7255,-1.5458,-1.4817,-1.5309,-1.5176,-1.6125,0.0,0.0,0.0,0.0,0.0,0.0,0.0,0.0,0.0,0.0,0.0,0.0,0.0,0.0,0.0,0.0,0.0,0.0,0.0,0.0,0.0,0.0,0.0,0.0,0.0,0.0,0.0,0.0,0.0,0.0,0.0,0.0,0.0,0.0,0.0,0.0,0.0,0.0,0.0,0.0,0.0,0.0,0.0,0.0,0.0,0.0,0.0,0.0,0.0,0.0,0.0,0.0,0.0,0.0,0.0,0.0,0.0,0.0,0.0,0.0,0.0,0.0,0.0,0.0,0.0,0.0,0.0,0.0,0.0,0.0,0.0,0.0,0.0,0.0,0.0,0.0,0.0,0.0,0.0,0.0,0.0,0.0,0.0,0.0,0.0,0.0,0.0,0.0,0.0,0.0,0.0,0.0,0.0,0.0,0.0,0.0,0.0,0.0,0.0,0.0,0.0,0.0,0.0,0.0,0.0,0.0,0.0,0.0,0.0,-1.7914,-1.6277,-1.5567,-1.5872,-1.5775,-1.6704,-1.8722,0.0,0.0,0.0,0.0,0.0,0.0,0.0,0.0,0.0,0.0,0.0,0.0,0.0,0.0,0.0,0.0,0.0,0.0,0.0,0.0,0.0,0.0,0.0,0.0,0.0,0.0,0.0,0.0,0.0,0.0,0.0,0.0,0.0,0.0,0.0,0.0,0.0,0.0,0.0,0.0,0.0,0.0,0.0,0.0,0.0,0.0,0.0,0.0,0.0,0.0,0.0,0.0,0.0,0.0,0.0,0.0,0.0,0.0,0.0,0.0,0.0,0.0,0.0,0.0,0.0,0.0,0.0,0.0,0.0,0.0,0.0,0.0,0.0,0.0,0.0,0.0,0.0,0.0,0.0,0.0,0.0,0.0,0.0,0.0,0.0,0.0,0.0,0.0,0.0,0.0,0.0,0.0,0.0,0.0,0.0,0.0,0.0,0.0,0.0,0.0,0.0,0.0,0.0,0.0,0.0,0.0,0.0,0.0,-1.9113,-1.7539,-1.6609,-1.6329,-1.636,-1.7227,0.0,0.0,0.0,0.0,0.0,0.0,0.0,0.0,0.0,0.0,0.0,0.0,0.0,0.0,0.0,0.0,0.0,0.0,0.0,0.0,0.0,0.0,0.0,0.0,0.0,0.0,0.0,0.0,0.0,0.0,0.0,0.0,0.0,0.0,0.0,0.0,0.0,0.0,0.0,0.0,0.0,0.0,0.0,0.0,0.0,0.0,0.0,0.0,0.0,0.0,0.0,0.0,0.0,0.0,0.0,0.0,0.0,0.0,0.0,0.0,0.0,0.0,0.0,0.0,0.0,0.0,0.0,0.0,0.0,0.0,0.0,0.0,0.0,0.0,0.0,0.0,0.0,0.0,0.0,0.0,0.0,0.0,0.0,0.0,0.0,0.0,0.0,0.0,0.0,0.0,0.0,0.0,0.0,0.0,0.0,0.0,0.0,0.0,0.0,0.0,0.0,0.0,0.0,0.0,0.0,0.0,0.0,0.0,0.0,-2.0165,-1.9407,-1.8829,-1.855,-1.8388,-1.8943,0.0,0.0,0.0,0.0,0.0,0.0,0.0,0.0,0.0,0.0,0.0,0.0,0.0,0.0,0.0,0.0,0.0,0.0,0.0,0.0,0.0,0.0,0.0,0.0,0.0,0.0,0.0,0.0,0.0,0.0,0.0,0.0,0.0,0.0,0.0,0.0,0.0,0.0,0.0,0.0,0.0,0.0,0.0,0.0,0.0,0.0,0.0,0.0,0.0,0.0,0.0,0.0,0.0,0.0,0.0,0.0,0.0,0.0,0.0,0.0,0.0,0.0,0.0,0.0,0.0,0.0,0.0,0.0,0.0,0.0,0.0,0.0,0.0,0.0,0.0,0.0,0.0,0.0,0.0,0.0,0.0,0.0,0.0,0.0,0.0,0.0,0.0,0.0,0.0,0.0,0.0,0.0,0.0,0.0,0.0,0.0,0.0,0.0,0.0,0.0,0.0,0.0,0.0,0.0,0.0,0.0,0.0,0.0,-2.2122,-2.1204,-2.0992,-2.0894,-2.0865,-2.0084,-2.0108,0.0,0.0,0.0,0.0,0.0,0.0,0.0,0.0,0.0,0.0,0.0,0.0,0.0,0.0,0.0,0.0,0.0,0.0,0.0,0.0,0.0,0.0,0.0,0.0,0.0,0.0,0.0,0.0,0.0,0.0,0.0,0.0,0.0,0.0,0.0,0.0,0.0,0.0,0.0,0.0,0.0,0.0,0.0,0.0,0.0,0.0,0.0,0.0,0.0,0.0,0.0,0.0,0.0,0.0,0.0,0.0,0.0,0.0,0.0,0.0,0.0,0.0,0.0,0.0,0.0,0.0,0.0,0.0,0.0,0.0,0.0,0.0,0.0,0.0,0.0,0.0,0.0,0.0,0.0,0.0,0.0,0.0,0.0,0.0,0.0,0.0,0.0,0.0,0.0,0.0,0.0,0.0,0.0,0.0,0.0,0.0,0.0,0.0,0.0,0.0,0.0,0.0,0.0,0.0,0.0,0.0,0.0,0.0,-2.3011,-2.216,-2.231,-2.2633,-2.3017,-2.1555,-2.099,0.0,0.0,0.0,0.0,0.0,0.0,0.0,0.0,0.0,0.0,0.0,0.0,0.0,0.0,0.0,0.0,0.0,0.0,0.0,0.0,0.0,0.0,0.0,0.0,0.0,0.0,0.0,0.0,0.0,0.0,0.0,0.0,0.0,0.0,0.0,0.0,0.0,0.0,0.0,0.0,0.0,0.0,0.0,0.0,0.0,0.0,0.0,0.0,0.0,0.0,0.0,0.0,0.0,0.0,0.0,0.0,0.0,0.0,0.0,0.0,0.0,0.0,0.0,0.0,0.0,0.0,0.0,0.0,0.0,0.0,0.0,0.0,0.0,0.0,0.0,0.0,0.0,0.0,0.0,0.0,0.0,0.0,0.0,0.0,0.0,0.0,0.0,0.0,0.0,0.0,0.0,0.0,0.0,0.0,0.0,0.0,0.0,0.0,0.0,0.0,0.0,0.0,0.0,0.0,0.0,0.0,0.0,0.0,-2.3473,-2.2879,-2.2845,-2.3301,-2.4142,-2.2797,-2.2453,0.0,0.0,0.0,0.0,0.0,0.0,0.0,0.0,0.0,0.0,0.0,0.0,0.0,0.0,0.0,0.0,0.0,0.0,0.0,0.0,0.0,0.0,0.0,0.0,0.0,0.0,0.0,0.0,0.0,0.0,0.0,0.0,0.0,0.0,0.0,0.0,0.0,0.0,0.0,0.0,0.0,0.0,0.0,0.0,0.0,0.0,0.0,0.0,-2.068,0.0,0.0,0.0,0.0,0.0,0.0,0.0,0.0,0.0,0.0,0.0,0.0,0.0,0.0,0.0,0.0,0.0,0.0,0.0,0.0,0.0,0.0,0.0,0.0,0.0,0.0,0.0,0.0,0.0,0.0,0.0,0.0,0.0,0.0,0.0,0.0,0.0,0.0,0.0,0.0,0.0,0.0,0.0,0.0,0.0,0.0,0.0,0.0,0.0,0.0,0.0,0.0,0.0,0.0,0.0,0.0,0.0,0.0,0.0,-2.4216,-2.3357,-2.393,-2.4398,-2.4663,-2.4363,-2.4177,0.0,0.0,0.0,0.0,0.0,0.0,0.0,0.0,0.0,0.0,0.0,0.0,0.0,0.0,0.0,0.0,0.0,0.0,0.0,0.0,0.0,0.0,0.0,0.0,0.0,0.0,0.0,0.0,0.0,0.0,0.0,0.0,0.0,0.0,0.0,0.0,0.0,0.0,0.0,0.0,0.0,0.0,0.0,0.0,0.0,0.0,0.0,0.0,0.0,0.0,0.0,0.0,0.0,0.0,0.0,0.0,0.0,0.0,0.0,0.0,0.0,0.0,0.0,0.0,0.0,0.0,0.0,0.0,0.0,0.0,0.0,0.0,0.0,0.0,0.0,0.0,0.0,0.0,0.0,0.0,0.0,0.0,0.0,0.0,0.0,0.0,0.0,0.0,0.0,0.0,0.0,0.0,0.0,0.0,0.0,0.0,0.0,0.0,0.0,0.0,0.0,0.0,0.0,0.0,0.0,0.0,0.0,-2.5047,-2.4875,-2.3862,-2.5004,-2.554,-2.5375,-2.5908,-2.587,-2.5231,0.0,0.0,0.0,0.0,0.0,0.0,0.0,0.0,0.0,0.0,0.0,0.0,0.0,0.0,0.0,0.0,0.0,0.0,0.0,0.0,0.0,0.0,0.0,0.0,0.0,0.0,0.0,0.0,0.0,0.0,0.0,0.0,0.0,0.0,0.0,0.0,0.0,0.0,-2.4326,-2.2713,0.0,0.0,0.0,0.0,0.0,0.0,0.0,0.0,-2.3565,0.0,0.0,0.0,0.0,0.0,0.0,0.0,0.0,0.0,0.0,0.0,0.0,0.0,0.0,0.0,0.0,0.0,0.0,0.0,0.0,0.0,0.0,0.0,0.0,0.0,0.0,0.0,0.0,0.0,0.0,0.0,0.0,0.0,0.0,0.0,0.0,0.0,0.0,0.0,0.0,0.0,0.0,0.0,0.0,0.0,0.0,0.0,0.0,0.0,0.0,0.0,0.0,0.0,0.0,0.0,0.0,-2.5034,-2.5031,-2.495,-2.4842,-2.5315,-2.5981,-2.6828,-2.6907,-2.6894,-2.6795,0.0,0.0,0.0,0.0,0.0,0.0,0.0,0.0,0.0,0.0,0.0,0.0,0.0,0.0,0.0,0.0,0.0,0.0,0.0,0.0,0.0,0.0,0.0,0.0,0.0,0.0,0.0,0.0,0.0,0.0,0.0,0.0,0.0,0.0,0.0,0.0,0.0,0.0,0.0,-2.2343,-2.1908,0.0,0.0,0.0,0.0,0.0,0.0,0.0,0.0,-2.4755,0.0,0.0,0.0,0.0,0.0,0.0,0.0,0.0,0.0,0.0,0.0,0.0,0.0,0.0,0.0,0.0,0.0,0.0,0.0,0.0,0.0,0.0,0.0,0.0,0.0,0.0,0.0,0.0,0.0,0.0,0.0,0.0,0.0,0.0,0.0,0.0,0.0,0.0,0.0,0.0,0.0,0.0,0.0,0.0,0.0,0.0,0.0,0.0,0.0,0.0,0.0,0.0,0.0,0.0,0.0,-2.5803,-2.5721,-2.5692,-2.5656,-2.6356,-2.6944,-2.7417,-2.751,-2.746,0.0,0.0,0.0,0.0,0.0,0.0,0.0,0.0,0.0,0.0,0.0,0.0,0.0,0.0,0.0,0.0,0.0,0.0,0.0,0.0,0.0,0.0,0.0,0.0,0.0,0.0,0.0,0.0,0.0,0.0,0.0,0.0,0.0,0.0,0.0,0.0,0.0,0.0,0.0,0.0,-2.2639,-2.2445,-2.1672,0.0,0.0,0.0,0.0,0.0,0.0,-2.4366,-2.5619,0.0,0.0,0.0,0.0,0.0,0.0,0.0,0.0,0.0,0.0,0.0,0.0,0.0,0.0,0.0,0.0,0.0,0.0,0.0,0.0,0.0,0.0,0.0,0.0,0.0,0.0,0.0,0.0,0.0,0.0,0.0,0.0,0.0,0.0,0.0,0.0,0.0,0.0,0.0,0.0,0.0,0.0,0.0,0.0,0.0,0.0,0.0,0.0,0.0,0.0,0.0,0.0,0.0,0.0,0.0,-2.6655,-2.646,-2.6384,-2.643,-2.7258,-2.7704,-2.7819,-2.8002,-2.7922,0.0,0.0,0.0,0.0,0.0,0.0,0.0,0.0,0.0,0.0,0.0,0.0,0.0,0.0,0.0,0.0,0.0,0.0,0.0,0.0,0.0,0.0,0.0,0.0,0.0,0.0,0.0,0.0,0.0,0.0,0.0,0.0,0.0,0.0,0.0,0.0,0.0,0.0,0.0,0.0,0.0,-2.2932,-2.2634,-2.2455,0.0,0.0,0.0,0.0,-2.4455,-2.5491,0.0,0.0,0.0,0.0,0.0,0.0,0.0,0.0,0.0,0.0,0.0,0.0,0.0,0.0,0.0,0.0,0.0,0.0,0.0,0.0,0.0,0.0,0.0,0.0,0.0,0.0,0.0,0.0,0.0,0.0,0.0,0.0,0.0,0.0,0.0,0.0,0.0,0.0,0.0,0.0,0.0,0.0,0.0,0.0,0.0,0.0,0.0,0.0,0.0,0.0,0.0,0.0,0.0,0.0,0.0,0.0,-2.7843,-2.6942,-2.6711,-2.741,-2.752,-2.7903,-2.8481,-2.8376,-2.8052,0.0,0.0,0.0,0.0,0.0,0.0,0.0,0.0,0.0,0.0,0.0,0.0,0.0,0.0,0.0,0.0,0.0,0.0,0.0,0.0,0.0,0.0,0.0,0.0,0.0,0.0,0.0,0.0,0.0,0.0,0.0,0.0,0.0,0.0,0.0,0.0,0.0,0.0,0.0,0.0,0.0,-2.2971,-2.2552,-2.321,-2.3923,0.0,0.0,-2.4819,-2.6192,-2.6426,0.0,0.0,0.0,0.0,0.0,0.0,0.0,0.0,0.0,0.0,0.0,0.0,0.0,0.0,0.0,0.0,0.0,0.0,0.0,0.0,0.0,0.0,0.0,0.0,0.0,0.0,0.0,0.0,0.0,0.0,0.0,0.0,0.0,0.0,0.0,0.0,0.0,0.0,0.0,0.0,0.0,0.0,0.0,0.0,0.0,0.0,0.0,0.0,0.0,0.0,0.0,0.0,0.0,0.0,0.0,-2.7137,-2.793,-2.7248,-2.7308,-2.8123,-2.8175,-2.8439,-2.9082,-2.863,-2.8125,0.0,0.0,0.0,0.0,0.0,0.0,0.0,0.0,0.0,0.0,0.0,0.0,0.0,0.0,0.0,0.0,0.0,0.0,0.0,0.0,0.0,0.0,0.0,0.0,0.0,0.0,0.0,0.0,0.0,0.0,0.0,0.0,0.0,0.0,0.0,0.0,0.0,0.0,0.0,0.0,0.0,0.0,-2.3955,-2.4546,0.0,0.0,0.0,-2.6128,-2.7148,0.0,0.0,0.0,0.0,0.0,0.0,0.0,0.0,0.0,0.0,0.0,0.0,0.0,0.0,0.0,0.0,0.0,0.0,0.0,0.0,0.0,0.0,0.0,0.0,0.0,0.0,0.0,0.0,0.0,0.0,0.0,0.0,0.0,0.0,0.0,0.0,0.0,0.0,0.0,0.0,0.0,0.0,0.0,0.0,0.0,0.0,0.0,0.0,0.0,0.0,0.0,0.0,0.0,0.0,0.0,0.0,0.0,-2.8193,-2.7845,-2.8082,-2.8853,-2.8898,-2.9131,-2.9568,-2.8871,0.0,0.0,0.0,0.0,0.0,0.0,0.0,0.0,0.0,0.0,0.0,0.0,0.0,0.0,0.0,0.0,0.0,0.0,0.0,0.0,0.0,0.0,0.0,0.0,0.0,0.0,0.0,-2.6169,0.0,0.0,0.0,0.0,0.0,0.0,0.0,0.0,0.0,0.0,0.0,0.0,0.0,0.0,-2.4571,-2.5488,-2.5858,-2.6409,0.0,0.0,-2.7443,-2.8133,-2.8667,-2.9301,0.0,0.0,0.0,0.0,0.0,0.0,0.0,0.0,0.0,0.0,0.0,0.0,0.0,0.0,0.0,0.0,0.0,0.0,0.0,0.0,0.0,0.0,0.0,0.0,0.0,0.0,0.0,0.0,0.0,0.0,0.0,0.0,0.0,0.0,0.0,0.0,0.0,0.0,0.0,0.0,0.0,0.0,0.0,0.0,0.0,0.0,0.0,0.0,0.0,0.0,0.0,0.0,0.0,0.0,0.0,-2.9105,-2.8789,-2.8974,-2.9754,-2.9851,-2.9842,-2.9891,-2.9327,-2.8757,0.0,0.0,0.0,0.0,0.0,0.0,0.0,0.0,0.0,0.0,0.0,0.0,0.0,0.0,0.0,0.0,0.0,0.0,0.0,0.0,0.0,0.0,0.0,0.0,0.0,0.0,0.0,0.0,0.0,0.0,0.0,0.0,0.0,0.0,0.0,0.0,0.0,0.0,0.0,0.0,0.0,-2.507,-2.6407,-2.7165,-2.78,0.0,0.0,-2.8898,-2.9502,-2.9261,-2.9201,-2.9799,0.0,0.0,0.0,0.0,0.0,0.0,0.0,0.0,0.0,0.0,0.0,0.0,0.0,0.0,0.0,0.0,0.0,0.0,0.0,0.0,0.0,0.0,0.0,0.0,0.0,0.0,0.0,0.0,0.0,0.0,0.0,0.0,0.0,0.0,0.0,0.0,0.0,0.0,0.0,0.0,0.0,0.0,0.0,0.0,0.0,0.0,0.0,0.0,0.0,0.0,0.0,0.0,0.0,-2.813,-2.8848,-2.8766,-2.9079,-2.9884,-2.9922,-2.999,-3.0216,-2.9517,-2.8894,0.0,0.0,0.0,0.0,0.0,0.0,0.0,0.0,0.0,0.0,0.0,0.0,0.0,0.0,0.0,0.0,0.0,0.0,0.0,0.0,0.0,0.0,0.0,0.0,0.0,0.0,0.0,0.0,-2.4937,-2.5088,-2.5971,0.0,0.0,0.0,0.0,0.0,0.0,0.0,0.0,0.0,0.0,-2.6093,-2.7411,-2.8221,0.0,0.0,-2.9648,-2.9761,-3.0165,-3.0022,-2.9999,-3.0539,-2.9429,0.0,0.0,0.0,0.0,0.0,0.0,0.0,0.0,0.0,0.0,0.0,0.0,0.0,0.0,0.0,0.0,0.0,0.0,0.0,0.0,0.0,0.0,0.0,0.0,0.0,0.0,0.0,0.0,0.0,0.0,0.0,0.0,0.0,0.0,0.0,0.0,0.0,0.0,0.0,0.0,0.0,0.0,0.0,0.0,0.0,0.0,0.0,0.0,0.0,0.0,0.0,0.0,-2.8237,-2.8857,-2.903,-2.9536,-3.049,-3.045,-3.05,-3.0587,-2.9894,-2.939,0.0,0.0,0.0,0.0,0.0,0.0,0.0,0.0,0.0,0.0,0.0,0.0,0.0,0.0,0.0,0.0,0.0,0.0,0.0,0.0,0.0,0.0,0.0,0.0,0.0,0.0,0.0,0.0,-2.5214,-2.5414,-2.6435,0.0,0.0,0.0,0.0,0.0,0.0,0.0,0.0,0.0,0.0,-2.7089,-2.8508,-2.9269,-2.9842,-3.0356,-3.0321,-3.0263,-3.0377,-3.0151,-3.0074,-3.0199,0.0,0.0,0.0,0.0,0.0,0.0,0.0,0.0,0.0,0.0,0.0,0.0,0.0,0.0,0.0,0.0,0.0,0.0,0.0,0.0,0.0,0.0,0.0,0.0,0.0,0.0,0.0,0.0,0.0,0.0,-2.9168,0.0,0.0,0.0,0.0,0.0,0.0,0.0,0.0,0.0,0.0,0.0,0.0,0.0,0.0,0.0,0.0,0.0,0.0,0.0,0.0,0.0,0.0,-2.8379,-2.9459,-2.9799,-3.0555,-3.168,-3.173,-3.1509,-3.1077,-3.0691,-3.0255,-2.9858,0.0,0.0,0.0,0.0,0.0,0.0,0.0,0.0,0.0,0.0,0.0,0.0,0.0,0.0,0.0,0.0,0.0,0.0,0.0,0.0,0.0,0.0,0.0,0.0,0.0,0.0,-2.5989,-2.5593,-2.5633,0.0,0.0,0.0,0.0,0.0,0.0,0.0,0.0,0.0,0.0,-2.6938,-2.8006,-2.9703,-3.0287,-3.0642,-3.0978,-3.0732,-3.0335,-2.9998,-2.9479,-2.9016,0.0,0.0,0.0,0.0,0.0,0.0,0.0,0.0,0.0,0.0,0.0,0.0,0.0,0.0,0.0,0.0,0.0,0.0,0.0,0.0,0.0,0.0,0.0,0.0,0.0,0.0,0.0,-3.0613,-3.0231,0.0,0.0,0.0,0.0,0.0,0.0,0.0,0.0,0.0,0.0,0.0,-3.1058,-3.2155,0.0,0.0,0.0,0.0,0.0,0.0,0.0,0.0,0.0,0.0,0.0,0.0,-2.8829,-2.9363,-3.0191,-3.0878,-3.1461,-3.1769,-3.1809,-3.1512,-3.1068,-3.0664,-3.0342,0.0,0.0,0.0,0.0,0.0,0.0,0.0,0.0,0.0,0.0,0.0,0.0,0.0,0.0,0.0,0.0,0.0,0.0,0.0,0.0,0.0,0.0,0.0,0.0,0.0,-2.6754,0.0,0.0,0.0,0.0,0.0,0.0,0.0,0.0,0.0,0.0,0.0,-2.5397,-2.6409,-2.734,-2.8332,-2.9355,-2.9768,-3.003,0.0,0.0,0.0,0.0,0.0,0.0,0.0,0.0,0.0,0.0,0.0,0.0,0.0,0.0,-2.8301,-2.8301,-2.8184,-2.7998,-2.7705,0.0,0.0,0.0,0.0,0.0,0.0,0.0,0.0,0.0,0.0,0.0,0.0,0.0,0.0,-3.1622,0.0,-3.079,0.0,0.0,0.0,0.0,0.0,0.0,0.0,0.0,-3.1428,-3.2096,-3.2885,-3.3945,-3.4762,0.0,-3.5646,-3.451,0.0,0.0,0.0,0.0,0.0,0.0,0.0,0.0,-2.932,-3.0074,-3.0766,-3.1381,-3.1993,-3.2344,-3.2379,-3.2169,-3.1642,-3.124,-3.1024,-3.1182,-3.1357,0.0,0.0,0.0,0.0,0.0,0.0,0.0,0.0,0.0,0.0,0.0,0.0,0.0,0.0,0.0,0.0,0.0,0.0,0.0,0.0,0.0,0.0,0.0,-2.6878,0.0,0.0,0.0,0.0,0.0,0.0,0.0,0.0,0.0,-2.5845,-2.589,-2.6365,-2.7138,-2.7901,-2.8559,-2.925,0.0,0.0,0.0,0.0,0.0,0.0,0.0,-2.8799,-2.9082,-2.8662,-2.8301,-2.8301,-2.8066,-2.8057,-2.8613,0.0,0.0,-2.8301,-2.8301,-2.8203,-2.79,-2.7969,-2.8055,-2.8018,-2.798,-2.8003,0.0,0.0,0.0,0.0,0.0,0.0,0.0,0.0,-3.2696,-3.2509,0.0,-3.2045,0.0,0.0,0.0,0.0,0.0,-3.2462,0.0,0.0,-3.3033,-3.3843,-3.4221,-3.5252,-3.5852,-3.6222,-3.7034,-3.6677,-3.5393,-3.4366,0.0,0.0,0.0,0.0,0.0,0.0,-2.9909,-3.1513,-3.1567,-3.2135,-3.3303,-3.3411,-3.3349,-3.3086,-3.2447,-3.2042,-3.2029,-3.157,-3.1484,-3.194,-3.1963,0.0,0.0,0.0,0.0,0.0,0.0,0.0,0.0,0.0,0.0,0.0,0.0,0.0,0.0,0.0,0.0,0.0,0.0,0.0,0.0,-2.6853,0.0,0.0,0.0,0.0,0.0,0.0,0.0,0.0,0.0,0.0,-2.7385,-2.7089,-2.7332,-2.8372,0.0,0.0,0.0,0.0,-2.9577,-2.9531,-2.917,-2.8896,-2.8896,-2.8564,-2.8301,-2.831,0.0,0.0,-2.8301,-2.8291,-2.8291,-2.8301,-2.831,-2.8291,-2.8262,-2.8271,-2.8047,-2.7305,-2.748,-2.7737,-2.7812,-2.7884,-2.7986,-3.5375,0.0,0.0,0.0,0.0,-3.3525,-3.3346,-3.2987,-3.3491,-3.3576,-3.3326,-3.3061,0.0,0.0,0.0,0.0,0.0,0.0,-3.2705,-3.3445,-3.4325,-3.507,-3.5815,-3.7028,-3.7899,-3.8396,-3.8814,-3.8641,-3.7842,-3.6912,-3.5042,-3.2312,0.0,0.0,0.0,0.0,-3.1246,-3.1955,-3.2559,-3.3059,-3.3288,-3.3629,-3.3714,-3.3465,-3.3264,-3.3065,-3.2875,-3.2666,-3.2365,-3.1951,-3.205,0.0,0.0,0.0,0.0,0.0,0.0,0.0,0.0,0.0,0.0,0.0,0.0,0.0,0.0,0.0,0.0,0.0,0.0,0.0,-2.7786,-2.7776,-2.8001,0.0,0.0,0.0,0.0,0.0,0.0,0.0,0.0,0.0,-2.8993,-2.8476,-2.8203,0.0,0.0,-2.8417,-2.8643,-2.8662,-2.8662,-2.8652,-2.8555,0.0,-2.8467,-2.8369,-2.8301,-2.8301,-2.8301,-2.8301,-2.8301,-2.8301,-2.8301,-2.8291,-2.8301,-2.8203,-2.792,-2.8096,-2.8174,-2.7988,-2.8027,-2.818,-2.8294,-2.8297,-2.834,-3.6531,-3.6158,-3.5112,-3.4498,-3.4306,-3.4294,-3.4186,-3.3921,-3.4174,-3.4186,-3.3982,-3.3717,-3.3585,-3.3573,-3.3477,0.0,0.0,0.0,-3.3479,-3.4111,-3.4978,-3.5838,-3.6804,-3.779,-3.8665,-3.9453,-3.9633,-3.9408,-3.8856,-3.8029,-3.637,-3.3981,0.0,0.0,-3.2568,-3.2402,-3.2607,-3.3168,-3.36,-3.3873,-3.4003,-3.4445,-3.4461,-3.4087,-3.3863,-3.3617,-3.3314,-3.2884,-3.2544,-3.2366,-3.2043,-3.1989,0.0,0.0,0.0,0.0,0.0,0.0,0.0,0.0,0.0,0.0,0.0,-3.1761,-3.0859,0.0,0.0,0.0,-2.8019,-2.7852,-2.8126,-2.829,0.0,0.0,0.0,0.0,0.0,0.0,0.0,-2.9032,-2.928,-2.9467,-2.9476,-2.9037,-2.8697,-2.8485,-2.8451,-2.8398,-2.8344,0.0,-2.8232,-2.8076,-2.8037,-2.7988,-2.7812,-2.7783,-2.7783,-2.7783,-2.7783,-2.7783,-2.7783,-2.7783,-2.7783,-2.7793,-2.7783,-2.7705,-2.7451,-2.7617,-2.7783,-2.7783,-2.7783,-2.7904,-2.8164,-2.8216,-2.8249,-3.7252,-3.7168,-3.6218,-3.5473,-3.4907,-3.4907,-3.4883,-3.4835,-3.4847,-3.4534,-3.4066,-3.4066,-3.4042,-3.4018,-3.445,0.0,-3.4018,-3.451,-3.4462,-3.4114,-3.51,-3.6186,-3.7306,-3.7755,-3.8592,-3.9697,-3.9697,-3.9383,-3.8793,-3.7954,-3.7033,-3.5953,-3.4757,-3.423,-3.4373,-3.3792,-3.3946,-3.4811,-3.4605,-3.4751,-3.5235,-3.5464,-3.5375,-3.4895,-3.4354,-3.3917,-3.3561,-3.2562,-3.2317,-3.2943,-3.1964,-3.165,-3.2164,0.0,0.0,0.0,0.0,0.0,0.0,0.0,0.0,0.0,0.0,0.0,0.0,0.0,0.0,0.0,-2.8488,0.0,-2.8542,-2.8542,0.0,0.0,0.0,-2.8551,-2.8883,-2.8715,-2.8556,-2.8566,0.0,0.0,-2.9197,-2.9055,-2.8806,-2.8684,-2.8658,-2.8572,-2.8295,-2.8237,-2.81,-2.7708,-2.7617,-2.7471,-2.7168,-2.709,-2.71,-2.709,-2.7012,-2.706,-2.706,-2.706,-2.7031,-2.7002,-2.6973,-2.6914,-2.6875,-2.6816,-2.6855,-2.6777,-2.6894,-2.7116,-2.7542,-2.7623,-2.7591,-3.7793,-3.7769,-3.7529,-3.6879,-3.6038,-3.6038,-3.5797,-3.5437,-3.5425,-3.5136,-3.4595,-3.4643,-3.4366,-3.3982,-3.3765,-3.3789,-3.4006,-3.4126,-3.433,-3.4643,-3.5066,-3.6039,-3.7294,-3.7543,-3.8391,-3.9647,-3.9697,-3.917,-3.8216,-3.7602,-3.6726,-3.5628,-3.4915,-3.4622,-3.4715,-3.4929,-3.5198,-3.5416,-3.5368,-3.5368,-3.5524,-3.5572,-3.5559,-3.5436,-3.5095,-3.4644,-3.4107,-3.3271,-3.2687,-3.2428,-3.1763,-3.1637,-3.2177,-3.2202,0.0,0.0,0.0,0.0,0.0,0.0,0.0,0.0,0.0,-3.1395,-3.0656,0.0,-2.9554,0.0,-2.9117,-2.9457,-3.0012,-3.0057,0.0,0.0,-2.96,-2.9005,-2.853,-2.8394,-2.8296,-2.809,-2.84,-2.8659,-2.8763,-2.8733,-2.8583,-2.834,-2.8448,-2.8431,-2.8212,-2.7811,-2.7533,-2.7249,-2.7158,-2.7139,-2.6992,-2.7012,-2.6963,-2.7012,-2.6992,-2.7012,-2.7002,-2.7012,-2.6914,-2.6621,-2.6543,-2.6289,-2.5674,-2.5527,-2.54,-2.5195,-2.582,-2.6575,-2.6791,-2.6557,-2.6327,-3.7974,-3.7974,-3.7974,-3.7637,-3.7084,-3.6855,-3.6459,-3.5966,-3.5725,-3.5267,-3.4775,-3.4775,-3.4667,-3.433,-3.4114,-3.4066,-3.4342,-3.4342,-3.4498,-3.4823,-3.5078,-3.5771,-3.6762,-3.7085,-3.7792,-3.8767,-3.8893,-3.8492,-3.7651,-3.7086,-3.6257,-3.5144,-3.4818,-3.4615,-3.4429,-3.495,-3.5223,-3.5177,-3.5412,-3.5548,-3.5536,-3.5536,-3.5424,-3.5223,-3.503,-3.4811,-3.4487,-3.3796,-3.3282,-3.2968,-3.219,-3.1901,-3.219,-3.2202,-3.2353,0.0,0.0,0.0,0.0,0.0,0.0,0.0,0.0,0.0,0.0,0.0,-2.9954,-2.9274,-2.9466,-2.9726,-2.9873,-3.0125,-3.0182,-3.0027,-2.9606,-2.9103,-2.8593,-2.8211,-2.7923,-2.7769,-2.79,-2.809,-2.8276,-2.8317,-2.8291,-2.8397,-2.8308,-2.8158,-2.7973,-2.764,-2.7289,-2.695,-2.6622,-2.6239,-2.5937,-2.5859,-2.585,-2.5859,-2.5859,-2.5859,-2.5859,-2.5859,-2.5771,-2.5566,-2.5508,-2.5371,-2.4883,-2.4775,-2.4687,-2.458,-2.4834,-2.5308,-2.5677,-2.5628,-2.5589,-3.7974,-3.7974,-3.7974,-3.7974,-3.795,-3.7421,-3.6892,-3.6374,-3.5857,-3.5316,-3.4775,-3.4775,-3.4775,-3.4775,-3.4775,-3.4775,-3.4775,-3.4775,-3.4775,-3.4823,-3.503,-3.5466,-3.6099,-3.6554,-3.7059,-3.7581,-3.7779,-3.7588,-3.6973,-3.642,-3.5592,-3.455,-3.4525,-3.4274,-3.3847,-3.4274,-3.4587,-3.468,-3.5157,-3.5395,-3.5395,-3.5395,-3.5194,-3.4806,-3.4718,-3.468,-3.4668,-3.4123,-3.3796,-3.3759,-3.2792,-3.224,-3.2315,-3.2315,-3.2328,0.0,-3.2729,0.0,0.0,0.0,0.0,0.0,0.0,0.0,0.0,-3.0695,-3.0227,-2.9533,-2.9706,-2.9662,-2.9219,-2.9581,-2.9706,-2.9378,-2.9128,-2.8894,-2.8617,-2.7968,-2.75,-2.7416,-2.7275,-2.7278,-2.7562,-2.7665,-2.7821,-2.7999,-2.7782,-2.7554,-2.755,-2.7332,-2.7003,-2.6616,-2.5957,-2.5284,-2.4736,-2.4512,-2.4512,-2.4473,-2.4551,-2.4424,-2.4521,-2.4502,-2.4434,-2.4375,-2.445,-2.4382,-2.4323,-2.4284,-2.433,-2.4291,-2.4085,-2.4081,-2.4578,-2.4891,-2.5098,-3.7974,-3.7974,-3.7974,-3.7974,-3.7938,-3.7409,-3.6892,-3.6374,-3.5845,-3.5328,-3.4787,-3.4775,-3.4775,-3.4775,-3.4775,-3.4775,-3.4775,-3.4775,-3.4775,-3.4775,-3.4823,-3.532,-3.6087,-3.637,-3.6887,-3.7543,-3.7465,-3.6835,-3.5809,-3.5257,-3.4474,-3.342,-3.3382,-3.3345,-3.3244,0.0,0.0,0.0,-3.4826,-3.4831,-3.4843,-3.4876,-3.5006,-3.532,-3.4906,0.0,-3.4655,-3.3759,-3.3219,-3.3206,-3.2579,0.0,0.0,0.0,0.0,0.0,0.0,0.0,0.0,0.0,0.0,0.0,-3.1048,-3.0907,-3.1105,-3.0529,-3.0048,-2.991,-3.0145,-3.0236,-3.014,-3.0031,-2.974,-2.9152,-2.8724,-2.8309,-2.7677,-2.7308,-2.6937,-2.6498,-2.6417,-2.6358,-2.6345,-2.6268,-2.632,-2.6475,-2.633,-2.6253,-2.6275,-2.6411,-2.6148,-2.5341,-2.4896,-2.4639,-2.4443,-2.4385,-2.4336,-2.4424,-2.4424,-2.4394,-2.4375,-2.4385,-2.4268,-2.3994,-2.4042,-2.4048,-2.3742,-2.3785,-2.3923,-2.3917,-2.3726,-2.3663,-2.4113,-2.4157,-2.4136,-3.7974,0.0,-3.7974,-3.7829,0.0,-3.7024,-3.6507,-3.599,-3.5737,-3.5328,-3.4775,-3.4775,-3.4775,-3.4775,-3.4775,-3.4775,-3.4775,-3.4775,-3.4775,-3.4775,-3.4775,-3.5028,-3.5441,-3.5563,-3.5816,-3.6183,-3.6031,-3.5542,-3.4705,-3.4449,-3.3897,-3.3136,-3.3124,-3.3124,-3.3124,-3.3124,-3.3483,-3.4299,-3.4311,-3.4311,-3.4311,-3.4311,-3.4449,-3.4713,-3.4462,0.0,0.0,0.0,0.0,0.0,0.0,0.0,0.0,-3.239,0.0,-3.2282,-3.1976,-3.18,-3.18,-3.1467,-3.1235,-3.1248,-3.0863,-3.0758,-3.0954,-3.0554,-3.0245,-2.999,-3.006,-3.0004,-2.9654,-2.9726,-2.9582,-2.9021,-2.8788,-2.8464,-2.7942,-2.7425,-2.6972,-2.6481,-2.6291,-2.61,-2.593,-2.593,-2.593,-2.593,-2.593,-2.5782,-2.5602,-2.5731,-2.5477,-2.46,-2.4248,-2.4023,-2.3828,-2.3734,-2.3754,-2.3734,-2.3744,-2.3734,-2.3779,-2.3789,-2.3711,-2.3649,-2.3742,-2.3731,-2.3694,-2.3754,-2.3797,-2.3797,-2.3711,-2.3684,-2.3781,-2.374,-2.3677,-3.7974,-3.7974,-3.7974,-3.7673,-3.7156,-3.6627,-3.605,-3.5485,0.0,0.0,0.0,-3.4775,-3.4775,-3.4775,-3.4775,-3.4775,-3.4775,-3.4775,-3.4775,-3.4775,-3.4775,-3.4727,-3.4667,-3.4782,-3.476,-3.4637,-3.4578,-3.4349,-3.3897,-3.3809,-3.352,-3.3162,-3.3124,-3.3124,-3.3124,-3.3124,-3.3294,-3.3721,-3.3746,-3.3759,-3.3759,-3.3759,-3.3759,-3.3759,-3.3658,-3.3809,-3.4248,-3.3746,-3.3458,-3.3432,-3.2566,-3.2064,-3.2051,-3.1637,-3.1386,-3.1386,-3.1298,-3.1248,-3.1248,-3.116,-3.111,-3.111,-3.0708,-3.0446,-3.0474,-3.0499,-3.0367,-2.9871,-2.9834,-2.961,-2.8931,-2.922,-2.931,-2.8821,-2.8785,-2.8649,-2.818,-2.7587,-2.6966,-2.6536,-2.6174,-2.5949,-2.5729,-2.564,-2.5637,-2.5637,-2.5575,-2.5533,-2.521,-2.5132,-2.4921,-2.4232,-2.385,-2.3555,-2.3218,-2.314,-2.3101,-2.3169,-2.314,-2.3101,-2.3101,-2.3101,-2.3178,-2.3499,-2.3503,-2.3644,-2.3807,-2.3927,-2.3937,-2.3937,-2.3884,-2.3797,-2.3634,-2.3503,-2.3493,-3.7974,-3.7974,-3.7974,-3.7673,-3.7156,-3.6627,-3.5845,-3.4956,-3.4944,-3.4847,-3.4775,-3.4775,-3.4775,-3.4775,-3.4775,-3.4775,-3.4775,-3.4775,-3.4775,-3.4775,-3.4775,-3.4534,-3.415,-3.4611,-3.4563,-3.4142,-3.405,-3.3972,-3.3859,-3.3463,-3.3187,-3.3136,-3.3124,-3.3124,-3.3124,-3.3124,-3.3149,-3.3194,-3.3237,-3.3194,-3.3194,-3.3194,-3.3194,-3.3169,-3.2704,-3.2478,-3.2511,-3.2051,-3.1738,-3.1738,-3.1587,-3.1512,-3.1499,-3.1424,-3.1386,-3.1361,-3.0972,-3.0721,-3.0708,-3.0281,-3.0018,-3.0018,-2.9955,-2.9813,-2.9603,-2.981,-2.9772,-2.9516,-2.9671,-2.9594,-2.9131,-2.9126,-2.8961,-2.843,-2.8179,-2.7889,-2.7502,-2.7005,-2.6526,-2.6126,-2.5615,-2.5295,-2.5102,-2.4876,-2.4757,-2.4693,-2.4726,-2.4652,-2.4547,-2.4285,-2.4002,-2.3821,-2.3451,-2.3203,-2.311,-2.3101,-2.3101,-2.3101,-2.3101,-2.3101,-2.3101,-2.3101,-2.3178,-2.345,-2.3634,-2.3851,-2.4067,-2.4282,-2.4325,-2.4368,-2.4239,-2.4024,-2.3807,-2.359,-2.3493,-3.7974,-3.7974,-3.7974,-3.7505,-3.6699,-3.5893,-3.5292,-3.4787,-3.4775,-3.4775,-3.4775,-3.4775,-3.4775,-3.4775,-3.4775,-3.4775,-3.4775,-3.4775,-3.4775,-3.4751,-3.4523,-3.4222,-3.3994,-3.393,-3.3814,-3.3588,-3.3501,-3.3458,-3.3432,-3.3237,-3.3124,-3.3124,-3.3124,-3.3124,-3.3124,-3.3124,-3.3124,-3.3124,-3.3124,-3.2918,-3.2616,-3.2604,-3.2466,-3.2219,-3.1888,-3.1763,-3.1763,-3.1524,-3.1386,-3.1386,-3.1122,-3.0972,-3.0959,-3.0683,-3.052,-3.052,-3.0306,-3.0168,-3.0181,-2.993,-2.9779,-2.9779,-2.9779,-2.974,-2.965,-2.974,-2.974,-2.9599,-2.974,-2.9663,-2.9275,-2.9157,-2.8934,-2.8566,-2.8259,-2.795,-2.7574,-2.7156,-2.6693,-2.629,-2.5843,-2.5399,-2.488,-2.4546,-2.4221,-2.3992,-2.3888,-2.3826,-2.3774,-2.3398,-2.3275,-2.3644,-2.3406,-2.3144,-2.3091,-2.3101,-2.3101,-2.3101,-2.3101,-2.3101,-2.3101,-2.3101,-2.3276,-2.359,-2.3754,-2.3937,-2.4292,-2.4454,-2.4497,-2.4497,-2.4325,-2.411,-2.3841,-2.3537,-2.3363,-3.7974,-3.7974,-3.7853,-3.7192,-3.6158,-3.522,-3.4775,-3.4775,-3.4775,-3.4775,-3.4775,-3.4775,-3.4775,-3.4775,-3.4775,-3.4775,-3.4775,-3.4775,-3.4763,-3.4558,-3.4186,-3.3874,-3.3633,-3.3296,-3.3138,-3.3034,-3.3052,-3.3124,-3.3124,-3.3124,-3.3124,-3.3124,-3.3124,-3.3124,-3.3124,-3.3124,-3.3124,-3.3111,-3.2943,-3.2654,-3.2227,-3.2102,-3.1775,-3.126,-3.1223,-3.116,-3.1047,-3.1035,-3.1022,-3.1009,-3.0658,-3.0432,-3.0419,-3.003,-2.9779,-2.9779,-2.9779,-2.9779,-2.9779,-2.9779,-2.9779,-2.9779,-2.9779,-2.9779,-2.9779,-2.9779,-2.9779,-2.9779,-2.9779,-2.9702,-2.9431,-2.9275,-2.9079,-2.8882,-2.8526,-2.8187,-2.7877,-2.744,-2.6955,-2.6441,-2.5969,-2.5412,-2.4884,-2.439,-2.3957,-2.3511,-2.3305,-2.3184,-2.3143,-2.2778,-2.2845,-2.316,-2.311,-2.2871,-2.2916,-2.2945,-2.2974,-2.3052,-2.3101,-2.3101,-2.3101,-2.3101,-2.3276,-2.3667,-2.3797,-2.397,-2.4368,-2.4507,-2.4454,-2.4411,-2.4292,-2.411,-2.3764,-2.3406,-2.3188,-3.7974,-3.7902,-3.7481,-3.6663,-3.5677,-3.5027,-3.4775,-3.4775,-3.4775,-3.4775,-3.4775,-3.4775,-3.4775,-3.4775,-3.4775,-3.4775,-3.4775,-3.4775,-3.451,-3.4114,-3.4018,-3.3514,-3.2789,-3.3024,-3.2941,-3.2579,-3.289,-3.3124,-3.3124,-3.3124,-3.3124,-3.3124,-3.3124,-3.3124,-3.3124,-3.3124,-3.3124,-3.3111,-3.2554,-3.2277,-3.219,-3.1712,-3.1223,-3.0696,-3.0683,-3.0457,-3.003,-2.9942,-2.9942,-2.9942,-2.9917,-2.988,-2.9867,-2.9804,-2.9779,-2.9779,-2.9779,-2.9779,-2.9779,-2.9779,-2.9779,-2.9779,-2.9779,-2.9779,-2.9779,-2.9779,-2.9779,-2.9779,-2.9779,-2.9702,-2.947,-2.938,-2.9263,-2.9079,-2.8846,-2.8464,-2.7843,-2.7348,-2.6808,-2.6059,-2.5593,-2.5004,-2.4757,-2.4198,-2.3627,-2.318,-2.3058,-2.3018,-2.2988,-2.2666,-2.2402,-2.2511,-2.2282,-2.222,-2.2441,-2.2568,-2.2685,-2.2945,-2.3062,-2.3003,-2.2955,-2.3047,-2.3222,-2.3537,-2.3797,-2.397,-2.4325,-2.4507,-2.4411,-2.4325,-2.4206,-2.4067,-2.3634,-2.3319,-2.3135,-3.7974,-3.7926,-3.7409,-3.6579,-3.5605,-3.5015,-3.4775,-3.4775,-3.4775,-3.4775,-3.4775,-3.4775,-3.4775,-3.4775,-3.4775,-3.4775,-3.4751,-3.4462,-3.421,-3.3934,-3.3382,-3.2887,-3.2548,-3.2645,-3.2584,-3.2456,-3.2853,-3.3124,-3.3124,-3.3124,-3.3124,-3.3124,-3.3124,-3.3124,-3.3124,-3.3124,-3.3124,-3.3099,-3.2503,-3.2051,-3.1712,-3.121,-3.0683,-3.0193,-3.0131,-3.0043,-2.9829,-2.9779,-2.9779,-2.9779,-2.9779,-2.9779,-2.9779,-2.9779,-2.9779,-2.9779,-2.9779,-2.9779,-2.9779,-2.9779,-2.9779,-2.9779,-2.9779,-2.9779,-2.9779,-2.9779,-2.9779,-2.9779,-2.9779,-2.974,-2.965,-2.9509,-2.9392,-2.9225,-2.8809,-2.836,-2.81,-2.7428,-2.6835,-2.6482,-2.5912,-2.529,-2.475,-2.3831,-2.3047,-2.2639,-2.2455,-2.2418,-2.2348,-2.2014,-2.1788,-2.1669,-2.1382,-2.1456,-2.1963,-2.2139,-2.2236,-2.2353,-2.2402,-2.2402,-2.2461,-2.2646,-2.2893,-2.3383,-2.3617,-2.394,-2.4411,-2.4507,-2.4454,-2.4335,-2.4067,-2.3807,-2.3363,-2.3188,-2.3091,-3.7769,-3.7637,-3.6892,-3.6098,-3.5376,-3.4787,-3.4643,-3.4775,-3.4775,-3.4775,-3.4775,-3.4775,-3.4775,-3.4775,-3.4775,-3.4775,-3.4703,-3.4234,-3.391,-3.3706,-3.2911,-3.2418,-3.2385,-3.2421,-3.2431,-3.2519,-3.2909,-3.3124,-3.3124,-3.3124,-3.3124,-3.3124,-3.3124,-3.3124,-3.3124,-3.3124,-3.3124,-3.3061,-3.2503,-3.1938,-3.1411,-3.0884,-3.0357,-2.9854,-2.9779,-2.9779,-2.9779,-2.9779,-2.9779,-2.9779,-2.9779,-2.9779,-2.9779,-2.9779,-2.9716,-2.9578,-2.9553,-2.9553,-2.9553,-2.9704,-2.9779,-2.9779,-2.9779,-2.9779,-2.9779,-2.9779,-2.9779,-2.9779,-2.9779,-2.9779,-2.9779,-2.9638,-2.9459,-2.9246,-2.872,-2.8322,-2.7914,-2.7248,-2.6758,-2.6526,-2.5889,-2.533,-2.449,-2.344,-2.2628,-2.2201,-2.1953,-2.1807,-2.1731,-2.1504,-2.1245,-2.1177,-2.0858,-2.0938,-2.1543,-2.1709,-2.1728,-2.1885,-2.1953,-2.1963,-2.1936,-2.2187,-2.2588,-2.313,-2.3433,-2.3849,-2.4348,-2.4507,-2.4464,-2.4325,-2.411,-2.3764,-2.345,-2.3319,-2.3309,-3.7228,-3.6988,-3.5519,-3.4895,-3.4823,-3.427,-3.433,-3.4775,-3.4775,-3.4775,-3.4775,-3.4775,-3.4775,-3.4775,-3.4775,-3.4775,-3.4691,-3.4198,-3.3741,-3.3296,-3.2731,-3.2349,-3.2042,-3.2269,-3.2519,-3.268,-3.2939,-3.3124,-3.3124,-3.3124,-3.3124,-3.3124,-3.3124,-3.3124,-3.3124,-3.3124,-3.3124,-3.3061,-3.2554,-3.1964,-3.1411,-3.0884,-3.0394,-2.9854,-2.9779,-2.9779,-2.9779,-2.9779,-2.9779,-2.9779,-2.9779,-2.9779,-2.9779,-2.9767,-2.9528,-2.9076,-2.8938,-2.8976,-2.9001,-2.9415,-2.9691,-2.9729,-2.9691,-2.9767,-2.9716,-2.9767,-2.9779,-2.9779,-2.9741,-2.9729,-2.9729,-2.964,-2.9452,-2.895,-2.8674,-2.8077,-2.7207,-2.6917,-2.6393,-2.585,-2.5385,-2.4725,-2.3623,-2.2975,-2.259,-2.2214,-2.1911,-2.1807,-2.1731,-2.1436,-2.1254,-2.1138,-2.0916,-2.0732,-2.1122,-2.122,-2.1445,-2.1562,-2.1642,-2.1828,-2.1906,-2.2036,-2.2441,-2.2868,-2.3185,-2.3618,-2.4245,-2.4464,-2.4421,-2.4282,-2.4067,-2.3797,-2.3624,-2.3711,-2.3661,-3.6086,-3.5136,-3.4522,-3.4282,-3.4258,-3.4066,-3.4282,-3.4751,-3.4775,-3.4775,-3.4775,-3.4775,-3.4775,-3.4775,-3.4775,-3.4595,-3.4246,-3.3789,-3.3272,-3.2767,-3.2226,-3.1999,-3.2018,-3.23,-3.2519,-3.2723,-3.2982,-3.3124,-3.3124,-3.3124,-3.3124,-3.3124,-3.3124,-3.3124,-3.3124,-3.3124,-3.3124,-3.3099,-3.2867,-3.2328,-3.1461,-3.1198,-3.0708,-2.9854,-2.9779,-2.9779,-2.9779,-2.9779,-2.9779,-2.9779,-2.9779,-2.9779,-2.9754,-2.944,-2.9126,-2.8888,-2.8599,-2.8398,-2.8423,-2.8586,-2.8712,-2.8737,-2.9051,-2.9214,-2.9302,-2.9566,-2.9779,-2.9729,-2.9415,-2.9226,-2.9239,-2.9239,-2.9013,-2.8449,-2.8011,-2.7649,-2.7189,-2.671,-2.6225,-2.5807,-2.5253,-2.4586,-2.3959,-2.3409,-2.2889,-2.2402,-2.2101,-2.1883,-2.1617,-2.1359,-2.1167,-2.1012,-2.077,-2.0654,-2.0742,-2.081,-2.0909,-2.0987,-2.1055,-2.1065,-2.1124,-2.1377,-2.1755,-2.255,-2.2895,-2.3497,-2.4173,-2.4507,-2.4421,-2.4292,-2.4067,-2.397,-2.3841,-2.3867,-2.3702,-3.5076,-3.3909,-3.3801,-3.3838,-3.3994,-3.3994,-3.4294,-3.4751,-3.4775,-3.4775,-3.4775,-3.4775,-3.4775,-3.4775,-3.4775,-3.439,-3.3766,-3.3428,-3.3008,-3.2478,-3.197,-3.1849,-3.2125,-3.2313,-3.2562,-3.281,-3.3025,-3.3124,-3.3124,-3.3124,-3.3124,-3.3124,-3.3124,-3.3124,-3.3124,-3.3124,-3.3124,-3.3056,-3.2905,-3.2315,-3.1486,-3.1223,-3.0721,-2.9942,-2.9779,-2.9779,-2.9779,-2.9779,-2.9779,-2.9779,-2.9779,-2.9779,-2.9729,-2.9076,-2.8624,-2.8624,-2.8147,-2.7833,-2.7871,-2.8009,-2.8122,-2.8122,-2.8436,-2.8675,-2.8875,-2.9289,-2.9465,-2.9415,-2.9151,-2.8813,-2.8473,-2.8386,-2.8198,-2.7871,-2.7507,-2.7205,-2.7017,-2.6599,-2.6191,-2.5805,-2.5265,-2.4694,-2.4164,-2.3567,-2.2964,-2.2365,-2.2063,-2.1769,-2.1464,-2.1244,-2.1061,-2.0896,-2.0731,-2.0605,-2.0674,-2.0703,-2.0703,-2.0752,-2.0781,-2.0664,-2.0664,-2.0889,-2.1351,-2.214,-2.2858,-2.3511,-2.3995,-2.4382,-2.4421,-2.4292,-2.4282,-2.4229,-2.4082,-2.3904,-2.3744,-3.4198,-3.3296,-3.3272,-3.3489,-3.3814,-3.3898,-3.4258,-3.4655,-3.4775,-3.4751,-3.4679,-3.4691,-3.4619,-3.4679,-3.4463,-3.4114,-3.3248,-3.3032,-3.2815,-3.2382,-3.1901,-3.1937,-3.23,-3.2356,-3.2649,-3.3038,-3.3124,-3.3124,-3.3124,-3.3124,-3.3124,-3.3124,-3.3124,-3.3124,-3.3124,-3.3124,-3.3124,-3.3023,-3.2579,-3.1989,-3.1399,-3.0934,-3.0407,-2.9854,-2.9779,-2.9779,-2.9779,-2.9779,-2.9779,-2.9779,-2.9779,-2.9779,-2.9641,-2.8775,-2.8147,-2.8084,-2.7607,-2.7306,-2.7366,-2.7708,-2.7908,-2.7934,-2.8059,-2.831,-2.8737,-2.89,-2.8976,-2.8988,-2.885,-2.8511,-2.762,-2.7381,-2.7344,-2.7281,-2.7228,-2.7027,-2.6675,-2.6512,-2.628,-2.5723,-2.5241,-2.4707,-2.4032,-2.3446,-2.2879,-2.2289,-2.1845,-2.155,-2.1282,-2.1089,-2.0945,-2.0858,-2.0731,-2.0615,-2.0615,-2.0615,-2.0615,-2.0625,-2.0644,-2.0615,-2.0615,-2.0791,-2.1165,-2.192,-2.2828,-2.3483,-2.3998,-2.4342,-2.4487,-2.4421,-2.4454,-2.4392,-2.4152,-2.3956,-2.3783,-3.2815,-3.2247,-3.2211,-3.2478,-3.3008,-3.3368,-3.3813,-3.4258,-3.4607,-3.457,-3.4222,-3.3921,-3.3573,-3.3188,-3.2827,-3.2298,-3.1693,-3.1681,-3.1765,-3.1853,-3.1765,-3.1825,-3.2113,-3.23,-3.2661,-3.3038,-3.3124,-3.3124,-3.3124,-3.3124,-3.3124,-3.3124,-3.3124,-3.3124,-3.3124,-3.3124,-3.3124,-3.3048,-3.2503,-3.1938,-3.1411,-3.0884,-3.0357,-2.9867,-2.9779,-2.9779,-2.9779,-2.9779,-2.9779,-2.9779,-2.9779,-2.9779,-2.9591,-2.8725,-2.8147,-2.8009,-2.7205,-2.6751,-2.6776,-2.6914,-2.7042,-2.7102,-2.7366,-2.7783,-2.8323,-2.8725,-2.8863,-2.8825,-2.8599,-2.8034,-2.7406,-2.6952,-2.6801,-2.6763,-2.6751,-2.6725,-2.6549,-2.6374,-2.6154,-2.5828,-2.5312,-2.4778,-2.4189,-2.3593,-2.2964,-2.2365,-2.1911,-2.1578,-2.1244,-2.1012,-2.0819,-2.0731,-2.0615,-2.0615,-2.0615,-2.0615,-2.0615,-2.0615,-2.0615,-2.0615,-2.0615,-2.0722,-2.1134,-2.1799,-2.2707,-2.3412,-2.3928,-2.4312,-2.4435,-2.4476,-2.4456,-2.4311,-2.4146,-2.3867,-2.3587,-3.2178,-3.1741,-3.1889,-3.2166,-3.2551,-3.3068,-3.3452,-3.3777,-3.4102,-3.3945,-3.3418,-3.314,-3.2695,-3.2202,-3.1849,-3.1416,-3.0958,-3.0922,-3.0983,-3.1115,-3.1127,-3.1298,-3.1721,-3.2302,-3.2636,-3.2896,-3.3025,-3.3124,-3.3124,-3.3124,-3.3124,-3.3124,-3.3124,-3.3124,-3.3124,-3.3124,-3.3124,-3.3023,-3.2315,-3.1738,-3.1323,-3.0683,-3.0143,-2.9829,-2.9779,-2.9779,-2.9779,-2.9779,-2.9779,-2.9779,-2.9779,-2.9779,-2.9716,-2.8938,-2.8423,-2.8247,-2.7681,-2.714,-2.709,-2.6979,-2.6914,-2.709,-2.7241,-2.7645,-2.8273,-2.875,-2.8825,-2.8599,-2.8323,-2.7795,-2.7128,-2.6725,-2.6499,-2.6487,-2.6512,-2.6487,-2.6452,-2.6327,-2.6119,-2.5828,-2.537,-2.4814,-2.425,-2.3677,-2.3038,-2.244,-2.1959,-2.155,-2.1167,-2.0945,-2.0741,-2.0654,-2.0615,-2.0615,-2.0615,-2.0615,-2.0615,-2.0615,-2.0615,-2.0615,-2.0615,-2.0751,-2.1045,-2.1888,-2.2787,-2.3361,-2.3898,-2.4259,-2.4497,-2.4466,-2.4363,-2.4178,-2.3908,-2.3422,-2.308,-3.2142,-3.1801,-3.2226,-3.2382,-3.2466,-3.2971,-3.3212,-3.3236,-3.3272,-3.3008,-3.2563,-3.2286,-3.1961,-3.1621,-3.1247,-3.0934,-3.0814,-3.0585,-3.0302,-3.0074,-3.0091,-3.0417,-3.1302,-3.2087,-3.2482,-3.2754,-3.2939,-3.3068,-3.3124,-3.3124,-3.3124,-3.3124,-3.3124,-3.3124,-3.3124,-3.3124,-3.3124,-3.2986,-3.2039,-3.1524,-3.1361,-3.0444,-2.9867,-2.9804,-2.9779,-2.9779,-2.9779,-2.9779,-2.9779,-2.9779,-2.9779,-2.9779,-2.9691,-2.9201,-2.8863,-2.8787,-2.8386,-2.8059,-2.7946,-2.7582,-2.7494,-2.7858,-2.7632,-2.7758,-2.8637,-2.8825,-2.8737,-2.8398,-2.8185,-2.7708,-2.6901,-2.6537,-2.6499,-2.6487,-2.6487,-2.6487,-2.6499,-2.6305,-2.6131,-2.5875,-2.5382,-2.4802,-2.4261,-2.3666,-2.299,-2.2327,-2.1807,-2.1387,-2.1089,-2.0858,-2.0654,-2.0615,-2.0615,-2.0615,-2.0615,-2.0615,-2.0615,-2.0615,-2.0615,-2.0654,-2.0731,-2.0867,-2.1042,-2.1905,-2.2662,-2.3257,-2.3712,-2.4074,-2.429,-2.4301,-2.4178,-2.396,-2.3546,-2.3039,-2.2658,-3.1849,-3.1729,-3.1874,-3.1877,-3.2006,-3.2466,-3.2707,-3.2707,-3.2695,-3.2358,-3.1829,-3.1048,-3.0482,-2.9917,-2.9544,-2.9244,-2.9256,-2.9196,-2.9088,-2.8955,-2.8931,-2.9825,-3.0937,-3.1461,-3.2013,-3.2581,-3.2742,-3.2896,-3.3081,-3.3124,-3.3124,-3.3124,-3.3124,-3.3124,-3.3124,-3.3124,-3.3124,-3.2993,-3.239,-3.1763,-3.1336,-3.0746,-3.0206,-2.9817,-2.9779,-2.9779,-2.9779,-2.9779,-2.9779,-2.9779,-2.9779,-2.9779,-2.9729,-2.9264,-2.8938,-2.89,-2.8486,-2.8134,-2.8109,-2.7984,-2.7984,-2.8072,-2.8021,-2.8185,-2.8787,-2.8888,-2.8813,-2.8612,-2.8373,-2.7821,-2.719,-2.6725,-2.6524,-2.6487,-2.6487,-2.6487,-2.6465,-2.6339,-2.6131,-2.5863,-2.5347,-2.479,-2.425,-2.3703,-2.3065,-2.2402,-2.1883,-2.1436,-2.1128,-2.0819,-2.0615,-2.0615,-2.0615,-2.0615,-2.0615,-2.0615,-2.0615,-2.0615,-2.0654,-2.0731,-2.0886,-2.1128,-2.1302,-2.1706,-2.2333,-2.2967,-2.3329,-2.3691,-2.3867,-2.4053,-2.3888,-2.3619,-2.308,-2.2584,-2.2259,-3.1877,-3.1717,-3.1705,-3.1705,-3.1753,-3.201,-3.2154,-3.2106,-3.1889,-3.1504,-3.0946,-3.0146,-2.946,-2.8943,-2.8655,-2.8522,-2.851,-2.851,-2.8534,-2.8522,-2.8546,-2.9253,-3.0271,-3.084,-3.1583,-3.2191,-3.2568,-3.2853,-3.3081,-3.3124,-3.3124,-3.3124,-3.3124,-3.3124,-3.3124,-3.3124,-3.3124,-3.3023,-3.2516,-3.1951,-3.1411,-3.0884,-3.0357,-2.9905,-2.9779,-2.9779,-2.9779,-2.9779,-2.9779,-2.9779,-2.9779,-2.9779,-2.9767,-2.9503,-2.9289,-2.9277,-2.8976,-2.8825,-2.8762,-2.8612,-2.8586,-2.8712,-2.8637,-2.8725,-2.9164,-2.9251,-2.9252,-2.89,-2.8423,-2.7883,-2.7331,-2.6826,-2.6537,-2.6487,-2.6487,-2.6487,-2.6487,-2.6223,-2.6062,-2.577,-2.5336,-2.4754,-2.4261,-2.374,-2.315,-2.2515,-2.1949,-2.1589,-2.1254,-2.0886,-2.0615,-2.0615,-2.0615,-2.0615,-2.0615,-2.0615,-2.0615,-2.0615,-2.0848,-2.0896,-2.1051,-2.132,-2.1474,-2.173,-2.2185,-2.2594,-2.2956,-2.3267,-2.3463,-2.3546,-2.3453,-2.3194,-2.2687,-2.2315,-2.1981,-3.2073,-3.1661,-3.1705,-3.1705,-3.1705,-3.1717,-3.1717,-3.1536,-3.1103,-3.0543,-3.0013,-2.946,-2.8991,-2.851,-2.8546,-2.851,-2.851,-2.851,-2.851,-2.851,-2.8534,-2.8887,-2.9427,-3.0415,-3.1131,-3.1705,-3.2352,-3.2766,-3.3,-3.3124,-3.3124,-3.3124,-3.3124,-3.3124,-3.3124,-3.3124,-3.3124,-3.3048,-3.2654,-3.2139,-3.1587,-3.106,-3.0545,-3.0068,-2.9817,-2.9792,-2.9779,-2.9779,-2.9779,-2.9779,-2.9779,-2.9779,-2.9779,-2.9779,-2.9767,-2.9729,-2.9641,-2.9641,-2.9679,-2.9227,-2.9189,-2.9478,-2.9227,-2.9227,-2.9603,-2.9679,-2.9528,-2.9164,-2.8473,-2.7833,-2.7193,-2.6751,-2.6537,-2.6487,-2.6487,-2.6487,-2.6418,-2.6154,-2.5875,-2.5805,-2.5254,-2.4682,-2.4236,-2.3776,-2.325,-2.2505,-2.1987,-2.155,-2.1205,-2.0848,-2.0644,-2.0615,-2.0615,-2.0615,-2.0615,-2.0615,-2.0615,-2.0693,-2.1041,-2.1205,-2.1244,-2.1436,-2.1578,-2.1845,-2.2069,-2.2325,-2.2594,-2.2853,-2.3049,-2.307,-2.2998,-2.2718,-2.2387,-2.2128,-2.1814,-3.1502,-3.1395,-3.1617,-3.1705,-3.1705,-3.1705,-3.1476,-3.1055,-3.0537,-3.0001,-2.9448,-2.8919,-2.8643,-2.851,-2.851,-2.851,-2.851,-2.851,-2.851,-2.851,-2.851,-2.8614,-2.8987,-2.9715,-3.0563,-3.1373,-3.1905,-3.2416,-3.2875,-3.2986,-3.3099,-3.3061,-3.296,-3.3099,-3.3048,-3.3023,-3.3124,-3.3099,-3.2918,-3.2566,-3.2014,-3.1486,-3.0959,-3.0419,-3.0005,-2.9792,-2.9779,-2.9779,-2.9779,-2.9779,-2.9779,-2.9779,-2.9779,-2.9779,-2.9779,-2.9779,-2.9779,-2.9779,-2.9754,-2.9654,-2.9628,-2.9716,-2.9654,-2.9666,-2.9729,-2.9779,-2.9729,-2.9428,-2.8712,-2.7783,-2.6952,-2.6612,-2.6499,-2.6487,-2.6487,-2.6487,-2.6418,-2.6154,-2.5863,-2.5618,-2.5171,-2.461,-2.4055,-2.3629,-2.3075,-2.2467,-2.1987,-2.1512,-2.1156,-2.0838,-2.0683,-2.0615,-2.0615,-2.0615,-2.0605,-2.0654,-2.077,-2.0848,-2.1167,-2.1436,-2.1474,-2.155,-2.1693,-2.178,-2.1821,-2.2087,-2.2325,-2.2439,-2.2635,-2.2594,-2.2542,-2.2346,-2.2128,-2.189,-2.1693,-3.1352,-3.1184,-3.1407,-3.1528,-3.154,-3.1661,-3.1404,-3.0843,-3.0314,-2.9785,-2.9268,-2.8739,-2.8522,-2.851,-2.851,-2.851,-2.851,-2.851,-2.851,-2.851,-2.8578,-2.8685,-2.8867,-2.9294,-3.0044,-3.0943,-3.139,-3.183,-3.2173,-3.2315,-3.2227,-3.2277,-3.2344,-3.2256,-3.2365,-3.2541,-3.2641,-3.2729,-3.2955,-3.2805,-3.224,-3.1938,-3.1348,-3.0683,-3.0105,-2.9779,-2.9779,-2.9779,-2.9779,-2.9779,-2.9779,-2.9779,-2.9779,-2.9779,-2.9779,-2.9779,-2.9779,-2.9779,-2.9779,-2.9779,-2.9767,-2.9779,-2.9779,-2.9779,-2.9779,-2.9779,-2.9779,-2.9616,-2.8976,-2.8059,-2.704,-2.6587,-2.6537,-2.6487,-2.6499,-2.6487,-2.643,-2.6154,-2.584,-2.5535,-2.5064,-2.449,-2.397,-2.3482,-2.3001,-2.244,-2.1873,-2.1436,-2.1205,-2.0886,-2.0683,-2.0615,-2.0615,-2.0605,-2.0605,-2.0731,-2.0935,-2.1089,-2.131,-2.154,-2.1617,-2.1693,-2.1769,-2.1818,-2.1828,-2.1859,-2.2066,-2.2159,-2.2201,-2.2159,-2.2108,-2.2004,-2.1932,-2.1849,-2.1617,-3.1224,-3.0883,-3.1083,-3.1261,-3.1294,-3.1432,-3.1204,-3.0699,-3.0206,-2.9605,-2.9172,-2.8679,-2.851,-2.851,-2.851,-2.851,-2.851,-2.851,-2.851,-2.8578,-2.8685,-2.8843,-2.9013,-2.9335,-2.9677,-3.0229,-3.0792,-3.1201,-3.142,-3.1399,-3.1612,-3.1449,-3.1436,-3.1615,-3.1587,-3.1825,-3.2177,-3.2328,-3.2654,-3.2805,-3.2428,-3.224,-3.1625,-3.0721,-3.0093,-2.9804,-2.9779,-2.9779,-2.9779,-2.9779,-2.9779,-2.9779,-2.9779,-2.9779,-2.9779,-2.9779,-2.9779,-2.9779,-2.9779,-2.9779,-2.9779,-2.9779,-2.9779,-2.9779,-2.9779,-2.9779,-2.9779,-2.9603,-2.9151,-2.8473,-2.7532,-2.7178,-2.6839,-2.6688,-2.6637,-2.654,-2.6396,-2.6119,-2.5828,-2.55,-2.4945,-2.4381,-2.3824,-2.3335,-2.2889,-2.2402,-2.1845,-2.1387,-2.1167,-2.0886,-2.0693,-2.0615,-2.0615,-2.0693,-2.0693,-2.0964,-2.1167,-2.1282,-2.1502,-2.1617,-2.1731,-2.1769,-2.1807,-2.1807,-2.1828,-2.1859,-2.1859,-2.1932,-2.1932,-2.1818,-2.1828,-2.1869,-2.1859,-2.1818,-2.155,-3.0262,-3.0352,-3.0623,-3.0937,-3.1178,-3.0886,-3.0527,-3.0182,-2.9689,-2.9136,-2.8691,-2.8546,-2.851,-2.851,-2.851,-2.851,-2.851,-2.851,-2.8578,-2.8724,-2.8803,-2.8949,-2.9223,-2.9392,-2.9647,-2.9939,-3.039,-3.0869,-3.121,-3.1386,-3.1198,-3.1311,-3.1298,-3.1286,-3.1273,-3.1512,-3.1725,-3.2001,-3.2315,-3.2516,-3.2641,-3.2303,-3.1675,-3.067,-3.008,-2.9817,-2.9779,-2.9779,-2.9779,-2.9779,-2.9779,-2.9779,-2.9779,-2.9779,-2.9779,-2.9779,-2.9779,-2.9779,-2.9779,-2.9779,-2.9779,-2.9779,-2.9779,-2.9779,-2.9779,-2.9779,-2.9779,-2.9641,-2.9277,-2.8649,-2.8059,-2.7758,-2.7557,-2.7306,-2.7118,-2.6957,-2.6482,-2.6101,-2.5809,-2.5468,-2.4908,-2.4273,-2.3751,-2.3224,-2.274,-2.2289,-2.1769,-2.1397,-2.1205,-2.0935,-2.0654,-2.0615,-2.0615,-2.0702,-2.0819,-2.1167,-2.1436,-2.1464,-2.1617,-2.1693,-2.1769,-2.1769,-2.1807,-2.1807,-2.1807,-2.1828,-2.1818,-2.1807,-2.1807,-2.1807,-2.1807,-2.1807,-2.1807,-2.1769,-2.1589,-2.9579,-2.9534,-2.9893,-3.0087,-3.0149,-3.0162,-2.9959,-2.9689,-2.94,-2.9003,-2.8643,-2.851,-2.851,-2.851,-2.851,-2.851,-2.851,-2.851,-2.8618,-2.8764,-2.8922,-2.9106,-2.9431,-2.9521,-2.9663,-2.9854,-3.0093,-3.0306,-3.0545,-3.0532,-3.062,-3.0545,-3.0557,-3.0557,-3.0645,-3.0846,-3.111,-3.1461,-3.1901,-3.2315,-3.2541,-3.2077,-3.1361,-3.0721,-3.0118,-2.9817,-2.9779,-2.9779,-2.9779,-2.9779,-2.9779,-2.9779,-2.9779,-2.9779,-2.9779,-2.9779,-2.9779,-2.9779,-2.9779,-2.9779,-2.9779,-2.9779,-2.9779,-2.9779,-2.9779,-2.9779,-2.9779,-2.9666,-2.9289,-2.88,-2.8512,-2.831,-2.7984,-2.7795,-2.7708,-2.7474,-2.7022,-2.65,-2.6044,-2.5577,-2.487,-2.4244,-2.3641,-2.315,-2.2628,-2.2138,-2.1655,-2.1397,-2.1215,-2.0925,-2.0605,-2.0693,-2.0731,-2.0935,-2.1051,-2.132,-2.1589,-2.1617,-2.1693,-2.1769,-2.1807,-2.1807,-2.1807,-2.1807,-2.1807,-2.1807,-2.1807,-2.1807,-2.1807,-2.1807,-2.1807,-2.1807,-2.1807,-2.1731,-2.155,-2.8888,-2.869,-2.8991,-2.9102,-2.9102,-2.94,-2.9422,-2.9246,-2.9172,-2.8895,-2.8546,-2.851,-2.851,-2.851,-2.851,-2.851,-2.851,-2.851,-2.8618,-2.8803,-2.9013,-2.9197,-2.9431,-2.965,-2.9779,-2.9792,-2.9829,-2.9779,-2.9917,-2.993,-2.9829,-2.9917,-2.9842,-2.9792,-2.9955,-3.0294,-3.0432,-3.0871,-3.132,-3.1876,-3.1888,-3.1512,-3.106,-3.062,-3.008,-2.9779,-2.9779,-2.9779,-2.9779,-2.9779,-2.9779,-2.9779,-2.9779,-2.9779,-2.9779,-2.9779,-2.9779,-2.9779,-2.9779,-2.9779,-2.9779,-2.9779,-2.9779,-2.9779,-2.9779,-2.9779,-2.9779,-2.9704,-2.9453,-2.9151,-2.9063,-2.8725,-2.8448,-2.8273,-2.8223,-2.8087,-2.7618,-2.7127,-2.6542,-2.585,-2.4947,-2.4288,-2.3756,-2.3113,-2.259,-2.2214,-2.1731,-2.1359,-2.1177,-2.0848,-2.0644,-2.077,-2.0886,-2.1167,-2.132,-2.1436,-2.1655,-2.1731,-2.1731,-2.1769,-2.1807,-2.1807,-2.1807,-2.1807,-2.1807,-2.1807,-2.1807,-2.1807,-2.1807,-2.1807,-2.1807,-2.1807,-2.1807,-2.1769,-2.1655,-2.7761,-2.8094,-2.7966,-2.8248,-2.876,-2.8778,-2.8858,-2.8974,-2.8742,-2.8582,-2.851,-2.851,-2.851,-2.851,-2.851,-2.851,-2.851,-2.851,-2.8618,-2.8803,-2.9,-2.9197,-2.9431,-2.9702,-2.9779,-2.9779,-2.9779,-2.9779,-2.9779,-2.9779,-2.9779,-2.9779,-2.9779,-2.9779,-2.9804,-2.9942,-3.0143,-3.0532,-3.0758,-3.106,-3.1336,-3.1009,-3.0733,-3.0457,-3.0105,-2.9779,-2.9779,-2.9779,-2.9792,-2.983,-2.983,-2.9792,-2.9779,-2.9779,-2.9779,-2.9779,-2.9779,-2.9779,-2.9779,-2.9779,-2.9779,-2.9779,-2.9779,-2.9779,-2.9779,-2.9779,-2.9779,-2.9779,-2.9666,-2.9616,-2.9578,-2.9566,-2.9302,-2.8988,-2.88,-2.8475,-2.8015,-2.7718,-2.715,-2.6547,-2.5742,-2.4733,-2.3957,-2.3264,-2.259,-2.2214,-2.1845,-2.1474,-2.1167,-2.0886,-2.0867,-2.1041,-2.1195,-2.1436,-2.1578,-2.1693,-2.1693,-2.1807,-2.1807,-2.1807,-2.1807,-2.1807,-2.1807,-2.1807,-2.1807,-2.1807,-2.1807,-2.1807,-2.1807,-2.1807,-2.1807,-2.1807,-2.1807,-2.1731,-2.1693,-2.663,-2.7185,-2.7228,-2.7435,-2.7737,-2.8046,-2.8361,-2.8517,-2.8539,-2.851,-2.851,-2.851,-2.851,-2.851,-2.851,-2.851,-2.851,-2.851,-2.8618,-2.8803,-2.9013,-2.9197,-2.9419,-2.965,-2.9779,-2.9779,-2.9779,-2.9779,-2.9779,-2.9779,-2.9779,-2.9779,-2.9779,-2.9779,-2.9779,-2.9779,-2.9917,-3.0181,-3.0457,-3.0733,-3.0834,-3.0721,-3.0457,-3.0168,-2.9917,-2.9817,-2.9792,-2.9779,-2.9856,-2.9934,-2.9972,-3.0049,-3.0113,-3.0113,-3.0113,-2.9972,-2.9972,-2.9895,-2.9818,-2.9779,-2.9779,-2.9779,-2.9779,-2.9779,-2.9779,-2.9779,-2.9779,-2.9779,-2.9779,-2.9779,-2.9779,-2.9779,-2.9666,-2.949,-2.9289,-2.9113,-2.8661,-2.8225,-2.7775,-2.7165,-2.6522,-2.5587,-2.4605,-2.3668,-2.3025,-2.2515,-2.2111,-2.1693,-2.1397,-2.1167,-2.1233,-2.1425,-2.1578,-2.1693,-2.1845,-2.1949,-2.1845,-2.1845,-2.1807,-2.1807,-2.1807,-2.1807,-2.1807,-2.1807,-2.1807,-2.1807,-2.1807,-2.1807,-2.1807,-2.1807,-2.1807,-2.1807,-2.1807,-2.1769,-2.1693,-2.564,-2.6269,-2.6519,-2.6719,-2.6903,-2.7598,-2.7973,-2.8151,-2.8391,-2.851,-2.851,-2.851,-2.851,-2.851,-2.851,-2.851,-2.851,-2.851,-2.8618,-2.8816,-2.9,-2.9197,-2.9431,-2.965,-2.9779,-2.9779,-2.9779,-2.9779,-2.9779,-2.9779,-2.9779,-2.9779,-2.9779,-2.9779,-2.9779,-2.9779,-2.9842,-2.988,-3.0193,-3.0357,-3.0382,-3.0394,-3.0156,-2.993,-2.9792,-2.983,-2.9869,-2.9908,-2.9972,-3.0228,-3.0267,-3.0343,-3.052,-3.0482,-3.0381,-3.019,-3.0101,-2.996,-2.9856,-2.9779,-2.9779,-2.9779,-2.9779,-2.9779,-2.9779,-2.9779,-2.9779,-2.9779,-2.9779,-2.9779,-2.9779,-2.9779,-2.9741,-2.9729,-2.9716,-2.9625,-2.9447,-2.8907,-2.8493,-2.8088,-2.7438,-2.6688,-2.5617,-2.4367,-2.3541,-2.2944,-2.2413,-2.1921,-2.1655,-2.1464,-2.1578,-2.1807,-2.1911,-2.1997,-2.2073,-2.2101,-2.2025,-2.1921,-2.1845,-2.1807,-2.1807,-2.1807,-2.1807,-2.1807,-2.1807,-2.1807,-2.1807,-2.1807,-2.1807,-2.1807,-2.1807,-2.1807,-2.1807,-2.1807,-2.1693,-2.4876,-2.5321,-2.5807,-2.6285,-2.6727,-2.7557,-2.7921,-2.799,-2.8351,-2.851,-2.851,-2.851,-2.851,-2.851,-2.851,-2.851,-2.851,-2.851,-2.8618,-2.8803,-2.9,-2.9197,-2.9431,-2.9638,-2.9779,-2.9779,-2.9779,-2.9779,-2.9779,-2.9779,-2.9779,-2.9779,-2.9779,-2.9779,-2.9779,-2.9779,-2.9779,-2.9792,-2.9942,-2.993,-2.993,-2.9917,-2.9867,-2.9829,-2.983,-2.9908,-3.0037,-3.0075,-3.0279,-3.0584,-3.0647,-3.0761,-3.0911,-3.0798,-3.0647,-3.0444,-3.0216,-3.0075,-2.9895,-2.983,-2.9779,-2.9779,-2.9779,-2.9779,-2.9779,-2.9779,-2.9779,-2.9779,-2.9779,-2.9779,-2.9779,-2.9779,-2.9779,-2.9779,-2.9779,-2.974,-2.9638,-2.9484,-2.9091,-2.8883,-2.8302,-2.7507,-2.6765,-2.552,-2.4277,-2.3603,-2.2762,-2.2252,-2.2073,-2.1883,-2.1997,-2.2149,-2.2252,-2.2327,-2.2338,-2.23,-2.2176,-2.2025,-2.1921,-2.1835,-2.1797,-2.1797,-2.1807,-2.1807,-2.1807,-2.1807,-2.1807,-2.1807,-2.1807,-2.1807,-2.1807,-2.1807,-2.1807,-2.1807,-2.1627,-2.4784,-2.508,-2.5782,-2.6343,-2.6839,-2.7598,-2.7962,-2.8111,-2.8391,-2.851,-2.851,-2.851,-2.851,-2.851,-2.851,-2.851,-2.851,-2.851,-2.8605,-2.8803,-2.9013,-2.9197,-2.9431,-2.9638,-2.9779,-2.9779,-2.9779,-2.9779,-2.9779,-2.9779,-2.9779,-2.9779,-2.9779,-2.9779,-2.9779,-2.9779,-2.9779,-2.9779,-2.9779,-2.9779,-2.9779,-2.9779,-2.9779,-2.9779,-2.9779,-2.9895,-3.0075,-3.0216,-3.052,-3.0836,-3.0986,-3.1174,-3.1323,-3.1187,-3.0986,-3.0748,-3.0457,-3.019,-2.9972,-2.9869,-2.9779,-2.9779,-2.9779,-2.9779,-2.9779,-2.9779,-2.9779,-2.9779,-2.9779,-2.9779,-2.9779,-2.9779,-2.9779,-2.9779,-2.9779,-2.9779,-2.974,-2.9638,-2.9509,-2.9188,-2.8856,-2.8288,-2.755,-2.6768,-2.5467,-2.4269,-2.3387,-2.2665,-2.244,-2.2327,-2.2413,-2.244,-2.2515,-2.2553,-2.2553,-2.2478,-2.2365,-2.2214,-2.2063,-2.1949,-2.1873,-2.1797,-2.1797,-2.1807,-2.1807,-2.1807,-2.1807,-2.1807,-2.1807,-2.1807,-2.1807,-2.1807,-2.1807,-2.1769,-2.1589,-2.4732,-2.4999,-2.5863,-2.6456,-2.6974,-2.7609,-2.8042,-2.8219,-2.8419,-2.851,-2.851,-2.851,-2.851,-2.851,-2.851,-2.851,-2.851,-2.851,-2.8697,-2.8855,-2.9052,-2.9287,-2.9482,-2.9689,-2.9779,-2.9779,-2.9779,-2.9779,-2.9779,-2.9779,-2.9779,-2.9779,-2.9779,-2.9779,-2.9779,-2.9779,-2.9779,-2.9779,-2.9779,-2.9779,-2.9779,-2.9779,-2.9779,-2.9818,-2.9856,-3.0049,-3.0305,-3.052,-3.0898,-3.1286,-3.1545,-3.1693,-3.173,-3.1656,-3.1384,-3.1086,-3.0723,-3.0368,-3.0113,-2.9934,-2.9792,-2.9779,-2.9779,-2.9779,-2.9779,-2.9779,-2.9779,-2.9779,-2.9779,-2.9779,-2.974,-2.9638,-2.965,-2.9611,-2.9611,-2.9611,-2.974,-2.974,-2.965,-2.9496,-2.9164,-2.8817,-2.8077,-2.7265,-2.5931,-2.4699,-2.3761,-2.3119,-2.2889,-2.2777,-2.2777,-2.2777,-2.2767,-2.2777,-2.2777,-2.2628,-2.2515,-2.244,-2.2289,-2.2101,-2.1987,-2.1911,-2.1797,-2.1807,-2.1807,-2.1807,-2.1807,-2.1807,-2.1807,-2.1807,-2.1807,-2.1807,-2.1769,-2.1731,-2.155,-2.4518,-2.4999,-2.5874,-2.6498,-2.6974,-2.7598,-2.8002,-2.8219,-2.8419,-2.851,-2.851,-2.851,-2.851,-2.851,-2.851,-2.851,-2.851,-2.851,-2.8697,-2.8973,-2.9104,-2.9378,-2.9624,-2.9779,-2.9779,-2.9779,-2.9779,-2.9779,-2.9779,-2.9779,-2.9779,-2.9779,-2.9779,-2.9779,-2.9779,-2.9779,-2.9779,-2.9779,-2.9779,-2.9779,-2.9779,-2.9779,-2.9779,-2.9818,-2.9972,-3.0203,-3.0546,-3.0798,-3.1248,-3.1803,-3.1986,-3.2119,-3.2214,-3.2096,-3.1803,-3.1323,-3.0874,-3.0495,-3.0113,-2.9908,-2.983,-2.9779,-2.9779,-2.9779,-2.9779,-2.9779,-2.9779,-2.9779,-2.9753,-2.9663,-2.9521,-2.9419,-2.9431,-2.9431,-2.9431,-2.9521,-2.965,-2.9779,-2.974,-2.965,-2.947,-2.9186,-2.8479,-2.7605,-2.6252,-2.5089,-2.4134,-2.3583,-2.3268,-2.3113,-2.3038,-2.2889,-2.2815,-2.2777,-2.274,-2.274,-2.2665,-2.2639,-2.2515,-2.2289,-2.2138,-2.2025,-2.1949,-2.1845,-2.1807,-2.1807,-2.1807,-2.1807,-2.1807,-2.1807,-2.1807,-2.1769,-2.1769,-2.1655,-2.1502,-2.5041,-2.5591,-2.6207,-2.6798,-2.733,-2.7719,-2.807,-2.8391,-2.8471,-2.851,-2.851,-2.851,-2.851,-2.851,-2.851,-2.851,-2.851,-2.851,-2.8697,-2.9052,-2.9143,-2.9417,-2.9663,-2.9779,-2.9779,-2.9779,-2.9779,-2.9779,-2.9779,-2.9779,-2.9779,-2.9779,-2.9779,-2.9779,-2.9779,-2.9779,-2.9779,-2.9779,-2.9779,-2.9779,-2.9779,-2.9779,-2.9792,-2.983,-3.0011,-3.0318,-3.0736,-3.1024,-3.1545,-3.2132,-3.2277,-3.2359,-3.2359,-3.2241,-3.1853,-3.1397,-3.0949,-3.0305,-3.0011,-2.983,-2.9779,-2.9779,-2.9779,-2.9779,-2.9779,-2.9779,-2.9779,-2.974,-2.965,-2.9521,-2.9419,-2.9275,-2.9248,-2.9236,-2.9275,-2.9392,-2.9521,-2.9702,-2.974,-2.9689,-2.956,-2.904,-2.8418,-2.7751,-2.6577,-2.5686,-2.4792,-2.3877,-2.3427,-2.3231,-2.3113,-2.2852,-2.274,-2.2703,-2.2665,-2.2628,-2.259,-2.2515,-2.2515,-2.244,-2.2327,-2.2138,-2.1987,-2.1845,-2.1807,-2.1807,-2.1807,-2.1807,-2.1807,-2.1807,-2.1807,-2.1769,-2.1731,-2.1617,-2.1464,-2.5295,-2.5937,-2.6479,-2.6992,-2.7482,-2.78,-2.8122,-2.8471,-2.851,-2.851,-2.851,-2.851,-2.851,-2.851,-2.851,-2.851,-2.851,-2.8578,-2.8736,-2.9091,-2.9197,-2.9456,-2.9702,-2.9779,-2.9779,-2.9779,-2.9779,-2.9779,-2.9779,-2.9779,-2.9779,-2.9779,-2.9779,-2.9779,-2.9779,-2.9779,-2.9779,-2.9779,-2.9779,-2.9779,-2.9779,-2.9792,-2.983,-2.9946,-3.0164,-3.0457,-3.0874,-3.1272,-3.168,-3.2191,-3.2395,-3.2453,-3.2359,-3.2205,-3.1853,-3.1397,-3.0761,-3.019,-2.9908,-2.9792,-2.9779,-2.9779,-2.9779,-2.9779,-2.9779,-2.9779,-2.9779,-2.9689,-2.9509,-2.9392,-2.9275,-2.9131,-2.9,-2.904,-2.917,-2.9275,-2.947,-2.9611,-2.9779,-2.9728,-2.9521,-2.8961,-2.8383,-2.769,-2.6885,-2.6148,-2.5447,-2.4524,-2.3588,-2.3337,-2.3093,-2.2788,-2.2622,-2.2596,-2.2547,-2.2563,-2.2478,-2.2402,-2.2461,-2.2542,-2.2289,-2.2101,-2.1949,-2.1835,-2.1807,-2.1807,-2.1807,-2.1807,-2.1807,-2.1807,-2.1807,-2.1769,-2.1693,-2.154,-2.1349,-2.5295,-2.5979,-2.6644,-2.7167,-2.7522,-2.7829,-2.8163,-2.851,-2.851,-2.851,-2.851,-2.851,-2.851,-2.851,-2.851,-2.851,-2.855,-2.8685,-2.8922,-2.9118,-2.9275,-2.9573,-2.9702,-2.9779,-2.9779,-2.9779,-2.9779,-2.9779,-2.9779,-2.9779,-2.9779,-2.9779,-2.9779,-2.9779,-2.9779,-2.9779,-2.9779,-2.9779,-2.9779,-2.9779,-2.9779,-2.9779,-2.9869,-3.0011,-3.0216,-3.0634,-3.1011,-3.1434,-3.1936,-3.2322,-3.2489,-3.2525,-3.2503,-3.2372,-3.1863,-3.1235,-3.0482,-3.0126,-2.9869,-2.9779,-2.9779,-2.9779,-2.9779,-2.9779,-2.9779,-2.9779,-2.9753,-2.965,-2.947,-2.9275,-2.9131,-2.8961,-2.8803,-2.8895,-2.9013,-2.9209,-2.9392,-2.956,-2.974,-2.9689,-2.9482,-2.904,-2.8447,-2.7773,-2.7048,-2.6284,-2.5574,-2.4788,-2.3928,-2.3248,-2.2994,-2.2612,-2.2493,-2.2509,-2.253,-2.2668,-2.2768,-2.2857,-2.2609,-2.2605,-2.233,-2.2094,-2.1987,-2.1873,-2.1807,-2.1807,-2.1807,-2.1807,-2.1807,-2.1769,-2.1769,-2.1655,-2.1627,-2.1397,-2.1205,-2.5759,-2.6426,-2.691,-2.736,-2.78,-2.8151,-2.8403,-2.851,-2.851,-2.851,-2.851,-2.851,-2.851,-2.851,-2.851,-2.8578,-2.8685,-2.8803,-2.904,-2.9223,-2.9392,-2.9573,-2.9702,-2.9779,-2.9779,-2.9779,-2.9779,-2.9779,-2.9779,-2.9779,-2.9779,-2.9779,-2.9779,-2.9779,-2.9779,-2.9779,-2.9779,-2.9779,-2.9779,-2.9779,-2.9779,-2.9779,-2.9869,-2.9972,-3.0254,-3.0634,-3.1048,-3.1447,-3.1913,-3.2322,-3.2417,-3.2417,-3.23,-3.2096,-3.1656,-3.0748,-3.0305,-3.0011,-2.9818,-2.9779,-2.9779,-2.9779,-2.9779,-2.9779,-2.9779,-2.9779,-2.9714,-2.956,-2.9353,-2.9157,-2.8973,-2.8816,-2.8685,-2.8776,-2.8895,-2.9091,-2.9275,-2.9482,-2.9663,-2.9585,-2.9404,-2.8973,-2.8379,-2.7822,-2.7094,-2.6359,-2.5658,-2.4881,-2.4207,-2.3563,-2.3088,-2.2743,-2.2754,-2.2881,-2.2984,-2.3094,-2.3203,-2.3237,-2.297,-2.2717,-2.2527,-2.2318,-2.2081,-2.1911,-2.1807,-2.1807,-2.1807,-2.1807,-2.1807,-2.1731,-2.1693,-2.1578,-2.1474,-2.1282,-2.1089,-2.5874,-2.6592,-2.7033,-2.7563,-2.8111,-2.8391,-2.851,-2.851,-2.851,-2.851,-2.851,-2.851,-2.851,-2.851,-2.851,-2.8618,-2.8803,-2.8922,-2.9118,-2.9353,-2.9521,-2.9663,-2.974,-2.9779,-2.9779,-2.9779,-2.9779,-2.9779,-2.9779,-2.9779,-2.9779,-2.9779,-2.9779,-2.9779,-2.9779,-2.9779,-2.9779,-2.9779,-2.9779,-2.9779,-2.9779,-2.9779,-2.983,-2.9946,-3.0228,-3.0596,-3.0973,-3.1373,-3.184,-3.2228,-3.225,-3.2228,-3.2023,-3.1743,-3.1174,-3.0381,-3.0126,-2.9934,-2.9818,-2.9779,-2.9779,-2.9779,-2.9779,-2.9779,-2.9779,-2.9779,-2.965,-2.947,-2.9236,-2.9,-2.8816,-2.8657,-2.8657,-2.8618,-2.8816,-2.9013,-2.9221,-2.9456,-2.9456,-2.9456,-2.9143,-2.8749,-2.8259,-2.7725,-2.7133,-2.6375,-2.5653,-2.497,-2.4358,-2.3825,-2.3416,-2.3118,-2.3218,-2.3381,-2.3462,-2.3509,-2.3543,-2.3484,-2.3205,-2.2974,-2.2749,-2.247,-2.2153,-2.1959,-2.1807,-2.1807,-2.1807,-2.1807,-2.1769,-2.1731,-2.1617,-2.1512,-2.1359,-2.1167,-2.0974,-2.5748,-2.6603,-2.7021,-2.7644,-2.8391,-2.8431,-2.8471,-2.8471,-2.8471,-2.851,-2.851,-2.851,-2.851,-2.851,-2.851,-2.8669,-2.8843,-2.9,-2.9197,-2.9431,-2.965,-2.9779,-2.9779,-2.9779,-2.9779,-2.9779,-2.9779,-2.9779,-2.9779,-2.9779,-2.9779,-2.9779,-2.9779,-2.9779,-2.9779,-2.9779,-2.9779,-2.9779,-2.9779,-2.9779,-2.9779,-2.983,-2.9908,-3.0049,-3.0267,-3.052,-3.0898,-3.1323,-3.1743,-3.1927,-3.1986,-3.1913,-3.1619,-3.1211,-3.0533,-3.0228,-2.9972,-2.9856,-2.9779,-2.9779,-2.9779,-2.9779,-2.9779,-2.9779,-2.9779,-2.9779,-2.965,-2.9353,-2.9118,-2.8922,-2.8724,-2.8697,-2.8657,-2.8697,-2.8816,-2.8934,-2.9052,-2.9209,-2.9287,-2.9209,-2.9091,-2.8618,-2.8018,-2.7441,-2.6899,-2.6216,-2.5619,-2.4987,-2.4555,-2.408,-2.3784,-2.3564,-2.3807,-2.3969,-2.3964,-2.399,-2.3819,-2.3706,-2.3459,-2.3149,-2.291,-2.261,-2.2263,-2.2035,-2.1807,-2.1807,-2.1807,-2.1807,-2.1769,-2.1731,-2.1617,-2.1397,-2.1205,-2.1012,-2.0858,-2.5759,-2.6354,-2.694,-2.7522,-2.8042,-2.8231,-2.8247,-2.8299,-2.8419,-2.851,-2.851,-2.851,-2.851,-2.851,-2.851,-2.8669,-2.8973,-2.9091,-2.9326,-2.9534,-2.974,-2.9779,-2.9779,-2.9779,-2.9779,-2.9779,-2.9779,-2.9779,-2.9779,-2.9779,-2.9779,-2.9779,-2.9779,-2.9779,-2.9779,-2.9779,-2.9779,-2.9779,-2.9779,-2.9779,-2.9779,-2.9779,-2.9818,-2.9934,-3.0075,-3.0305,-3.0647,-3.0949,-3.1248,-3.1421,-3.1458,-3.131,-3.1024,-3.052,-3.0228,-3.0088,-2.9895,-2.9818,-2.9779,-2.9779,-2.9779,-2.9779,-2.9779,-2.9779,-2.9779,-2.9779,-2.9624,-2.9326,-2.9091,-2.8843,-2.8685,-2.8697,-2.8697,-2.8776,-2.8816,-2.8843,-2.8882,-2.8961,-2.9079,-2.9,-2.8922,-2.8447,-2.7805,-2.7196,-2.6652,-2.6113,-2.5569,-2.5083,-2.4851,-2.4462,-2.4299,-2.4129,-2.4438,-2.4573,-2.4585,-2.4486,-2.4385,-2.4063,-2.3793,-2.3451,-2.3048,-2.2501,-2.2045,-2.1942,-2.1807,-2.1807,-2.1807,-2.1807,-2.1769,-2.1731,-2.154,-2.132,-2.1002,-2.076,-2.0644,-2.5549,-2.6115,-2.6798,-2.7278,-2.7563,-2.7805,-2.7886,-2.7926,-2.8207,-2.8391,-2.8391,-2.8471,-2.851,-2.851,-2.851,-2.8657,-2.8961,-2.9091,-2.9275,-2.9521,-2.974,-2.9779,-2.9779,-2.9779,-2.9779,-2.9779,-2.9779,-2.9779,-2.9779,-2.9779,-2.9779,-2.9779,-2.9779,-2.9779,-2.9779,-2.9779,-2.9779,-2.9779,-2.9779,-2.9779,-2.9779,-2.9779,-2.9779,-2.9856,-2.9998,-3.0152,-3.0343,-3.0609,-3.0874,-3.0986,-3.1024,-3.0823,-3.0571,-3.0267,-3.0088,-2.9972,-2.9869,-2.9779,-2.9779,-2.9779,-2.9779,-2.9779,-2.9779,-2.9779,-2.9779,-2.974,-2.9573,-2.9287,-2.9131,-2.8934,-2.8657,-2.8578,-2.8657,-2.8724,-2.8697,-2.8697,-2.8764,-2.8882,-2.8922,-2.8882,-2.8724,-2.8327,-2.7684,-2.7021,-2.6445,-2.5821,-2.5327,-2.4988,-2.4828,-2.4828,-2.4661,-2.4626,-2.4864,-2.5178,-2.5296,-2.5163,-2.4956,-2.4629,-2.4085,-2.3461,-2.2832,-2.2252,-2.1807,-2.1807,-2.1807,-2.1807,-2.1807,-2.1807,-2.1807,-2.1769,-2.1502,-2.1156,-2.0838,-2.0518,-2.0372,-2.5253,-2.5937,-2.652,-2.6921,-2.7156,-2.736,-2.7441,-2.7563,-2.7938,-2.8139,-2.8219,-2.8391,-2.8471,-2.851,-2.851,-2.8645,-2.8791,-2.9,-2.9223,-2.9431,-2.9702,-2.974,-2.9779,-2.9779,-2.9779,-2.9779,-2.9779,-2.9779,-2.9779,-2.9779,-2.9779,-2.9779,-2.9779,-2.9779,-2.9779,-2.9779,-2.9779,-2.9779,-2.9779,-2.9779,-2.9779,-2.9779,-2.9779,-2.9856,-2.9934,-3.0037,-3.019,-3.0343,-3.0584,-3.0622,-3.0622,-3.0432,-3.0241,-3.0049,-2.9972,-2.9856,-2.983,-2.9779,-2.9779,-2.9779,-2.9779,-2.9779,-2.9779,-2.9779,-2.9779,-2.9702,-2.9495,-2.9287,-2.9182,-2.8986,-2.8669,-2.859,-2.8697,-2.8697,-2.8618,-2.8578,-2.8697,-2.8764,-2.8764,-2.8764,-2.8447,-2.8087,-2.7522,-2.6857,-2.6238,-2.5611,-2.5158,-2.4871,-2.4668,-2.4786,-2.4819,-2.4903,-2.5102,-2.543,-2.5726,-2.5516,-2.5158,-2.4746,-2.4158,-2.3399,-2.2677,-2.2128,-2.1807,-2.1807,-2.1807,-2.1849,-2.1828,-2.1807,-2.1807,-2.178,-2.1464,-2.1118,-2.0654,-2.0372,-2.0098,-2.5094,-2.5906,-2.6063,-2.6313,-2.6715,-2.6921,-2.7115,-2.7267,-2.751,-2.7846,-2.8127,-2.8219,-2.8339,-2.851,-2.851,-2.8578,-2.8764,-2.8961,-2.9197,-2.9431,-2.9611,-2.974,-2.9779,-2.9779,-2.9779,-2.9779,-2.9779,-2.9779,-2.9779,-2.9779,-2.9779,-2.9779,-2.9779,-2.9779,-2.9779,-2.9779,-2.9779,-2.9779,-2.9779,-2.9779,-2.9779,-2.9779,-2.9779,-2.983,-2.983,-2.9869,-2.9908,-3.0088,-3.0203,-3.0228,-3.019,-3.0088,-2.9985,-2.9908,-2.9856,-2.9818,-2.9779,-2.9779,-2.9779,-2.9779,-2.9779,-2.9779,-2.9779,-2.9779,-2.9779,-2.9779,-2.9534,-2.9248,-2.9091,-2.8934,-2.8736,-2.8724,-2.8764,-2.8618,-2.855,-2.855,-2.8578,-2.8578,-2.8538,-2.8379,-2.8139,-2.7696,-2.7179,-2.6592,-2.6082,-2.5538,-2.5158,-2.4828,-2.4668,-2.4786,-2.4914,-2.5062,-2.5232,-2.5433,-2.5591,-2.5359,-2.5073,-2.4682,-2.4179,-2.3379,-2.2677,-2.2056,-2.1828,-2.2076,-2.1983,-2.1932,-2.1901,-2.1952,-2.1734,-2.1658,-2.1407,-2.1041,-2.0576,-2.0098,-1.9784]}]]